GFSGBSN_850_spd_000.txt.gz
Wind_Speed
9 10 11 11 11 10 9 8 7 7 6 6 7 8 10 12 14 15 15 13 12 11 14 8 4 6 8 8 7 9 11 13 11 15 15 15 18 10 5 2 5 3 2 2 4 5 4
9 10 11 12 12 11 10 9 8 8 8 9 11 13 16 17 16 14 12 12 11 11 10 4 2 6 5 4 6 9 11 12 11 12 14 10 12 13 4 4 3 2 3 5 10 10 8
9 11 12 13 13 13 12 10 10 10 11 13 15 17 17 16 14 13 13 13 12 10 9 7 3 6 3 3 5 9 4 5 2 8 12 11 9 11 9 3 3 4 3 6 12 6 4
9 11 12 13 14 15 13 12 11 11 12 14 15 16 16 15 14 14 14 14 14 12 9 4 3 5 1 4 4 5 9 3 6 5 7 7 11 10 4 6 4 4 3 4 6 9 4
9 11 12 14 15 15 14 11 11 11 12 14 15 16 14 13 14 14 14 11 9 8 3 1 4 5 1 2 5 4 8 11 7 6 8 11 12 3 3 4 5 6 4 3 8 6 2
9 11 12 14 15 15 15 12 11 11 11 13 14 14 13 13 13 12 11 8 6 3 3 5 6 2 2 1 3 7 10 12 10 14 13 2 2 4 5 6 0 4 5 5 2 6 5
9 10 12 14 15 15 15 12 10 9 10 11 12 12 12 11 10 9 7 3 1 1 2 5 7 5 5 1 6 9 12 7 8 8 3 4 6 2 4 2 3 1 2 3 4 3 7
9 10 11 12 15 15 15 13 9 7 7 9 10 10 10 10 9 6 5 3 4 2 3 5 6 6 3 7 3 11 12 1 4 2 5 7 3 2 4 5 3 6 3 4 6 6 3
9 10 11 12 13 15 14 13 8 7 6 7 8 8 8 8 4 3 7 3 7 3 1 1 1 3 3 4 3 8 11 3 1 5 4 5 3 2 5 6 7 3 2 3 6 7 3
9 10 12 11 12 14 14 13 9 6 6 6 9 9 9 6 4 3 3 6 4 6 4 3 2 1 3 1 2 7 9 4 5 2 2 2 2 4 6 3 2 4 3 4 6 4 2
7 10 11 12 12 12 14 14 10 6 6 5 8 11 10 8 5 4 2 2 5 2 5 3 0 1 4 2 3 7 8 2 2 4 5 4 2 4 4 3 3 7 7 8 4 4 3
4 6 9 11 12 11 13 14 11 5 6 6 7 10 12 11 6 4 3 1 3 6 1 2 1 1 1 4 5 7 16 5 5 4 3 2 3 3 1 4 2 6 6 5 4 3 3
3 3 6 9 11 10 12 14 12 5 6 7 7 7 9 9 7 5 5 1 4 5 2 2 1 2 3 4 5 5 5 11 5 6 7 6 5 4 3 5 7 8 6 4 5 5 4
5 2 3 6 8 9 9 12 12 6 6 9 9 7 6 8 7 6 3 5 6 4 3 1 1 2 2 2 3 5 3 5 7 6 3 5 6 7 6 2 2 4 4 4 1 0 5
6 3 1 2 5 7 7 10 13 6 7 8 9 10 7 5 9 5 1 5 5 4 3 4 4 3 3 5 3 5 4 3 6 7 4 5 4 5 4 5 2 4 4 1 5 2 3
8 5 3 1 1 4 6 8 13 8 7 8 6 8 8 7 9 2 4 3 2 2 3 4 3 4 3 6 4 3 4 5 3 8 1 3 4 2 6 5 4 3 1 5 4 2 3
11 8 6 4 2 2 4 6 10 10 7 8 4 3 5 5 2 2 4 2 3 3 4 4 4 4 4 3 4 3 3 3 3 5 9 2 3 7 4 3 2 5 4 4 1 4 3
14 11 9 6 4 1 1 3 7 11 5 3 3 4 3 4 3 3 2 2 3 3 6 5 5 4 4 4 4 3 2 3 1 1 2 3 4 3 5 8 2 2 3 5 3 5 3
15 13 11 9 6 3 1 1 4 8 9 7 4 4 5 5 3 2 2 4 7 4 6 4 3 4 4 3 3 4 2 3 3 2 3 1 2 3 7 6 8 4 7 4 3 2 6
15 13 12 10 8 6 4 2 1 4 7 6 2 3 5 8 4 6 4 2 3 6 5 5 2 4 5 4 5 2 6 4 2 2 5 4 3 6 5 5 3 9 15 11 4 2 5
17 16 14 12 10 8 6 4 3 2 4 5 4 2 2 2 6 8 4 1 4 2 3 4 5 5 3 2 4 3 3 5 8 2 0 3 5 4 7 7 5 15 17 16 9 14 5
18 16 15 13 11 9 7 5 5 5 5 7 4 3 4 5 4 6 6 3 2 4 3 3 5 3 7 3 3 2 1 0 5 3 2 3 4 4 10 6 8 17 14 12 13 13 9
18 16 15 13 11 10 8 7 6 6 6 5 8 7 3 3 3 4 2 2 2 6 4 8 6 4 4 1 4 5 7 8 14 6 4 2 3 2 5 4 4 10 8 6 5 7 7
19 17 16 14 12 11 9 7 6 6 6 8 9 7 4 2 2 2 2 4 4 4 4 3 3 5 4 2 5 9 15 17 14 17 13 5 3 2 3 1 4 9 6 7 6 7 6
19 18 18 16 14 12 10 8 7 7 7 7 8 6 4 1 2 2 1 2 3 2 1 1 2 1 2 3 4 6 5 7 5 5 2 8 5 1 1 3 6 10 10 2 2 8 5
20 19 17 16 16 14 11 9 8 7 7 8 7 8 5 8 5 4 1 1 2 1 4 3 4 6 3 6 4 2 2 4 5 5 6 6 5 3 2 3 6 8 5 7 5 6 9
22 20 19 18 16 15 13 11 10 9 9 9 8 8 7 5 6 5 3 4 4 4 3 2 4 5 3 3 3 4 4 2 3 4 3 3 2 3 2 6 8 9 12 1 4 7 10
26 23 21 20 19 17 15 12 11 10 10 10 10 8 9 5 7 5 7 7 6 5 4 4 3 1 4 3 3 4 4 5 1 4 5 5 3 5 2 3 8 5 4 3 9 16 30
29 27 25 22 20 18 17 15 13 11 10 10 10 10 9 7 5 8 11 14 15 12 7 6 4 5 8 3 2 2 3 2 4 5 2 3 7 5 8 7 5 7 22 25 24 33 29

GFSGBSN_850_spd_006.txt.gz
Wind_Speed
6 7 7 8 7 7 7 5 4 2 1 3 5 7 8 9 12 14 15 14 14 13 9 6 6 3 6 9 8 13 11 8 11 11 15 14 14 7 4 3 4 4 2 3 2 6 4
5 7 7 8 8 7 6 4 3 3 3 5 8 11 13 15 16 16 15 13 13 12 8 6 6 5 7 8 11 14 5 6 7 13 15 17 12 7 7 4 4 2 1 1 1 4 2
5 6 8 10 11 8 6 6 6 7 8 11 15 17 17 17 17 16 14 14 13 10 8 7 7 7 11 7 10 11 9 7 7 10 13 12 13 7 4 3 5 4 5 6 8 5 1
5 7 9 10 11 9 7 8 9 10 12 15 17 17 17 17 16 15 15 15 12 10 8 7 9 9 7 8 8 7 10 2 3 8 8 8 8 7 6 2 6 6 6 5 6 3 4
4 7 10 11 12 10 8 9 11 11 13 14 15 17 17 17 17 16 14 13 11 10 5 6 7 6 4 6 10 12 16 8 5 8 7 6 6 7 7 4 5 8 1 2 7 6 5
4 7 9 11 13 11 8 9 11 12 12 14 16 17 17 16 14 11 11 13 12 7 4 6 8 6 9 8 9 11 10 7 5 6 4 7 6 5 5 6 1 2 2 2 3 5 7
4 6 8 11 12 12 8 8 10 10 11 13 15 16 15 14 12 11 13 14 7 7 13 10 6 6 7 5 9 14 8 6 7 9 5 7 8 3 3 1 0 0 1 2 3 1 5
4 5 7 9 11 12 8 7 8 9 9 11 14 15 13 11 11 12 10 8 8 5 7 10 10 8 8 9 8 21 11 5 7 3 2 6 4 1 5 5 4 3 2 4 5 3 0
5 5 6 7 10 12 10 6 6 7 8 10 12 12 12 10 10 9 9 13 8 4 5 6 7 7 6 7 9 14 14 5 6 6 5 5 1 5 4 6 6 4 2 2 5 6 1
5 5 5 6 8 11 11 5 5 6 9 9 11 11 9 8 6 13 12 8 5 3 5 8 6 5 7 3 5 17 10 5 6 3 2 4 4 5 6 4 2 4 2 2 4 2 2
5 5 6 6 7 10 12 7 4 4 7 10 11 10 9 6 8 9 8 4 3 1 5 5 5 3 8 7 2 19 11 7 4 4 5 2 3 6 7 2 1 6 4 2 1 2 3
6 4 4 6 7 9 12 9 4 3 4 9 11 11 8 6 8 7 5 2 2 7 1 3 2 4 5 12 6 9 17 9 7 6 7 2 2 3 2 3 2 6 3 5 4 2 3
6 3 2 5 7 9 11 10 3 3 4 7 10 11 9 7 5 5 3 1 5 6 3 2 3 4 5 6 6 7 7 9 4 4 6 6 4 5 4 5 6 9 6 3 5 5 4
6 3 0 4 7 8 11 12 5 4 5 7 8 9 9 7 4 5 4 5 6 3 1 1 3 5 5 4 5 7 3 5 5 5 3 4 5 5 6 1 2 3 4 4 2 1 4
7 4 1 2 5 8 10 13 6 6 7 7 9 9 8 8 7 6 2 5 6 5 1 2 3 5 4 3 4 5 4 2 3 4 3 3 3 5 2 2 1 2 4 2 5 2 3
9 5 2 1 4 6 8 12 7 7 7 8 11 11 9 8 7 4 5 3 1 4 1 2 3 0 2 5 3 4 2 1 1 5 0 1 2 1 4 2 7 6 4 4 4 2 3
10 7 4 1 1 4 6 9 9 5 7 6 3 5 5 6 6 3 4 4 3 4 3 3 2 3 3 2 3 2 1 2 2 3 7 2 2 5 2 4 1 4 3 4 3 3 3
11 8 5 3 1 2 5 7 9 5 6 4 2 4 3 5 4 3 2 1 3 3 7 5 5 3 3 3 3 2 2 3 5 3 3 2 4 3 4 1 1 2 3 3 4 4 2
12 9 7 5 3 2 3 4 7 8 6 5 4 4 6 4 3 2 0 4 5 4 5 3 3 4 5 3 4 3 4 3 6 3 2 1 2 3 8 5 4 3 2 4 5 3 6
14 10 8 7 5 3 2 2 4 7 5 5 3 2 5 7 7 6 4 2 3 7 6 8 4 5 5 5 6 2 2 3 6 4 5 2 2 5 5 6 4 5 4 4 5 3 3
17 13 10 8 6 5 3 2 1 3 4 3 3 2 2 0 5 6 4 2 3 3 4 6 5 5 4 3 3 3 3 5 5 4 3 4 2 4 5 8 7 11 11 7 8 8 6
17 14 13 11 9 7 4 3 1 0 1 2 3 4 5 5 4 5 5 1 3 3 3 2 6 2 4 4 4 2 2 2 5 2 2 3 3 0 4 3 4 8 12 10 9 7 11
18 15 13 12 10 8 6 4 3 2 1 2 4 7 4 3 3 4 2 4 4 7 5 4 12 4 3 5 6 4 7 6 2 2 2 0 3 2 5 3 8 8 6 5 3 5 6
19 17 14 12 11 9 7 6 5 4 3 1 6 6 4 2 2 3 3 3 4 3 7 6 7 5 4 5 3 5 6 5 5 6 7 5 4 2 3 4 2 8 2 6 7 8 10
19 17 15 13 12 10 8 7 6 6 5 4 6 3 3 2 1 3 7 7 8 7 4 5 3 4 8 2 4 6 5 6 3 6 2 6 5 2 3 3 5 9 8 1 4 7 3
20 18 16 14 13 12 10 8 8 7 7 6 6 4 3 9 5 7 6 6 3 2 3 3 6 9 5 5 4 3 2 4 4 5 7 5 5 3 1 4 5 7 3 3 2 6 1
21 20 18 16 15 14 11 9 9 9 9 8 6 5 3 3 4 10 4 6 6 4 3 3 5 3 3 2 2 3 3 2 2 2 3 1 1 6 7 5 8 8 8 1 3 3 20
23 22 20 18 16 15 13 11 10 10 10 9 8 7 6 3 5 8 7 7 7 6 4 6 4 0 4 3 3 3 2 5 1 4 4 4 3 4 2 3 8 3 2 1 10 21 23
25 24 22 20 18 16 15 13 11 11 11 10 8 8 7 4 2 9 9 8 8 5 7 10 2 4 7 4 1 3 3 2 4 3 1 4 7 3 7 6 7 4 17 33 25 22 18

GFSGBSN_850_spd_009.txt.gz
Wind_Speed
4 5 6 7 8 9 9 7 5 5 5 5 6 8 9 10 12 15 17 18 17 14 10 7 6 5 9 12 9 10 7 6 10 11 15 14 12 7 4 3 5 5 3 4 3 6 4
4 6 6 7 8 7 6 4 2 1 2 4 6 9 11 14 17 19 18 17 16 13 10 8 6 8 10 12 10 10 4 4 7 11 13 11 8 12 8 3 4 4 5 4 4 1 1
4 5 7 8 8 6 5 4 3 3 5 8 10 13 16 18 19 19 18 18 17 13 11 8 7 13 13 6 8 7 5 3 7 8 11 10 11 5 5 3 5 5 5 3 11 3 3
4 5 8 8 9 7 6 6 7 8 11 13 15 16 18 18 18 19 20 19 15 13 9 9 9 9 6 8 7 9 4 3 5 5 9 10 10 15 7 6 7 5 5 3 4 7 5
4 6 7 9 10 7 7 8 10 12 13 14 15 17 17 17 17 19 19 17 14 10 6 7 7 7 4 5 8 10 7 8 7 10 11 9 13 11 7 4 3 8 3 3 4 5 5
4 5 7 9 10 7 8 9 11 12 13 16 19 20 19 17 17 17 17 15 11 5 3 9 8 7 7 6 12 7 7 8 7 6 7 9 8 5 4 4 2 1 1 1 3 5 6
5 4 6 8 10 8 8 9 11 11 12 15 18 17 16 14 14 15 15 14 8 11 15 10 9 11 8 8 16 11 8 9 10 10 5 9 8 4 2 0 3 3 2 2 3 2 5
4 4 5 7 10 10 8 8 10 11 11 14 15 16 13 13 14 13 13 9 8 9 10 13 12 10 12 11 8 18 10 5 7 4 2 6 4 0 4 4 2 2 3 2 3 1 1
5 4 4 7 9 10 7 8 8 10 11 13 14 14 12 12 11 12 12 11 9 7 6 9 10 10 6 13 12 15 10 5 7 5 5 5 0 3 2 4 4 1 2 2 3 6 2
5 5 4 6 8 10 8 7 7 9 11 12 12 12 10 9 9 13 12 9 7 3 5 8 6 6 7 3 7 15 9 4 6 3 3 5 4 3 3 3 1 2 2 4 3 1 1
6 5 5 6 7 10 9 6 7 8 11 11 11 10 7 4 8 8 9 6 4 0 5 4 5 5 12 9 1 19 10 15 4 2 3 0 2 4 5 2 1 2 1 1 1 3 2
6 5 6 6 6 9 10 6 6 6 9 11 11 10 7 7 8 10 7 4 1 6 1 2 3 4 6 13 7 10 8 11 5 5 6 2 2 3 2 2 1 4 2 3 2 2 2
6 4 5 6 6 8 11 8 6 5 7 11 11 10 8 7 8 7 5 2 5 5 3 1 3 4 5 5 6 8 6 9 4 3 5 5 3 5 5 4 3 8 3 1 2 3 1
7 4 4 5 6 8 11 10 7 6 7 9 11 11 10 9 6 6 4 5 6 3 2 1 3 3 4 3 4 6 3 5 6 5 3 3 1 4 6 2 2 4 3 2 1 2 4
8 5 3 4 5 8 11 11 8 9 9 10 11 10 10 8 6 6 2 5 6 5 2 4 3 4 2 3 4 4 4 2 4 4 3 2 2 3 4 3 2 1 5 1 5 1 2
9 6 3 4 4 7 10 11 7 10 8 10 10 10 9 9 8 6 5 3 1 4 2 2 3 1 2 3 3 3 2 2 2 6 1 1 2 2 3 1 8 4 4 1 3 2 3
11 7 4 2 3 5 8 11 7 8 9 8 6 5 5 9 8 3 4 3 3 2 2 3 3 3 3 3 3 2 1 3 4 2 7 1 1 2 1 4 1 2 2 5 3 1 2
12 9 5 2 2 3 6 9 9 7 8 6 3 3 4 10 4 3 3 5 4 2 5 4 5 4 3 3 4 3 3 1 4 1 2 1 2 1 2 1 1 1 3 3 2 2 1
13 9 6 3 2 1 3 6 10 7 8 5 4 5 4 7 3 1 1 3 5 2 5 3 3 3 3 3 4 3 3 2 6 3 1 2 2 2 2 2 2 1 2 4 4 2 7
15 11 8 5 3 1 1 4 7 8 6 6 4 2 3 4 6 7 5 2 4 6 5 7 4 4 4 4 5 3 2 2 3 3 4 2 2 4 4 3 2 4 4 5 4 4 4
16 13 9 6 5 3 1 1 4 6 5 4 2 2 2 1 3 6 4 3 4 3 4 4 4 3 5 3 2 2 1 2 2 2 2 3 3 3 4 8 5 10 12 11 12 12 7
17 14 11 9 6 4 3 1 1 3 3 3 3 5 6 4 4 5 4 1 4 3 3 2 6 2 3 4 4 4 3 2 3 1 2 2 2 1 3 5 4 8 14 12 13 13 13
18 15 12 10 8 6 4 3 2 1 2 2 5 8 4 3 2 4 2 4 5 8 6 4 14 5 4 5 6 3 5 3 2 3 2 0 3 1 3 5 8 7 4 4 3 5 4
18 16 14 11 9 8 6 4 3 1 2 3 6 6 4 1 2 3 4 3 5 3 7 7 6 5 4 6 5 1 2 5 2 4 1 4 3 1 2 4 1 3 2 5 7 13 8
18 17 15 12 11 9 7 5 4 3 2 4 7 4 4 2 2 3 9 8 11 8 5 6 3 5 10 4 3 5 4 5 3 8 4 4 4 2 2 3 6 11 6 2 4 7 3
17 17 15 14 12 11 9 8 5 4 3 4 5 5 4 11 5 8 6 8 4 3 3 4 6 10 5 5 3 2 2 3 3 2 5 4 3 1 2 3 5 4 1 4 4 6 4
17 18 16 14 13 12 11 9 8 6 6 5 5 6 4 5 8 10 4 6 6 6 3 3 5 4 4 2 2 3 3 1 2 2 2 1 1 4 6 5 8 6 4 1 2 3 10
18 18 18 16 14 13 12 11 9 8 7 7 6 6 5 5 11 8 7 7 7 6 4 8 5 1 4 3 3 3 3 3 2 2 3 3 3 4 2 4 7 2 3 1 7 23 17
19 19 19 18 15 14 13 12 11 10 9 8 7 7 7 4 5 7 7 6 6 5 8 15 3 5 8 4 2 3 3 2 3 3 0 4 5 2 7 6 6 8 17 15 13 7 10

GFSGBSN_850_spd_012.txt.gz
Wind_Speed
3 4 6 7 9 10 11 10 8 8 8 7 7 7 8 10 11 13 17 19 18 16 11 8 9 12 9 7 5 3 5 7 9 9 8 8 8 7 6 10 12 13 10 8 7 8 5
2 3 5 7 9 9 7 6 5 5 5 6 6 8 9 11 14 18 20 20 19 13 10 9 9 11 7 7 6 6 1 4 5 5 6 4 4 8 9 6 1 7 9 7 5 4 3
1 2 5 7 8 6 3 2 1 1 3 5 7 10 12 16 20 22 21 21 17 13 10 9 10 12 6 5 4 3 1 2 2 5 5 8 10 3 7 10 5 10 9 6 6 5 3
1 1 4 6 7 3 3 3 4 7 8 10 12 15 18 20 22 22 23 20 16 12 10 10 15 12 5 6 4 2 4 5 4 6 8 11 11 8 4 8 5 6 4 5 6 2 3
1 1 3 6 6 3 5 6 9 10 12 14 16 17 19 20 21 23 22 19 15 10 9 11 11 6 7 3 1 1 9 7 6 9 10 9 9 6 4 7 6 2 3 2 7 3 4
2 1 3 6 5 4 6 9 11 12 13 16 17 18 19 19 21 21 19 16 11 8 9 9 8 7 3 3 2 4 8 10 6 8 5 2 3 5 4 5 1 3 3 2 1 5 6
3 2 3 5 5 5 7 9 12 13 16 17 18 18 17 18 18 19 18 15 9 7 6 5 7 8 5 3 10 4 8 8 5 4 3 5 3 6 7 6 4 1 1 3 3 4 9
4 3 3 4 5 5 7 9 12 14 17 17 16 16 16 17 17 16 14 5 7 13 12 11 11 11 12 7 7 10 5 2 1 5 3 4 7 5 4 4 1 2 3 2 1 1 5
5 4 3 4 5 5 7 10 12 14 16 15 15 15 14 14 14 13 11 10 15 9 8 8 8 5 3 10 9 11 7 5 7 6 3 3 6 2 1 5 4 2 2 4 5 6 3
7 6 4 4 5 5 6 10 12 14 15 14 13 11 12 13 11 14 11 11 10 5 3 3 2 4 3 2 5 10 5 2 3 9 8 7 3 2 2 4 7 2 2 8 7 6 3
7 6 5 5 5 5 5 10 12 14 15 14 13 11 9 6 12 8 10 9 7 2 3 1 4 4 7 4 0 10 8 6 5 5 4 4 4 4 4 4 5 5 8 5 3 6 4
8 6 4 5 5 6 4 8 11 13 15 15 13 11 8 8 10 10 8 6 3 2 3 4 2 5 8 12 6 4 7 9 4 7 10 7 3 4 5 2 2 5 3 2 1 2 4
8 6 4 5 5 6 5 7 10 11 15 15 14 12 9 8 9 10 7 4 4 3 1 6 5 4 7 5 7 10 12 11 4 3 2 4 5 2 7 4 4 8 3 2 2 3 1
9 6 4 5 5 7 6 7 10 10 14 16 15 13 10 9 10 9 7 3 4 2 1 3 5 7 4 3 6 6 4 9 13 6 3 2 4 8 9 5 5 6 6 3 3 2 3
10 7 4 4 5 7 8 8 11 11 13 16 15 13 11 10 9 8 4 2 3 4 4 7 8 4 4 4 2 3 8 5 9 10 3 2 3 3 6 6 4 3 4 1 2 1 3
11 8 5 4 5 6 8 8 12 12 13 15 15 13 10 9 9 7 2 2 2 1 2 3 4 1 4 4 2 2 3 3 2 7 4 2 2 1 1 3 8 4 3 2 2 2 4
13 9 6 4 5 7 7 8 11 12 14 14 14 6 7 11 9 2 2 3 4 2 1 2 4 4 4 4 4 3 3 3 3 3 5 3 3 2 3 2 2 3 2 2 1 2 3
13 10 7 5 4 7 7 8 10 13 12 10 5 3 8 13 4 2 4 4 3 4 3 4 5 5 4 3 3 3 4 3 3 2 2 4 1 1 1 2 3 2 1 0 2 2 2
14 11 8 6 5 6 6 8 9 13 12 8 4 5 6 9 3 3 4 4 4 3 3 3 3 2 3 4 4 5 3 2 3 1 2 1 0 2 3 4 3 5 2 1 1 1 9
14 12 9 7 5 5 5 6 8 11 11 9 4 3 3 2 3 10 10 5 5 5 4 7 5 7 7 5 3 6 5 2 1 2 1 1 2 4 4 6 4 6 7 7 9 5 8
17 13 10 7 5 5 5 5 5 8 9 8 3 2 3 4 4 10 6 6 10 5 4 3 4 3 5 4 4 4 3 4 2 2 1 2 3 3 7 10 13 12 13 12 15 16 11
17 14 11 8 6 4 5 5 4 5 6 4 4 4 4 4 7 11 1 7 8 5 2 4 7 7 5 5 2 5 4 3 2 4 1 2 1 3 3 7 11 13 16 15 13 14 14
18 15 12 10 8 6 5 5 4 4 4 3 4 9 5 1 4 3 3 7 8 9 5 5 15 10 8 8 6 6 5 5 3 1 2 1 2 1 3 8 13 6 3 2 4 4 8
19 17 14 12 10 7 5 5 4 4 4 4 7 8 4 3 2 3 7 6 11 3 8 9 6 6 4 8 8 8 10 7 4 3 1 4 3 1 2 4 3 3 6 9 13 14 9
20 18 15 13 11 9 7 5 4 5 5 5 8 4 3 3 4 6 10 11 12 10 11 9 4 7 11 4 2 3 1 2 4 6 3 2 3 3 2 4 14 12 4 3 3 13 4
19 18 16 14 12 11 9 7 6 6 6 7 6 6 4 12 5 7 8 12 6 5 5 4 7 12 5 3 2 2 1 1 3 4 5 4 4 2 3 3 4 4 4 4 3 9 2
18 18 17 15 14 12 10 8 7 7 8 8 8 7 5 6 8 10 4 7 7 6 5 5 6 3 3 2 2 2 2 1 3 3 4 3 2 4 6 6 7 5 3 2 4 4 15
18 18 17 16 14 14 11 10 9 8 8 9 9 8 7 5 11 8 8 9 8 8 5 9 6 2 3 3 3 3 2 4 3 2 3 3 4 4 2 4 6 3 3 4 8 14 6
17 19 18 17 15 14 13 11 10 9 8 9 9 8 8 6 8 10 9 9 8 10 9 13 1 6 8 4 3 3 3 1 1 3 4 5 5 3 7 6 6 15 19 14 8 6 2

GFSGBSN_850_spd_015.txt.gz
Wind_Speed
7 7 9 11 12 14 15 16 14 13 11 10 10 9 10 11 12 12 14 17 18 16 11 9 11 11 7 6 5 2 5 8 6 2 6 6 4 2 2 6 5 10 9 9 8 5 2
6 6 7 10 12 13 13 12 11 10 9 8 8 9 9 10 12 14 18 19 18 14 10 9 12 12 7 5 0 1 4 4 3 3 3 4 1 2 5 9 1 8 9 9 7 6 4
5 6 6 9 11 10 10 9 8 7 6 6 7 9 11 13 16 19 20 20 16 12 10 10 12 12 7 5 1 2 4 2 4 3 1 1 2 7 9 6 5 9 8 9 8 9 5
6 5 5 7 9 8 6 5 4 3 3 5 8 10 13 17 21 22 22 19 15 11 9 10 14 12 1 3 2 2 3 2 2 2 3 4 5 2 4 7 8 11 9 11 9 9 5
6 4 4 6 8 5 3 1 1 4 6 9 11 14 18 22 23 23 21 17 13 10 9 12 10 5 3 2 3 3 2 3 2 2 3 5 4 5 6 12 10 9 11 3 9 4 2
6 4 3 5 6 3 1 2 3 6 9 11 14 17 19 21 22 22 18 15 10 9 10 7 4 6 3 2 3 2 3 4 5 7 6 6 8 10 11 11 9 7 4 9 2 7 6
7 4 2 4 4 1 2 4 6 8 11 13 15 16 17 20 21 19 17 12 8 5 6 5 11 3 8 3 4 4 5 5 8 10 10 6 11 4 10 7 8 5 4 5 5 5 6
7 5 2 2 3 0 4 6 8 10 13 14 15 16 17 19 19 18 16 5 2 10 12 8 8 7 3 4 8 7 4 9 10 10 5 9 5 5 2 2 3 4 5 1 1 2 6
8 5 2 1 2 2 6 8 10 12 13 12 12 14 15 15 15 14 6 3 18 9 8 7 4 5 3 5 4 4 2 4 6 5 5 9 9 2 4 1 7 3 7 6 10 8 10
9 6 3 2 1 2 6 9 11 14 13 12 12 14 16 15 12 10 5 9 11 4 4 6 5 3 2 3 5 6 3 2 2 3 6 5 4 0 2 2 8 8 4 8 10 8 6
10 6 4 3 1 2 6 10 12 15 14 13 11 11 13 12 8 8 8 10 7 5 3 4 5 2 3 2 5 5 5 3 4 7 5 5 3 0 1 5 6 6 8 8 8 9 9
11 7 5 3 2 2 5 11 13 15 15 14 11 9 9 6 8 9 9 8 4 4 3 6 4 7 9 8 6 5 5 6 3 4 7 8 3 4 6 4 4 7 8 6 6 4 5
11 8 5 4 2 1 4 10 14 16 16 15 13 10 8 10 7 10 8 6 4 4 3 7 8 5 8 8 8 6 5 5 0 5 5 7 4 4 6 9 6 8 7 4 3 4 1
13 9 6 4 2 0 3 10 13 16 18 16 14 11 9 8 10 10 8 6 6 3 6 4 9 10 5 7 4 4 5 8 9 6 3 4 7 5 6 5 6 5 7 3 4 3 5
14 10 7 5 4 2 3 10 12 15 18 18 15 12 7 9 10 10 10 6 3 7 8 11 12 9 7 5 3 5 9 7 7 9 4 3 4 5 5 5 6 3 4 3 1 1 3
15 12 9 6 5 3 3 10 12 14 17 18 11 10 7 10 10 8 6 2 2 2 2 13 7 4 6 7 6 4 2 3 3 8 5 3 2 1 3 4 4 7 3 3 1 3 4
15 12 9 7 6 5 5 9 13 14 18 19 11 11 8 10 10 9 5 3 5 6 2 3 3 4 6 5 3 3 3 5 2 4 5 6 3 5 3 2 8 2 1 3 4 3 4
15 13 10 8 7 5 6 7 13 15 17 16 8 5 10 14 9 6 5 6 4 8 4 3 2 4 6 4 3 3 5 5 3 4 3 6 2 2 4 4 3 3 4 4 2 3 3
17 13 10 8 7 6 6 7 14 16 18 9 6 6 10 14 4 3 5 6 3 7 3 4 3 1 4 5 4 6 5 4 4 4 6 6 1 3 5 6 4 4 1 2 1 2 10
17 14 11 9 7 7 6 7 12 16 15 8 6 3 6 8 5 9 9 9 7 3 4 4 7 7 8 6 4 7 7 4 2 4 4 3 1 3 5 8 6 8 9 9 10 7 11
19 16 12 9 7 7 6 6 9 13 13 8 2 2 4 6 6 9 9 10 10 5 3 7 4 4 7 4 6 5 7 7 3 2 1 3 2 4 9 11 11 12 13 14 15 15 14
19 15 12 10 8 6 6 5 7 9 11 5 5 4 3 3 8 10 5 10 12 5 8 7 7 8 6 6 2 6 5 3 2 4 1 2 1 3 4 7 11 15 17 18 16 11 13
19 16 13 10 8 7 6 5 6 6 8 3 4 8 7 3 9 8 7 9 9 10 2 4 11 8 9 9 10 10 8 5 4 2 3 1 0 2 4 10 13 6 3 3 7 8 8
20 17 14 11 9 8 7 6 6 6 6 4 7 6 5 4 7 8 8 9 12 6 8 10 8 8 6 10 11 10 10 6 2 2 1 4 1 2 3 5 3 6 11 14 10 9 10
22 19 16 13 11 9 8 6 6 6 6 6 10 5 4 3 7 7 11 15 11 13 15 12 6 8 11 3 2 2 1 3 1 4 3 2 3 2 2 5 14 12 4 6 9 13 11
22 21 18 15 12 10 8 7 7 7 7 8 8 6 3 13 5 12 13 16 11 7 7 5 7 7 4 3 2 2 3 1 5 6 5 4 2 3 3 3 4 3 2 4 7 11 5
22 21 19 16 14 12 10 8 8 8 8 8 7 7 4 6 6 10 8 11 7 11 5 8 7 4 3 2 1 3 3 2 4 3 4 3 2 5 6 5 8 8 2 4 5 3 12
19 21 19 17 15 13 11 10 9 9 9 8 8 7 6 5 7 5 6 9 7 10 5 11 6 2 3 2 3 3 1 4 3 2 5 7 6 4 4 4 6 3 6 3 7 20 10
19 19 19 17 15 13 12 11 10 10 10 8 3 6 6 6 6 10 10 12 10 8 6 14 1 7 9 3 3 2 2 0 0 3 5 4 7 4 8 5 12 9 16 12 8 7 4

GFSGBSN_850_spd_018.txt.gz
Wind_Speed
13 12 12 12 12 13 15 16 16 15 14 14 12 12 11 11 11 11 12 12 14 15 12 8 8 12 7 8 4 4 8 7 3 3 8 10 14 8 5 5 5 7 5 12 9 7 3
12 11 10 11 11 13 14 14 13 13 12 11 10 11 10 10 10 12 13 15 17 15 10 8 9 10 8 11 2 0 3 2 3 6 5 5 4 4 4 7 4 10 9 11 9 7 4
11 10 9 9 10 12 12 12 12 11 9 9 9 9 10 11 12 14 16 19 18 13 9 9 10 12 8 6 2 1 1 4 2 7 8 3 5 7 3 5 2 7 7 6 7 8 7
11 9 8 8 9 10 10 10 9 7 5 5 6 8 10 12 15 18 20 20 15 10 9 10 13 13 7 4 2 4 2 4 1 2 3 2 3 9 5 7 6 9 8 9 11 10 6
11 8 7 7 8 8 7 7 5 4 2 2 6 9 12 16 19 21 20 15 11 9 7 11 12 10 7 1 4 2 3 4 3 2 1 2 4 5 2 7 8 8 9 8 9 9 2
10 8 6 5 6 6 4 4 2 1 1 4 8 12 15 18 21 20 16 13 9 8 10 10 8 10 7 2 3 3 3 3 3 3 4 4 7 7 10 9 2 13 10 4 5 9 6
10 8 6 4 5 4 3 2 0 2 4 7 10 13 16 18 19 18 17 13 7 3 11 7 12 3 4 3 6 3 5 5 4 8 10 9 9 4 13 9 7 10 7 7 12 7 3
11 7 6 4 4 2 2 1 2 4 6 8 10 12 14 16 17 17 15 6 3 4 8 1 5 3 2 1 7 6 6 8 6 11 4 4 2 7 5 8 6 6 6 6 5 6 3
11 8 6 4 3 2 3 3 4 7 8 9 9 11 14 15 15 15 9 4 2 7 7 6 4 6 2 4 4 4 2 7 9 11 6 10 10 5 5 2 7 5 5 9 8 11 10
11 8 7 5 2 2 3 5 6 8 8 8 9 12 14 13 9 9 5 2 4 0 5 7 7 4 3 5 4 0 4 5 2 3 2 8 4 3 1 2 7 7 6 6 9 9 8
11 10 7 5 2 2 4 7 8 10 9 9 8 10 12 13 3 8 4 5 3 6 4 5 6 3 5 3 10 4 2 4 5 2 4 6 3 1 2 7 6 5 5 7 9 10 10
12 10 8 5 3 2 4 8 10 12 11 9 7 9 10 3 2 3 5 5 4 4 4 6 7 8 8 5 1 6 4 3 3 3 4 8 4 7 7 4 3 7 9 11 8 9 3
13 10 8 6 3 2 4 9 12 13 13 11 8 8 7 5 4 5 7 6 4 3 6 7 9 8 10 6 5 7 6 4 5 5 6 6 6 5 5 10 6 6 9 4 2 3 1
14 11 8 6 4 2 3 9 13 14 14 12 10 8 6 7 5 8 7 6 6 4 5 8 11 9 7 8 4 2 10 8 8 9 4 8 6 4 5 6 7 4 6 2 4 4 4
15 12 9 7 4 2 3 9 14 15 16 14 11 7 2 6 6 8 6 6 2 4 8 7 11 8 4 4 2 3 11 8 6 9 7 3 7 6 6 6 7 5 5 3 1 2 1
15 12 9 8 5 2 2 9 13 15 17 16 10 6 7 6 7 8 5 7 1 5 2 10 9 4 8 8 8 7 4 2 4 8 6 4 3 3 3 3 3 4 1 2 2 2 3
16 13 10 9 6 3 3 8 12 14 18 18 11 8 8 10 8 8 5 4 1 2 5 5 4 5 2 6 3 4 5 6 5 5 7 7 3 5 5 6 7 1 2 2 3 0 2
17 13 10 9 7 4 3 8 13 15 21 20 10 6 10 12 8 11 8 2 1 7 2 2 4 3 4 4 2 4 10 8 4 4 4 4 2 1 8 5 3 3 4 3 1 3 1
18 14 11 10 7 5 3 8 14 18 22 16 9 6 14 17 5 4 4 5 4 7 7 5 2 1 3 5 3 6 8 4 4 6 4 4 1 2 7 5 4 2 3 2 3 2 4
18 14 11 10 8 6 4 7 15 19 21 13 8 3 6 10 10 11 8 7 5 3 4 1 5 4 5 5 3 6 9 4 5 8 3 3 1 1 2 5 6 7 9 10 10 4 6
19 15 12 10 7 6 5 6 13 18 18 9 6 5 10 6 9 6 11 9 10 6 5 7 5 6 6 3 6 5 11 8 5 2 1 3 0 4 7 8 7 10 12 13 13 12 9
20 16 13 10 8 7 5 6 9 14 15 12 6 2 6 5 15 10 5 6 11 7 8 8 4 7 8 6 3 7 6 5 3 4 2 3 1 4 3 3 10 13 15 12 12 11 10
21 16 13 10 8 7 6 6 7 10 13 7 4 1 4 1 5 6 6 9 9 10 2 5 7 7 10 13 14 13 13 9 7 4 4 2 1 2 2 9 9 2 2 7 9 11 9
21 18 14 11 9 7 6 6 6 7 10 4 6 3 3 2 5 9 8 7 8 10 6 8 8 9 9 14 13 13 13 8 4 4 3 4 2 2 2 5 2 5 12 7 7 8 8
22 19 15 12 9 7 6 6 6 5 5 6 7 4 3 2 9 8 9 9 12 7 11 14 9 9 14 5 3 2 2 4 2 4 3 4 3 2 1 3 9 8 4 3 5 10 9
22 20 17 14 11 8 6 5 6 5 4 5 6 7 3 8 3 8 10 14 8 9 7 6 7 7 5 3 2 3 3 3 6 5 6 4 4 1 2 2 3 2 5 4 8 7 10
22 20 18 15 12 10 8 6 6 6 6 5 5 6 5 4 2 2 8 10 12 10 5 9 6 4 1 2 2 3 2 2 5 5 4 3 2 4 5 4 6 8 4 3 3 2 13
21 20 18 16 14 11 9 8 7 7 7 7 5 5 6 4 3 4 5 7 4 12 4 12 5 2 3 3 3 3 1 4 1 4 7 7 6 4 3 4 6 1 2 1 8 19 11
20 20 18 16 14 13 11 9 9 8 8 6 2 5 5 5 6 9 10 10 7 5 8 16 2 8 8 3 2 1 1 1 3 3 10 4 6 4 9 5 9 7 4 3 1 1 4

GFSGBSN_850_spd_021.txt.gz
Wind_Speed
15 15 14 13 14 14 16 17 17 17 16 15 14 13 12 12 11 11 12 12 12 13 12 9 10 7 4 5 8 5 4 3 4 6 9 9 17 17 8 9 4 9 8 14 7 11 12
15 14 13 12 13 14 15 16 15 15 14 13 12 12 11 10 10 10 11 11 13 14 11 8 9 5 4 6 2 1 1 5 8 6 14 19 9 8 2 9 4 12 15 12 7 5 5
14 13 12 11 11 13 14 14 13 13 12 10 10 10 9 9 10 11 12 15 16 12 9 7 7 6 8 13 6 2 1 6 5 7 13 4 5 12 7 6 5 15 6 6 7 12 4
14 12 11 10 10 12 12 12 10 10 8 8 7 7 8 10 11 13 15 17 14 10 8 7 7 8 7 5 5 4 3 2 4 6 8 5 4 8 7 10 3 3 4 5 6 12 9
14 12 10 9 9 10 10 8 7 6 4 4 4 7 9 11 14 17 18 15 11 8 6 7 6 5 8 5 8 1 7 6 3 2 4 2 1 4 3 3 2 2 5 6 6 17 6
14 13 9 9 7 9 8 6 5 3 1 1 4 8 11 14 18 18 17 13 8 6 6 6 5 3 12 3 8 6 4 4 2 3 3 3 4 1 5 4 3 4 5 6 7 4 3
14 13 10 7 7 7 5 3 2 1 2 3 7 11 15 18 19 18 16 12 6 2 13 12 11 10 8 4 6 10 5 3 4 6 4 12 5 4 4 3 4 5 4 9 5 6 2
15 13 10 6 7 5 3 2 1 3 4 6 9 12 14 15 17 17 17 6 1 1 7 18 11 9 2 4 6 9 11 4 4 6 7 3 4 4 1 2 3 5 7 6 4 4 3
17 13 10 7 6 4 3 2 3 5 6 8 10 11 13 15 15 16 14 5 6 5 5 4 5 7 3 4 4 8 3 9 8 6 5 6 3 2 4 7 9 9 6 5 3 6 3
17 13 10 8 5 4 4 4 5 7 7 8 9 11 13 12 9 8 11 3 8 4 4 3 3 3 1 6 4 4 5 5 3 3 11 7 4 4 5 8 7 5 6 5 6 5 2
17 14 11 8 6 4 5 6 7 8 8 8 9 11 12 12 2 7 6 7 3 6 4 7 4 8 6 1 12 3 5 4 4 4 7 2 5 7 9 4 4 2 2 3 3 4 3
18 14 12 9 7 5 6 8 9 10 9 9 9 11 12 4 2 5 6 2 2 5 2 3 6 5 5 4 2 7 3 2 2 7 9 5 10 4 4 4 2 5 4 6 4 2 2
19 14 12 10 7 5 6 10 11 11 11 9 10 11 8 5 2 3 2 3 4 4 6 5 4 7 7 2 5 6 5 3 3 3 2 3 4 3 3 4 1 3 6 4 4 4 3
19 15 12 10 8 5 6 11 13 13 12 11 10 8 5 5 2 5 3 4 1 5 4 5 6 4 7 3 4 3 6 4 8 6 2 5 2 5 6 5 2 4 4 4 1 1 4
19 15 13 10 8 5 6 11 15 15 14 12 10 6 5 4 4 5 2 2 4 4 5 6 4 5 4 3 2 4 8 3 5 7 4 4 3 4 6 4 3 5 5 1 5 2 3
19 15 13 11 7 5 5 10 15 16 16 14 10 6 5 5 5 4 4 4 1 5 5 5 5 5 7 8 4 4 4 4 3 5 4 5 4 2 3 2 4 5 2 5 4 2 2
19 16 12 11 7 5 5 9 15 16 18 16 12 5 8 6 5 3 2 5 3 7 12 5 3 2 2 7 6 5 4 5 7 2 10 4 4 3 2 4 4 4 2 4 2 4 4
19 16 13 11 7 5 4 9 14 16 20 20 11 1 10 12 4 4 3 3 2 3 4 3 3 5 3 5 5 5 4 4 8 9 3 3 4 3 3 2 2 0 3 4 4 3 1
19 16 13 10 8 5 4 9 15 18 25 21 6 5 10 15 3 2 6 3 1 5 4 1 5 6 5 4 5 9 5 6 9 5 2 3 2 3 4 4 4 1 4 4 5 3 5
19 16 13 11 8 5 4 8 15 21 27 20 3 2 4 10 8 4 4 3 2 6 3 5 5 3 3 4 4 4 4 2 6 4 2 3 2 5 5 3 1 2 5 4 6 3 3
20 16 14 11 9 6 5 7 15 21 25 12 4 4 10 3 6 5 5 8 6 2 1 3 1 3 4 3 4 5 5 4 2 1 1 3 3 4 4 5 4 3 5 7 5 5 4
20 17 13 11 9 7 6 7 12 18 19 12 4 4 14 11 20 4 5 6 8 8 6 4 3 6 7 4 2 6 8 5 4 5 4 4 1 2 1 6 7 4 7 8 8 2 3
21 17 14 11 9 8 7 7 9 14 16 9 4 4 1 3 5 4 3 0 1 9 3 5 5 11 14 7 21 17 19 16 10 5 3 3 4 3 2 4 5 4 4 5 4 3 3
21 18 15 12 10 8 7 7 8 11 13 5 3 2 4 2 1 4 6 6 8 7 6 14 16 9 12 18 18 15 19 19 14 10 7 4 3 3 2 4 2 5 2 5 6 4 6
22 18 15 13 10 8 8 7 7 9 10 7 6 5 3 1 2 3 3 4 19 26 13 20 15 15 17 6 4 5 5 7 5 6 5 4 4 3 3 1 6 5 3 4 4 3 6
22 19 16 14 11 9 8 7 7 7 8 7 9 8 5 8 4 7 3 21 6 4 4 5 12 10 4 5 4 4 4 5 3 2 11 7 6 4 2 4 6 6 5 7 2 3 6
23 20 17 14 12 10 8 8 8 8 7 7 9 8 5 4 5 6 3 7 11 8 4 6 3 3 4 3 2 2 3 2 5 7 3 3 1 5 3 3 7 8 6 5 5 6 3
22 20 17 15 12 10 9 8 8 7 7 8 8 8 7 4 4 4 4 9 13 15 5 10 5 1 4 3 3 3 2 4 2 7 7 7 7 4 3 3 7 11 5 8 6 6 9
22 20 18 15 13 11 9 8 8 7 7 7 9 8 6 4 4 4 7 8 10 11 12 20 4 6 8 4 1 3 1 0 1 3 4 2 7 6 8 6 10 9 9 8 8 7 8

GFSGBSN_850_spd_024.txt.gz
Wind_Speed
19 18 16 15 14 13 14 14 17 18 18 17 17 16 15 14 13 13 12 12 11 11 12 11 7 4 4 6 9 4 2 3 5 8 10 12 10 8 6 5 5 8 4 10 12 11 12
19 18 16 14 13 13 14 14 15 16 16 16 15 14 13 12 11 11 11 11 11 12 12 8 5 3 6 5 1 6 3 5 4 3 7 12 8 12 11 7 9 10 13 9 9 7 6
19 17 15 13 12 13 14 13 14 14 13 14 13 13 11 11 10 10 11 12 12 12 10 6 4 6 9 15 4 1 7 9 4 6 7 9 2 4 1 6 17 17 6 5 1 4 3
18 17 15 13 12 12 14 12 12 11 10 11 10 10 9 9 10 11 12 13 14 12 7 4 5 5 9 5 8 6 4 3 1 4 3 5 3 8 7 5 6 5 5 3 3 5 2
19 18 15 13 11 12 12 10 8 7 8 8 7 8 9 10 11 13 14 15 13 8 5 3 3 4 9 8 7 2 2 4 4 2 4 3 3 5 6 4 5 5 3 4 2 11 3
20 18 15 12 11 11 10 8 6 5 5 5 6 8 10 12 15 17 16 12 8 6 4 4 3 3 11 6 6 4 5 4 4 4 5 4 5 4 4 4 3 5 5 3 7 5 2
22 19 16 13 12 10 9 6 4 3 3 4 7 9 13 15 18 17 17 12 6 2 9 8 7 4 6 7 8 9 7 4 1 3 1 6 5 3 6 5 4 5 5 7 2 1 4
23 20 17 14 12 10 7 6 4 3 5 6 9 12 14 17 18 18 16 6 6 5 4 19 8 15 11 4 3 10 7 3 2 2 3 6 3 5 5 6 7 5 8 4 5 7 4
25 20 18 14 13 9 7 7 6 7 7 9 11 14 16 18 16 16 14 6 5 5 3 3 11 12 4 1 5 9 9 2 3 1 2 6 4 2 6 6 7 5 5 3 2 3 3
25 22 18 16 13 8 9 9 9 10 10 11 12 15 15 14 11 10 9 5 5 5 4 3 2 3 3 6 3 4 2 1 3 1 8 4 5 7 6 5 1 2 3 3 2 4 2
26 22 19 17 13 10 11 11 12 12 11 11 13 15 15 14 4 6 1 4 5 3 3 3 2 7 3 1 7 3 4 1 1 2 7 2 5 7 6 0 1 3 2 1 1 3 4
27 23 20 18 13 11 12 13 14 14 13 12 14 15 14 7 5 5 4 4 3 6 2 4 6 5 3 1 3 5 2 2 3 6 6 4 4 3 2 3 0 1 2 7 4 3 3
27 25 21 18 14 12 13 16 16 16 14 13 15 15 11 7 5 4 3 3 5 4 2 5 5 5 4 3 3 3 4 6 4 4 3 5 3 4 4 4 6 7 5 3 4 4 3
28 25 21 19 15 13 15 17 18 18 16 14 17 15 10 6 3 4 2 4 2 4 4 3 5 6 5 3 3 3 3 3 6 4 3 4 3 4 6 2 1 3 5 5 4 2 3
29 25 22 19 15 14 15 19 20 19 18 16 15 12 8 6 3 3 3 3 5 3 2 7 5 5 2 2 5 6 3 3 1 2 5 4 1 1 1 1 2 3 4 4 6 3 3
28 25 22 19 15 14 15 19 22 21 20 17 14 10 8 6 5 3 4 5 3 4 3 4 5 5 5 6 4 4 2 2 0 5 3 3 4 2 2 5 7 5 2 4 4 2 1
29 25 21 18 15 14 15 19 23 23 21 18 14 8 9 8 4 2 3 5 2 6 7 4 1 5 5 7 6 3 2 3 5 3 6 2 4 4 4 2 1 4 3 5 4 3 4
29 25 21 18 15 13 14 18 23 24 23 21 13 3 12 11 3 0 2 4 2 4 5 4 3 3 5 4 4 3 3 2 7 2 3 2 5 3 1 3 2 2 3 4 4 2 2
29 25 21 17 15 13 13 18 23 25 27 23 13 5 10 14 3 2 5 3 2 2 2 2 3 4 4 4 6 3 3 4 10 4 2 2 2 3 6 6 5 3 1 5 6 3 5
28 24 20 18 15 13 13 18 23 26 28 20 8 3 4 7 3 6 2 2 2 5 2 4 3 6 5 5 6 5 2 4 6 4 3 2 3 5 6 4 3 3 2 4 5 3 3
27 23 20 18 15 13 13 17 22 27 30 18 4 4 9 4 4 3 3 5 3 2 2 4 4 3 4 3 3 4 3 2 4 2 3 3 3 1 2 4 2 1 2 2 4 5 5
26 23 20 18 16 14 12 15 19 25 28 17 4 3 8 8 13 6 5 6 8 3 3 0 2 4 5 4 5 7 6 3 4 2 2 4 1 2 1 5 6 3 5 5 4 3 4
25 22 20 18 16 14 12 14 17 22 25 11 6 3 7 1 6 4 4 6 8 9 2 4 12 7 9 5 16 17 11 11 9 6 2 3 4 3 3 4 5 5 6 3 1 3 4
24 21 20 18 16 14 13 13 16 21 22 9 4 3 4 1 3 6 3 3 6 3 7 7 11 7 11 21 19 21 24 21 19 13 5 4 4 3 2 3 1 5 5 5 6 3 8
24 21 19 17 16 15 14 13 14 18 19 14 9 3 3 1 1 2 3 12 19 20 8 10 6 10 20 6 5 5 5 6 4 6 7 4 5 3 3 3 5 2 4 5 6 5 5
24 21 18 16 15 14 14 13 13 15 15 11 9 7 4 8 2 2 7 17 6 4 5 5 17 10 6 6 4 4 4 4 2 1 8 6 6 4 3 4 6 5 3 10 8 4 11
24 21 18 15 15 14 13 13 12 12 12 11 10 9 6 5 4 2 4 7 11 7 4 3 4 4 4 2 3 3 4 4 5 6 4 2 3 4 2 2 7 7 5 8 5 7 16
23 21 18 15 14 14 13 12 11 11 11 12 12 10 8 5 6 4 7 10 11 11 5 9 5 2 4 4 3 4 3 5 2 5 6 7 7 4 3 2 8 14 6 7 6 13 15
23 21 18 15 13 13 12 12 11 11 11 13 14 11 7 5 6 10 11 10 10 10 13 17 5 5 8 4 2 3 1 1 2 3 3 2 7 5 9 6 6 16 9 18 11 13 16

GFSGBSN_850_spd_027.txt.gz
Wind_Speed
23 24 23 21 20 17 17 17 17 17 19 19 19 20 18 17 14 13 12 12 12 12 10 8 6 4 5 6 9 4 2 3 4 8 11 14 14 7 3 4 3 5 5 6 10 10 10
23 23 23 21 19 17 17 16 17 18 19 19 18 18 16 14 12 11 11 11 11 10 8 7 5 6 6 5 1 5 6 8 9 8 7 12 11 11 6 8 4 8 5 8 8 10 6
24 24 22 19 18 17 16 16 16 17 18 17 17 16 13 12 10 10 10 10 10 9 8 7 6 7 8 13 3 5 5 5 6 2 3 2 6 18 8 5 10 14 6 5 2 2 3
26 25 22 20 19 17 15 15 15 15 16 16 15 12 11 10 9 9 9 10 10 9 8 6 5 4 9 6 10 3 3 3 2 2 2 2 2 3 3 14 6 4 5 3 3 4 1
28 26 23 21 19 17 15 14 14 14 14 14 12 10 9 10 10 10 10 10 10 8 6 4 4 3 9 5 7 2 1 1 6 2 3 3 3 5 5 6 4 7 2 2 3 4 2
30 26 23 22 19 17 14 13 13 12 13 12 10 8 9 11 11 12 12 12 8 6 5 4 2 2 9 2 4 4 2 0 2 2 5 5 4 4 3 5 3 4 1 2 5 5 4
31 27 24 23 20 18 14 13 12 11 11 10 7 9 10 12 14 16 16 12 5 3 9 7 3 5 2 6 6 8 4 1 3 6 4 5 6 0 3 1 3 2 2 3 3 1 5
32 28 26 24 21 17 14 13 11 11 9 8 7 10 12 15 18 18 16 6 4 2 5 17 12 10 15 8 4 7 5 3 3 2 3 7 2 0 7 5 5 5 6 3 1 5 6
33 30 28 25 21 17 16 13 12 10 10 9 10 13 17 19 19 19 14 6 3 3 1 4 16 13 8 5 3 7 4 3 3 2 2 4 3 5 6 6 8 4 4 3 3 4 6
34 31 29 26 22 18 16 15 13 12 12 12 14 17 18 18 17 14 10 2 3 6 4 4 3 4 5 7 3 5 5 2 3 4 7 5 5 5 6 6 4 2 1 3 3 4 3
35 32 31 28 23 19 17 17 14 15 14 14 16 18 19 16 9 11 5 1 3 2 4 3 3 6 5 3 6 2 3 1 2 5 6 2 3 5 6 1 3 3 2 3 3 3 3
37 34 32 28 23 21 19 19 17 17 16 16 19 20 20 10 11 10 3 1 3 6 2 3 4 3 4 2 2 4 4 4 6 5 6 3 2 3 2 2 1 1 4 6 4 3 3
38 36 33 28 24 22 21 20 20 19 18 19 20 21 18 11 10 7 1 4 5 4 1 4 3 3 3 2 3 3 4 5 3 5 3 5 4 5 2 2 3 5 5 2 3 3 4
40 37 33 29 25 23 22 21 23 21 20 20 21 21 15 11 9 5 3 5 2 3 4 2 5 3 5 3 4 3 3 3 5 4 3 4 4 3 5 2 3 3 4 4 5 3 3
41 38 33 29 25 23 23 22 24 24 21 22 23 19 13 10 7 5 4 3 5 6 3 6 5 4 2 2 5 5 3 2 0 2 5 4 1 2 0 1 3 1 3 3 6 3 3
43 38 33 28 26 23 23 24 26 26 24 24 22 17 13 10 7 7 5 4 4 4 2 5 5 5 5 5 4 4 1 2 1 4 3 5 3 1 3 2 4 4 4 3 4 2 1
43 38 33 29 26 23 24 24 28 28 27 24 20 10 14 11 9 6 3 6 4 4 2 4 5 4 5 6 4 3 1 3 3 2 6 3 4 4 2 3 1 4 2 6 5 3 4
43 37 32 29 26 23 22 25 30 30 29 25 17 3 16 15 5 2 3 4 3 2 6 4 4 3 5 4 4 3 4 1 4 0 2 2 5 3 1 5 3 1 3 4 4 2 1
42 36 32 28 26 23 21 25 31 32 31 26 13 5 13 15 4 1 4 4 1 2 3 2 2 2 2 5 6 2 3 1 2 3 4 2 2 3 6 6 5 1 2 5 6 3 4
40 35 31 29 25 22 21 26 32 33 32 24 10 3 3 6 4 7 3 3 1 4 3 3 3 5 5 5 6 5 3 2 2 4 4 3 3 5 6 4 3 3 3 4 5 3 3
38 34 31 28 24 21 22 28 33 35 34 21 7 4 9 4 2 4 5 2 3 2 2 3 4 2 4 4 3 4 2 2 4 2 3 4 3 2 3 4 2 1 4 6 6 5 6
37 33 30 26 23 20 22 28 33 35 34 19 7 5 6 7 17 6 3 5 6 2 3 0 5 3 2 6 6 7 6 3 3 3 3 4 1 1 1 5 6 3 5 6 5 4 7
35 32 29 26 22 19 21 27 31 34 34 14 7 5 7 1 5 6 5 6 8 6 5 3 9 5 4 2 6 11 6 9 8 5 3 3 4 3 3 4 4 6 9 9 5 4 7
34 31 28 25 21 19 20 25 28 32 36 17 7 7 5 1 3 6 7 3 6 4 7 4 8 6 12 29 26 22 25 23 20 13 4 5 4 2 2 3 2 6 3 4 5 3 3
32 30 27 24 21 20 21 24 26 31 32 16 11 6 5 2 2 3 9 7 15 15 5 4 2 8 24 6 5 5 5 6 5 7 6 3 5 3 3 3 5 4 4 6 7 7 7
30 28 26 23 22 21 21 24 26 27 27 18 10 6 4 14 2 8 7 11 6 4 4 4 15 26 5 5 4 4 4 4 2 1 6 5 6 4 3 4 6 5 3 7 5 5 15
29 28 25 22 21 21 20 22 25 27 25 17 10 8 5 8 4 10 4 9 10 7 4 4 5 3 3 2 3 3 3 3 4 5 3 2 3 5 2 3 8 7 5 7 5 7 20
29 26 23 21 20 20 19 20 21 22 22 16 13 10 7 7 7 5 9 10 10 10 5 10 5 1 4 4 3 3 3 5 2 4 6 7 7 4 3 1 8 11 4 8 6 7 21
27 24 22 20 19 18 18 18 18 18 18 16 15 11 8 6 9 12 10 8 9 10 13 17 5 6 8 4 1 3 2 2 2 3 2 2 7 5 9 6 4 18 7 19 9 12 20

GFSGBSN_850_spd_030.txt.gz
Wind_Speed
30 29 28 27 26 23 22 21 20 20 20 21 21 20 20 20 18 17 16 15 13 10 8 6 6 5 5 5 7 3 4 3 7 12 13 12 13 8 4 5 5 3 3 4 11 15 20
31 30 28 27 26 24 22 21 20 19 20 20 20 18 19 18 16 16 14 12 10 7 6 6 7 5 5 4 4 3 10 6 8 8 12 17 8 12 5 4 4 7 5 4 7 11 10
32 30 28 27 26 24 23 21 21 19 20 19 18 17 18 16 15 14 11 10 8 5 6 7 6 6 9 10 3 11 10 7 7 8 11 11 17 10 4 3 3 6 4 5 5 3 4
33 32 30 28 27 24 23 21 20 20 19 18 17 16 16 15 14 11 8 7 5 6 8 6 5 5 9 3 9 9 4 5 5 4 7 7 8 9 5 10 6 5 5 4 3 2 2
36 33 32 29 27 24 23 21 20 19 18 17 16 14 13 14 12 9 7 6 7 8 6 4 4 4 7 2 6 3 4 3 3 3 2 4 8 5 5 5 5 7 3 1 1 2 3
39 35 33 30 27 25 24 21 20 18 17 16 15 12 11 12 9 9 10 11 9 7 6 4 4 2 6 1 3 5 3 3 2 5 3 4 3 4 5 5 4 5 4 1 3 2 2
41 37 35 31 28 27 24 22 19 17 15 14 13 10 11 10 10 13 15 13 6 3 10 8 4 4 3 8 5 5 2 2 2 5 2 5 7 3 5 5 4 4 3 3 2 2 7
42 40 36 32 30 28 25 22 19 17 14 13 12 11 11 11 14 17 18 6 4 1 5 15 15 12 13 9 2 5 3 1 3 3 1 6 4 3 4 4 6 6 5 2 2 6 6
44 42 37 33 32 30 25 22 19 16 14 14 11 12 13 16 20 20 16 5 2 3 3 4 13 9 2 4 3 5 5 3 3 3 4 6 1 4 4 5 8 4 4 1 2 3 7
46 44 40 35 34 30 26 23 19 16 15 14 12 15 18 20 18 19 12 1 1 1 4 4 4 2 4 4 2 6 5 2 4 4 5 5 3 5 6 5 3 3 0 2 4 3 3
50 46 41 37 35 31 27 24 20 18 17 16 15 18 20 22 10 16 5 3 2 1 3 3 3 3 3 4 7 2 3 2 4 4 4 1 2 5 7 1 2 1 5 4 3 5 4
54 47 41 38 36 33 28 25 21 20 20 18 18 21 22 15 14 13 6 3 4 6 3 2 5 3 3 3 2 3 2 7 6 5 6 3 3 3 2 2 3 4 5 8 5 3 2
44 47 42 39 37 33 29 26 23 22 22 20 22 24 24 13 14 11 5 6 5 4 1 3 4 3 3 2 4 4 5 5 4 5 4 6 4 5 3 3 3 6 5 3 3 3 4
27 48 43 40 37 34 29 27 24 24 24 22 23 25 22 14 15 10 8 4 2 3 5 1 4 3 4 3 4 4 3 3 5 4 3 4 4 3 5 2 4 3 5 5 5 3 3
29 51 44 41 38 33 30 27 26 26 25 24 24 25 19 15 14 10 5 4 6 6 3 6 4 5 1 2 5 5 3 2 1 1 5 4 0 2 2 2 3 2 3 3 6 2 3
36 52 46 43 38 33 30 27 26 28 27 26 27 23 18 16 14 11 5 5 3 4 1 4 4 3 4 3 4 4 1 2 2 3 2 5 4 2 2 3 6 2 5 3 3 2 3
44 49 46 43 38 33 29 28 27 31 28 27 27 11 17 17 14 7 4 5 4 6 4 4 5 4 4 5 3 2 3 1 1 2 4 3 4 4 1 3 3 2 2 6 4 3 4
47 49 47 42 38 34 30 29 29 33 31 29 18 4 18 19 5 1 4 5 3 2 3 3 4 3 5 3 4 3 4 1 2 1 3 1 5 2 2 2 2 2 3 5 4 3 1
47 47 45 41 38 34 31 30 33 35 35 27 13 7 15 17 4 1 2 2 3 2 3 2 3 2 3 4 5 2 3 1 1 2 6 5 1 3 6 5 4 2 3 4 5 3 5
46 46 43 40 37 34 31 31 35 37 36 19 13 3 4 5 4 8 5 3 2 1 3 4 4 4 4 4 6 5 3 1 1 3 5 4 3 5 7 4 2 4 4 4 5 3 4
47 45 42 39 36 33 31 33 37 39 36 17 7 3 7 3 2 4 4 4 4 2 3 4 4 3 5 4 3 3 2 2 3 3 3 3 4 2 1 3 1 2 5 6 7 5 6
46 44 40 37 34 31 31 34 39 40 35 14 8 6 6 4 18 6 3 5 6 3 3 2 5 1 2 5 6 8 6 4 4 3 3 3 2 1 2 4 5 3 5 6 5 3 7
44 40 37 34 31 30 31 35 40 40 36 12 7 10 11 0 3 6 6 6 7 7 3 2 6 5 4 1 5 11 8 11 7 5 3 3 5 3 4 4 5 6 9 11 6 5 7
40 37 34 31 29 28 30 34 40 40 36 18 11 12 6 2 3 6 7 3 5 4 7 3 6 5 10 28 27 22 25 22 19 13 5 5 4 3 2 3 2 6 2 4 9 5 8
37 35 32 29 27 26 28 33 38 39 35 21 11 8 5 2 3 3 7 6 13 9 5 4 3 8 24 6 5 5 5 6 5 7 7 4 5 3 4 3 6 5 5 7 8 7 8
34 32 30 27 25 25 27 32 35 37 36 21 11 8 4 13 5 7 6 7 5 4 3 4 9 28 2 5 4 4 4 4 2 1 5 5 6 4 3 3 6 6 3 4 4 5 9
33 31 29 26 24 24 27 29 31 36 36 22 9 9 4 7 6 11 4 8 9 6 4 6 9 3 2 3 3 3 3 2 3 5 3 3 3 5 2 3 8 7 3 4 5 7 9
31 29 27 25 23 24 26 27 31 33 31 22 8 9 5 7 8 7 8 10 10 9 5 11 6 1 4 4 3 3 3 5 2 4 6 7 6 4 3 2 7 8 4 7 6 5 15
29 27 26 24 22 23 23 25 29 31 26 24 12 11 11 8 10 12 11 9 8 9 13 19 6 6 8 4 1 3 2 2 2 3 1 2 6 5 9 6 5 15 7 13 4 6 15

GFSGBSN_850_spd_033.txt.gz
Wind_Speed
30 29 28 28 26 24 24 23 22 20 20 20 20 20 19 21 20 19 17 16 13 12 8 7 6 6 5 6 9 2 8 1 9 14 15 13 14 8 4 5 6 3 1 2 7 12 8
33 31 30 29 26 25 24 23 22 20 20 20 20 19 19 20 19 17 15 14 11 8 7 6 6 6 6 4 4 1 8 7 6 11 16 15 7 11 3 1 3 2 5 7 8 13 16
35 34 31 29 28 26 24 24 23 21 20 20 20 19 18 18 17 14 13 11 9 6 6 6 7 6 10 11 3 5 9 9 5 8 11 13 17 6 2 1 5 7 5 5 5 5 4
41 36 32 31 29 27 25 24 23 21 20 19 19 18 17 16 15 11 10 9 7 6 6 7 5 6 8 4 7 7 7 5 3 5 7 7 5 12 6 2 4 4 4 4 2 4 4
35 40 35 32 31 28 26 25 23 22 20 19 18 17 16 14 12 8 8 8 7 7 7 6 5 6 6 5 6 3 3 3 5 1 3 6 9 5 5 3 3 6 3 3 4 4 4
33 38 37 35 32 30 28 26 24 23 20 18 16 15 15 12 9 7 9 8 7 7 6 5 6 3 5 2 4 3 2 2 1 4 5 5 5 3 2 2 4 4 4 2 3 2 9
31 33 41 37 35 32 28 27 25 23 20 17 16 14 14 10 9 10 12 11 5 3 13 8 4 2 3 4 7 5 1 1 0 2 2 1 3 3 3 3 3 4 3 3 2 2 6
42 35 38 38 37 33 30 29 26 24 20 17 15 13 12 11 12 14 18 10 6 1 5 17 14 12 11 7 3 6 3 2 3 1 1 4 3 1 4 3 5 4 7 3 3 3 4
43 35 36 41 38 35 32 30 28 24 20 17 15 14 13 14 16 18 21 8 5 6 2 5 13 9 3 8 4 4 5 5 3 2 2 4 2 4 3 4 7 4 5 2 3 4 6
42 46 34 42 40 37 33 31 29 25 21 17 15 15 15 17 16 19 19 6 4 4 2 2 4 4 7 5 0 5 6 3 3 4 4 4 3 3 4 3 2 4 1 4 4 2 2
43 39 34 43 42 38 34 33 30 26 22 18 17 17 18 20 9 22 7 8 4 3 3 3 4 6 7 6 7 2 5 4 5 4 3 1 2 4 4 1 2 3 3 4 3 4 2
40 39 42 36 44 39 35 34 31 27 23 20 20 20 22 26 15 20 9 6 5 4 3 3 6 5 4 2 2 2 3 6 6 4 6 2 2 3 2 3 4 8 4 5 3 2 1
39 37 43 37 45 39 37 35 32 28 24 23 22 23 27 27 13 16 11 8 3 3 2 2 3 4 3 2 3 3 4 4 2 4 3 4 3 2 3 4 3 4 4 2 1 1 3
36 35 45 36 44 40 38 36 32 29 25 25 24 26 29 25 15 16 10 2 3 2 4 1 3 4 5 4 2 3 3 2 4 5 3 3 0 2 3 1 4 2 3 4 4 3 1
36 34 47 29 44 42 39 37 33 29 26 27 25 28 29 24 16 13 8 3 6 6 4 7 3 5 2 2 4 3 2 2 1 1 4 3 1 2 3 1 1 3 2 2 6 1 1
35 33 50 32 35 42 40 37 33 29 27 29 28 26 29 22 17 15 3 5 4 4 2 2 4 3 4 3 3 3 1 1 2 1 1 5 3 1 0 2 6 1 7 3 2 3 3
34 32 56 42 27 44 41 38 33 29 30 28 26 13 18 21 19 9 4 5 5 7 6 5 5 4 3 5 3 2 3 1 1 2 4 3 3 2 1 1 5 2 2 5 4 1 2
34 36 47 40 37 46 43 39 35 32 31 31 21 3 22 23 5 1 4 6 4 3 4 4 4 4 5 3 3 3 6 2 2 2 5 1 4 3 2 0 1 1 3 4 3 4 1
34 35 43 22 43 44 43 39 37 36 37 35 16 7 22 23 4 1 2 3 3 1 2 3 3 3 2 4 4 2 3 1 4 3 6 5 1 3 2 2 1 3 3 4 5 2 5
32 43 36 30 43 45 43 39 37 39 39 32 15 3 6 9 5 8 5 3 2 2 1 5 5 4 4 3 4 5 3 1 2 3 5 4 3 4 6 3 1 4 4 5 4 3 4
33 48 29 37 45 44 41 38 39 42 42 27 8 3 8 4 2 5 4 5 5 3 2 3 4 3 5 4 2 3 2 2 3 5 3 2 4 2 1 1 2 2 4 8 8 4 6
35 35 24 43 44 42 39 38 41 44 44 25 9 6 5 4 17 6 1 6 7 3 1 1 6 3 2 6 6 8 7 4 4 2 2 2 3 2 3 1 3 3 5 7 8 3 10
31 28 37 42 42 40 38 38 42 45 45 17 9 11 13 1 3 5 5 6 7 7 4 5 7 5 4 1 4 8 7 11 7 5 3 2 5 3 3 3 3 5 9 12 6 6 8
29 35 39 39 39 37 36 38 42 45 44 20 13 14 7 2 3 5 8 4 6 2 7 3 6 4 7 27 28 23 26 22 17 12 4 5 4 2 1 2 1 4 2 3 12 10 13
38 39 38 38 35 34 34 37 42 44 43 18 15 9 7 3 3 3 6 6 13 10 5 4 3 8 27 6 4 4 4 5 5 7 6 3 4 3 3 2 6 5 3 6 6 6 12
37 36 36 33 31 31 32 36 42 44 41 20 14 11 5 13 6 8 6 8 5 4 3 4 8 26 4 4 3 4 3 4 1 1 3 5 5 3 3 3 5 5 2 3 4 4 2
35 33 30 28 28 28 31 37 42 42 38 21 12 11 5 7 9 13 5 8 9 6 4 6 10 4 1 2 3 3 3 1 3 5 2 2 3 3 2 3 7 6 3 3 2 5 2
32 29 26 25 24 27 31 36 40 42 37 26 13 12 7 7 11 7 9 12 10 10 5 11 6 1 3 3 3 3 3 4 2 3 5 5 6 3 3 1 6 6 4 4 3 4 6
28 26 23 21 22 26 30 34 37 40 39 24 11 11 10 7 9 13 11 11 8 11 14 21 5 6 8 4 1 3 2 1 2 3 1 3 4 4 8 4 4 11 8 9 9 6 6

GFSGBSN_850_spd_036.txt.gz
Wind_Speed
32 31 28 26 24 23 22 22 20 20 19 18 19 19 19 20 19 19 18 17 14 13 9 8 7 7 7 7 10 3 7 4 13 14 13 12 13 11 11 11 9 14 5 5 7 12 15
33 33 31 28 26 24 22 23 21 20 20 18 19 18 18 18 19 18 17 15 12 10 7 7 7 7 5 9 7 5 3 4 8 16 14 13 6 10 3 6 12 5 3 6 4 13 12
38 34 34 31 28 27 24 23 21 21 20 19 18 18 17 17 17 17 15 13 10 8 6 7 7 6 9 15 4 6 8 8 6 11 12 13 12 7 3 4 3 9 11 10 7 12 5
43 34 37 35 30 28 26 24 22 21 21 20 17 17 17 16 15 15 13 10 8 7 7 7 6 6 8 4 8 9 9 5 4 9 11 5 11 10 6 1 4 4 9 8 6 8 5
44 38 36 40 34 30 28 25 23 22 21 20 17 16 15 15 14 13 11 8 7 6 8 6 5 4 8 6 8 5 3 3 1 6 8 3 9 6 5 9 8 7 8 9 9 2 7
34 45 34 40 37 32 29 27 24 22 22 20 17 15 14 14 13 11 10 5 4 6 8 5 6 4 7 4 5 4 2 2 2 9 6 4 5 5 6 10 10 8 6 11 12 7 13
35 39 44 32 39 33 31 28 26 24 22 20 16 15 13 13 11 11 9 5 3 5 12 9 2 5 4 5 7 4 3 6 4 7 4 7 6 9 14 3 4 3 4 10 8 5 7
38 36 44 38 38 37 32 29 28 25 23 20 17 15 13 13 11 12 13 8 6 1 6 20 14 13 15 9 4 7 4 4 3 6 3 6 6 4 5 4 4 5 8 6 5 4 5
38 37 37 41 39 40 35 31 28 26 24 21 17 15 14 13 12 16 18 22 5 4 5 6 12 10 5 7 6 8 4 4 10 9 2 5 5 5 6 7 7 4 3 7 5 7 2
41 37 39 38 43 40 36 33 29 28 25 22 18 16 16 13 12 16 20 17 5 3 4 7 7 6 7 6 5 4 5 3 1 2 3 3 3 4 7 6 5 6 3 6 10 10 7
45 39 38 41 42 42 39 35 30 28 26 23 20 18 17 15 9 17 10 14 6 5 5 11 7 6 7 8 5 4 6 4 6 8 5 4 6 7 5 3 2 4 4 4 4 6 5
42 41 39 41 38 40 36 36 31 28 27 24 21 19 18 21 19 18 10 8 9 4 5 8 9 9 10 5 4 5 3 4 5 3 2 5 3 1 3 6 1 10 7 6 3 3 7
43 41 40 39 39 41 38 36 32 29 29 25 23 22 23 24 16 16 12 10 5 7 4 8 11 12 11 7 5 7 8 8 7 9 9 6 4 4 4 8 6 6 6 3 3 4 6
41 40 38 38 36 39 39 39 34 30 30 26 23 23 25 29 19 18 15 8 8 8 9 2 8 15 12 9 5 4 8 9 4 8 10 9 6 5 2 3 1 3 4 3 4 3 1
41 38 38 37 36 38 38 40 34 31 32 26 24 24 28 33 26 15 12 11 8 6 9 10 10 15 8 8 5 7 6 8 4 4 7 7 4 5 3 2 3 5 4 3 2 1 3
37 37 37 36 33 38 38 41 36 35 32 28 26 25 29 30 25 8 8 11 9 3 5 11 13 13 14 13 10 10 9 4 4 2 3 4 4 2 4 2 7 4 9 3 3 3 4
38 34 36 35 34 38 36 41 38 37 32 28 20 12 19 29 24 14 10 12 7 8 7 11 13 9 11 9 9 11 10 4 3 4 1 5 3 5 3 7 6 4 4 0 1 2 2
36 34 31 32 33 40 32 38 41 39 35 31 19 9 21 28 14 14 12 9 5 8 6 6 7 7 12 11 7 8 10 2 5 5 5 2 1 4 6 3 1 3 6 9 4 4 1
37 34 32 31 32 51 47 27 40 43 42 38 21 11 23 31 12 10 7 5 5 6 9 9 7 6 5 9 6 5 6 2 3 5 7 7 3 4 5 5 5 7 9 5 4 1 6
37 33 33 32 33 48 42 29 44 44 43 34 21 7 8 14 11 16 13 12 8 3 5 5 5 4 7 6 1 7 8 2 3 2 3 4 3 7 10 2 0 6 11 12 11 4 5
33 31 33 34 33 48 26 40 48 46 46 29 19 8 15 12 11 13 15 15 11 7 4 7 4 8 8 5 6 6 6 6 3 6 3 3 6 4 2 0 3 5 8 13 16 14 8
34 31 36 35 44 42 31 41 46 46 51 27 16 8 10 22 17 13 11 11 15 6 5 7 8 10 7 5 7 10 10 7 5 7 5 2 3 3 3 3 3 7 10 11 15 16 15
32 37 34 30 29 28 40 44 45 48 54 23 21 17 23 8 10 11 11 11 14 11 3 3 12 8 6 4 5 9 8 9 6 7 6 4 6 4 2 2 3 6 16 18 13 13 15
34 32 34 27 25 31 41 42 44 51 46 22 18 19 14 6 10 12 12 9 14 7 7 4 5 4 6 20 21 19 19 15 12 10 3 5 5 2 1 1 3 1 1 3 13 17 15
26 23 29 34 28 38 40 42 44 52 42 22 19 16 9 4 13 10 12 7 11 9 6 7 5 5 22 5 4 4 2 2 5 7 5 1 4 3 2 4 6 12 3 3 4 6 5
27 28 27 25 35 37 39 41 44 52 42 18 19 13 12 11 9 15 13 16 7 5 5 5 9 19 4 2 2 4 4 3 4 4 3 4 3 1 3 3 3 3 3 1 2 5 7
25 31 33 33 34 36 37 39 44 52 43 16 17 13 9 7 7 12 12 12 7 6 5 8 11 3 2 2 2 2 3 1 5 5 4 2 1 4 3 4 6 1 2 3 3 3 7
34 31 29 30 32 34 35 39 46 51 41 20 19 15 11 6 8 8 10 9 8 10 6 12 7 2 2 2 2 3 2 4 3 2 4 5 6 3 3 3 4 5 6 3 4 6 6
28 28 28 29 31 32 34 38 44 46 35 23 16 15 12 7 6 10 11 14 14 12 11 19 1 7 8 4 1 3 2 1 1 3 3 3 3 1 6 1 3 7 6 4 6 11 10

GFSGBSN_850_spd_039.txt.gz
Wind_Speed
35 28 29 29 26 23 21 20 19 19 18 18 18 18 18 18 18 18 18 19 18 18 16 12 10 8 6 7 13 5 5 2 11 13 12 11 12 12 11 12 13 15 4 3 1 8 9
41 34 30 31 30 26 23 22 20 20 18 18 18 18 18 17 17 17 17 18 16 15 14 10 9 7 5 12 5 5 4 1 9 14 12 11 10 11 11 6 11 12 14 3 6 11 18
36 41 36 32 31 29 26 23 22 21 19 18 18 18 17 17 17 17 16 17 14 13 12 9 8 5 9 18 3 5 6 2 8 13 13 11 12 7 5 8 4 4 7 9 7 12 7
26 30 42 35 35 30 29 25 23 22 20 19 18 18 17 16 16 15 15 15 11 11 10 7 6 4 9 6 10 12 9 9 10 11 13 6 10 12 12 5 6 8 6 12 7 13 7
27 25 31 39 34 32 30 27 24 22 21 19 18 17 16 15 15 14 13 12 9 10 7 4 4 4 8 7 11 7 9 6 5 9 9 5 7 11 8 9 8 10 8 11 11 13 11
31 29 26 32 37 35 35 30 26 23 21 20 19 17 16 15 14 13 10 8 6 7 5 4 7 8 10 9 8 6 5 7 4 9 8 7 8 8 9 10 10 13 14 14 11 11 10
41 35 31 27 37 36 36 32 28 24 22 21 19 17 16 15 13 11 7 2 3 5 12 13 2 13 1 3 9 9 8 8 6 11 12 13 7 12 15 15 9 4 7 11 14 11 13
41 40 33 31 28 37 31 31 29 25 22 20 19 17 16 14 13 10 11 9 5 4 8 20 20 15 16 7 7 11 8 10 8 13 6 7 9 7 10 3 7 6 6 7 10 11 9
43 43 39 31 30 29 35 35 32 28 23 21 19 18 16 14 12 14 16 15 4 6 7 12 19 17 13 10 13 17 10 10 16 17 9 1 6 5 6 7 6 7 2 8 7 11 14
41 44 41 34 31 32 33 33 34 30 25 22 20 19 17 11 10 10 15 14 13 6 5 12 13 10 12 8 11 12 10 8 9 13 10 20 18 6 8 6 6 10 2 1 4 12 13
44 41 40 40 34 35 32 35 32 32 27 23 21 21 17 13 4 9 1 9 7 2 5 15 17 7 10 14 4 16 10 10 12 15 10 3 9 9 8 4 5 8 3 4 6 12 7
47 46 43 40 36 34 33 34 36 34 28 24 23 23 18 19 21 11 6 8 6 5 9 9 14 13 14 15 9 14 16 11 4 4 12 2 8 3 5 3 4 4 4 6 7 10 8
48 46 46 42 35 35 34 35 35 38 30 25 25 24 24 19 9 11 9 12 6 8 6 12 18 18 17 10 11 11 16 15 12 11 12 12 10 4 5 6 3 8 9 8 5 4 8
50 46 46 42 38 36 33 34 35 35 31 27 26 25 24 25 14 8 12 10 11 13 15 7 16 16 16 13 12 12 15 16 19 14 10 12 8 12 7 9 5 9 11 5 6 7 7
49 41 44 44 39 36 34 33 37 37 32 28 27 24 25 30 23 14 18 14 11 10 14 9 12 16 16 14 8 13 15 17 14 15 6 15 5 7 2 3 5 6 7 5 4 1 5
53 34 44 42 40 37 34 33 37 38 34 32 25 20 27 26 29 13 12 19 19 10 8 12 16 17 17 14 12 14 14 15 9 5 8 4 3 4 5 5 6 8 3 3 4 3 7
49 37 44 42 39 38 34 34 35 38 37 32 24 12 18 25 28 12 13 20 18 11 12 12 17 15 15 14 16 15 13 7 8 10 8 7 9 7 5 10 11 7 8 6 4 3 4
40 40 46 42 39 37 35 35 37 38 38 36 29 11 25 34 15 14 16 22 25 12 13 10 8 13 14 14 12 12 16 12 13 8 11 4 4 7 10 5 5 10 8 9 5 6 4
48 46 33 38 37 37 35 37 39 37 46 41 31 15 27 30 14 14 21 21 23 15 13 13 12 12 12 11 11 12 11 6 5 7 6 6 7 9 7 6 7 8 9 8 8 2 9
40 37 33 34 33 34 35 33 34 37 48 42 28 10 12 23 31 20 24 21 19 15 13 17 15 13 10 12 11 10 9 4 5 5 1 1 11 9 10 9 5 12 12 11 12 8 10
36 36 33 31 32 32 35 32 39 42 49 41 27 15 19 16 22 14 23 18 22 13 11 15 12 15 14 11 14 8 10 7 6 5 5 4 10 12 14 5 7 9 9 10 16 17 15
45 43 36 32 31 31 33 32 49 34 48 41 14 24 32 31 30 19 21 23 24 19 16 16 15 17 15 10 11 11 12 10 8 9 8 5 6 3 6 9 9 12 14 14 15 16 17
40 42 35 33 33 33 35 33 53 39 49 25 26 27 35 29 24 17 17 22 24 15 4 10 18 16 12 3 7 9 6 3 4 8 11 6 4 4 5 3 5 6 15 18 18 17 14
39 39 36 34 33 35 34 43 34 47 50 35 18 23 29 15 19 20 22 23 19 17 10 4 10 10 6 16 18 16 14 10 8 5 4 5 7 2 1 1 1 3 1 4 7 12 14
39 37 36 35 35 37 42 51 38 48 60 42 10 21 14 6 22 23 25 18 15 12 14 12 6 6 22 10 4 5 2 3 3 3 3 4 5 2 3 6 9 12 5 1 1 5 10
37 34 34 34 41 35 45 39 38 50 58 57 7 10 22 10 16 27 18 22 11 9 7 6 15 12 5 3 2 5 5 6 5 6 3 3 1 4 3 3 4 4 4 2 1 4 9
34 34 38 34 42 36 34 42 47 51 52 48 9 12 17 16 24 29 17 15 20 14 6 8 9 5 2 2 2 3 4 2 6 5 4 3 1 6 5 3 6 5 2 2 4 4 10
34 32 29 34 31 36 40 44 46 44 52 44 7 11 11 11 12 8 11 21 10 17 6 12 8 2 3 3 3 3 2 4 2 3 6 6 7 3 3 3 5 6 6 1 6 8 9
33 21 28 33 40 38 38 39 41 48 48 27 6 12 15 11 9 11 15 15 13 9 10 19 2 13 10 4 1 2 2 1 1 3 3 4 4 1 6 1 5 4 4 4 7 10 11

GFSGBSN_850_spd_042.txt.gz
Wind_Speed
37 37 32 28 26 25 23 20 19 18 18 19 17 16 17 17 17 18 20 21 21 20 18 16 14 13 10 7 14 5 6 3 5 9 10 11 10 12 13 14 13 14 17 8 7 5 8
22 32 37 35 29 25 25 23 21 19 19 19 18 17 17 16 17 18 19 20 21 19 17 14 11 12 9 12 3 4 5 3 6 11 9 11 9 10 14 17 12 10 16 4 3 4 3
21 21 24 37 36 29 26 26 24 20 19 19 18 17 17 16 17 17 18 19 19 17 14 12 9 10 10 22 5 1 6 3 7 10 11 9 10 9 7 11 13 5 7 4 2 3 3
24 22 23 23 34 36 30 28 26 22 20 19 18 17 16 15 16 17 17 17 17 14 11 9 7 7 10 6 9 11 10 10 10 12 13 10 6 11 12 15 8 8 6 5 6 12 11
30 26 25 24 24 34 33 32 29 25 21 19 18 17 16 15 15 16 16 16 14 12 10 6 3 5 11 5 12 12 11 12 6 8 9 8 7 12 12 10 9 1 6 9 15 14 6
35 32 29 25 23 23 35 33 31 28 22 20 18 17 15 15 15 14 14 13 12 10 8 6 7 9 14 10 10 10 9 8 7 8 7 8 8 7 9 8 5 8 14 16 12 13 11
37 36 35 31 27 25 26 33 31 31 24 21 18 17 15 15 14 13 11 7 8 3 12 12 9 12 5 2 5 10 11 9 10 10 11 13 6 8 6 5 13 11 15 15 11 13 8
38 37 35 35 31 27 27 31 32 31 26 23 19 16 15 15 14 13 11 7 2 8 11 20 21 20 16 8 9 15 14 12 11 9 12 10 5 6 14 17 19 16 1 10 13 9 10
39 36 36 34 33 29 24 26 32 30 25 22 20 16 14 14 14 16 16 18 9 15 8 17 25 23 17 13 16 17 13 16 13 4 9 15 3 13 12 16 12 8 12 7 9 7 11
40 37 34 35 34 31 27 27 32 31 27 23 21 17 15 11 10 11 14 7 10 7 5 10 18 16 17 11 16 23 22 18 5 10 9 4 11 16 17 11 5 2 11 8 16 15 7
45 43 39 36 34 32 31 27 31 33 29 26 22 19 17 12 7 8 7 2 5 3 4 11 17 9 16 18 8 20 8 15 6 12 4 4 14 18 20 7 5 3 9 16 16 6 4
42 48 43 40 38 33 31 29 29 33 30 28 22 21 17 19 20 12 2 7 5 5 7 6 13 13 18 17 20 10 18 15 11 1 6 10 18 21 2 2 2 13 10 15 9 9 7
40 47 47 43 40 38 33 31 30 33 32 27 24 23 22 17 10 9 8 6 5 7 10 11 18 16 17 15 16 12 15 17 12 8 8 8 16 4 5 6 6 8 10 3 7 7 4
50 45 51 46 43 40 36 31 31 33 32 30 24 24 24 25 13 3 10 6 11 11 21 3 15 15 20 17 15 14 13 16 18 18 9 11 9 13 8 7 4 15 7 3 2 5 7
49 45 45 49 44 41 38 32 30 33 33 32 26 26 26 28 22 10 16 11 11 13 21 8 13 14 18 18 10 14 15 16 18 18 11 6 3 13 10 3 10 9 4 4 7 3 2
46 46 47 50 47 41 38 35 31 31 33 30 32 22 26 27 25 14 10 18 15 25 12 12 15 15 17 18 14 11 14 13 17 18 13 6 3 14 16 6 4 5 6 4 2 2 4
48 50 44 46 45 43 38 36 33 32 37 31 31 14 16 27 27 16 15 18 22 26 21 10 14 15 19 14 15 13 10 12 18 9 7 7 11 8 6 8 8 6 7 5 6 4 1
45 46 42 43 45 42 40 37 35 35 35 29 22 8 24 38 16 18 15 22 29 19 18 12 10 16 15 14 13 14 14 13 9 9 9 13 5 4 12 3 5 9 11 9 3 5 2
46 44 41 41 45 40 41 40 37 37 39 38 17 18 33 36 12 14 19 25 28 23 18 14 15 13 12 13 10 14 10 7 9 8 3 4 4 5 9 6 8 8 12 9 8 2 4
42 40 41 39 49 38 44 41 41 39 39 39 15 9 13 31 27 21 23 22 26 32 20 16 15 15 12 14 9 9 9 3 4 1 3 4 5 9 6 11 5 6 11 11 10 3 4
42 40 38 39 46 38 44 43 43 41 39 43 16 11 13 12 20 19 21 21 25 23 23 21 16 17 12 8 11 11 11 7 4 3 2 3 8 12 14 14 7 9 12 8 11 10 10
40 37 37 32 32 39 44 44 43 40 40 45 17 11 26 10 27 21 20 27 27 24 20 20 16 18 13 11 12 10 11 8 7 7 8 5 6 4 8 9 13 11 15 15 15 15 14
35 35 36 34 35 37 37 42 43 36 45 23 33 27 26 21 21 19 21 25 25 19 22 24 18 14 16 7 7 12 3 16 8 10 9 7 3 2 2 6 7 5 10 16 16 15 13
35 36 37 36 32 34 36 39 38 35 47 23 36 15 14 13 18 24 26 24 26 22 9 17 18 18 10 19 19 18 16 10 8 4 8 6 5 3 1 1 1 8 4 5 5 8 9
38 36 39 38 34 33 34 34 35 31 49 38 37 12 9 9 19 26 26 25 33 19 11 12 2 15 27 14 4 4 2 3 1 3 3 4 5 2 3 4 7 12 1 3 2 5 11
38 35 42 39 34 32 34 31 37 32 46 47 48 33 11 9 20 45 26 32 11 7 7 8 18 19 9 4 2 4 4 5 7 6 0 1 5 3 3 2 4 1 5 3 2 2 9
38 35 39 38 35 34 33 35 29 39 48 39 53 43 19 19 31 46 20 18 15 10 1 8 9 5 7 3 2 2 3 3 6 6 4 2 0 4 3 1 5 6 5 1 2 3 5
36 37 39 36 35 33 34 33 38 46 47 35 51 37 33 25 30 35 26 24 22 25 10 15 8 3 4 3 3 2 2 3 2 7 7 6 6 3 2 2 5 7 6 2 5 6 9
35 36 35 33 33 36 38 38 45 52 51 41 44 25 28 23 12 27 7 9 12 21 16 18 9 11 8 4 2 3 2 2 2 2 6 4 4 4 7 3 7 5 6 5 6 6 10

GFSGBSN_850_spd_045.txt.gz
Wind_Speed
21 28 34 33 31 27 25 23 21 19 17 17 16 16 16 15 16 16 17 18 19 21 21 18 16 13 11 8 12 2 6 6 2 5 7 8 15 15 7 6 14 7 8 11 15 17 11
21 21 22 30 34 33 29 26 21 21 19 17 16 16 16 15 16 16 17 18 18 20 19 16 13 11 8 7 1 9 8 5 4 5 5 10 14 14 13 10 6 11 17 3 6 10 12
24 23 21 21 23 33 34 29 23 23 22 19 17 16 16 15 16 16 16 17 18 18 16 14 11 10 12 20 6 4 6 4 4 3 4 12 16 14 14 9 21 14 6 5 4 6 5
29 26 24 22 21 21 31 34 28 24 23 21 18 16 16 15 15 15 15 16 17 17 14 11 9 9 11 5 10 11 8 10 10 12 12 14 15 8 8 14 10 7 3 2 2 10 7
33 31 27 25 23 21 20 28 32 27 25 22 19 16 16 15 15 15 15 15 16 15 12 9 5 6 13 3 14 14 11 13 16 13 10 12 7 5 10 3 5 4 3 3 2 2 8
36 36 32 29 26 23 21 19 30 31 27 24 19 16 15 15 14 14 14 14 15 14 11 10 8 8 12 8 7 10 12 10 10 4 4 5 4 2 3 2 3 1 3 3 6 7 12
35 35 35 33 30 27 24 22 20 29 29 25 21 17 16 15 13 14 13 11 8 3 7 11 7 12 16 14 5 11 9 14 7 8 2 7 4 5 8 6 4 5 6 8 9 8 6
37 33 36 36 34 31 27 25 21 23 28 27 21 19 16 15 13 13 12 8 6 9 12 19 25 30 26 16 8 10 13 10 11 5 1 6 7 8 7 8 7 6 11 10 13 5 4
38 35 33 34 34 32 29 27 22 22 26 27 21 19 15 14 12 13 14 16 10 9 6 15 23 22 21 11 13 16 17 19 6 4 8 6 11 17 3 9 13 3 6 2 2 5 5
41 38 36 34 33 32 31 27 23 21 25 25 23 19 15 12 9 7 6 9 6 3 3 6 9 13 17 14 11 20 18 16 5 10 13 6 7 10 8 13 6 4 5 5 3 5 2
44 43 40 37 32 31 32 30 26 24 26 26 24 18 17 11 8 10 4 2 4 4 4 5 12 7 15 17 4 13 19 17 6 6 5 6 1 2 5 6 6 6 7 10 8 7 10
48 46 43 43 37 34 31 28 26 25 27 29 24 21 19 17 21 7 2 5 11 1 7 4 11 8 9 18 15 7 17 8 1 2 3 6 8 1 2 8 11 3 2 4 4 1 1
49 46 44 41 44 39 35 31 27 26 26 29 27 24 23 19 18 6 5 4 1 4 7 7 12 11 10 6 9 9 6 6 5 4 3 4 5 10 12 6 3 7 3 3 5 6 5
50 53 49 45 39 39 37 34 30 28 27 28 27 26 25 25 17 9 8 1 9 12 11 2 10 9 11 7 10 11 5 6 8 7 3 5 1 5 3 3 4 3 3 4 4 2 6
49 49 46 43 38 42 40 37 33 28 28 28 27 24 29 28 22 10 6 9 6 7 7 4 14 11 9 12 7 9 7 6 11 12 7 5 3 8 10 11 3 2 4 4 6 2 2
55 47 46 45 43 37 44 38 34 30 30 29 29 26 32 28 26 16 6 14 6 15 11 7 7 8 8 12 10 9 8 8 6 13 8 2 5 2 3 9 8 7 7 1 3 3 3
55 49 45 39 49 39 43 41 36 32 31 31 26 13 20 28 26 16 14 12 14 30 19 6 5 7 8 8 9 6 6 6 9 4 11 6 4 2 11 4 8 1 3 2 3 5 4
57 49 46 43 47 41 41 47 38 36 33 34 26 9 22 34 13 9 15 10 10 22 21 13 6 3 7 9 7 8 7 9 15 13 9 8 4 4 9 18 15 6 6 6 5 4 3
51 43 37 38 43 42 45 46 43 40 42 42 17 16 29 41 11 13 9 15 26 15 18 6 6 3 2 5 6 6 6 5 2 5 6 3 2 4 1 9 8 4 6 4 3 4 4
49 43 43 41 43 46 43 46 47 45 45 44 16 7 15 34 27 20 17 15 23 20 21 25 13 7 5 5 4 7 3 2 6 6 6 5 0 5 6 6 3 3 4 5 4 4 4
44 39 40 41 46 47 44 47 48 48 48 45 15 12 18 12 21 14 18 14 20 18 22 18 11 9 7 5 4 5 5 3 4 3 3 4 3 1 4 5 5 2 1 4 6 6 6
44 41 43 48 41 41 44 49 50 50 48 50 12 12 22 3 24 17 19 21 26 21 15 20 16 9 9 6 7 6 8 5 5 1 5 2 2 3 1 5 7 4 7 6 7 6 3
39 40 41 40 39 40 43 46 47 54 51 28 25 26 30 11 17 16 22 23 24 16 17 29 12 6 8 8 8 4 14 18 12 9 7 6 4 3 2 4 6 6 7 6 6 4 3
39 39 40 38 37 39 42 44 51 52 53 31 32 12 10 11 13 22 22 20 24 25 16 15 25 8 10 23 23 19 21 19 16 7 6 6 6 3 3 3 2 9 2 5 7 7 8
36 38 38 36 38 33 36 47 53 50 47 46 28 17 5 5 15 17 25 26 26 29 17 12 3 8 25 13 4 4 5 6 1 3 3 4 5 2 4 4 4 7 1 2 4 4 6
33 33 35 35 36 37 42 46 50 50 45 39 40 20 7 3 12 31 23 26 14 10 3 3 3 16 20 3 4 5 5 6 5 3 8 7 5 5 2 4 6 6 3 5 3 1 7
33 31 35 35 35 38 35 38 46 46 42 32 48 34 14 6 11 33 24 23 22 5 5 3 4 5 8 3 2 3 3 8 5 9 4 3 3 5 3 2 7 5 6 2 6 5 9
32 32 31 36 35 33 33 35 38 39 37 31 45 38 15 6 18 9 35 22 16 18 6 9 7 2 4 2 4 2 3 4 4 8 8 6 6 3 3 2 5 9 5 6 6 14 15
34 34 34 37 35 34 32 34 34 33 37 34 31 40 29 20 11 10 19 22 30 32 26 18 12 11 17 4 3 4 2 2 3 2 2 2 6 6 7 6 6 20 25 22 20 18 14

GFSGBSN_850_spd_048.txt.gz
Wind_Speed
22 20 21 28 32 32 29 26 25 24 21 18 16 15 15 15 14 14 15 15 17 17 19 19 18 17 14 9 8 5 4 4 1 1 4 7 5 4 3 5 8 4 7 8 10 21 12
25 23 21 20 23 31 34 33 29 26 22 20 18 16 15 15 14 14 14 15 16 17 17 18 16 15 12 6 1 6 3 4 2 2 6 9 5 7 12 4 3 14 16 9 18 21 13
29 26 24 22 21 21 26 32 32 28 25 22 20 18 16 16 15 14 14 15 16 16 16 16 15 14 16 18 3 5 6 4 3 2 2 4 9 10 9 7 11 12 2 5 10 17 7
33 31 28 25 24 22 21 22 31 31 27 24 22 20 16 16 15 14 14 15 15 16 15 14 13 14 12 4 11 13 11 9 9 11 5 7 12 12 4 10 10 6 4 2 5 9 10
36 35 33 30 27 25 23 21 21 28 30 26 25 20 16 16 15 15 14 15 16 16 15 12 10 9 13 7 13 15 14 12 10 15 13 10 7 7 7 3 5 5 2 4 1 6 5
35 36 35 34 32 28 26 23 21 22 27 28 25 23 17 16 15 15 14 15 15 15 13 11 11 9 8 0 10 10 21 17 11 5 9 1 3 3 5 4 3 4 1 3 2 3 4
37 35 37 36 35 33 29 27 24 21 22 27 26 23 18 15 14 14 13 11 8 3 6 10 5 15 17 10 6 11 13 13 13 6 3 2 4 3 7 7 7 9 1 4 6 6 5
41 37 35 33 35 35 33 30 27 23 20 25 26 25 19 15 14 13 12 9 1 3 12 20 22 27 28 22 10 8 8 11 8 4 2 4 3 5 7 4 3 3 2 9 9 8 9
44 43 39 35 34 34 35 32 30 27 22 22 25 22 18 15 13 11 10 10 11 14 6 17 22 20 24 12 11 15 5 15 5 5 5 5 6 4 1 5 7 4 3 5 6 4 4
48 46 44 38 37 34 32 31 29 28 25 22 23 20 20 15 12 9 1 10 1 8 2 7 6 8 14 11 6 20 17 6 4 8 7 4 2 2 5 2 2 7 7 7 1 4 1
53 52 45 43 39 37 33 30 27 27 26 22 23 22 20 16 9 12 4 4 7 3 3 4 6 4 14 13 1 10 19 11 5 7 6 9 3 3 4 6 4 9 4 6 1 3 3
54 54 52 45 44 40 34 31 29 28 27 23 25 22 21 21 21 11 5 3 9 3 7 3 9 8 7 11 3 4 10 15 5 6 0 5 4 4 4 1 3 8 2 7 7 4 1
55 55 54 51 48 43 39 34 31 27 26 25 26 24 27 22 19 13 7 9 3 5 5 5 6 7 6 7 4 5 3 5 6 4 1 2 3 2 1 8 8 2 4 3 3 3 6
71 55 56 53 52 47 42 38 32 29 26 26 26 27 27 28 16 14 11 2 9 7 7 4 6 9 9 7 7 6 5 5 3 5 3 4 1 1 2 3 4 4 4 5 4 3 4
61 64 54 55 48 46 41 38 36 32 28 26 25 30 27 32 22 14 8 9 8 6 5 4 4 6 5 8 5 6 8 9 9 7 7 4 3 3 4 4 3 1 2 5 5 2 3
60 62 47 58 55 48 47 34 37 34 29 28 27 27 31 33 26 17 6 15 6 9 6 4 6 7 10 10 7 7 6 6 5 10 9 7 2 1 4 3 2 6 4 2 3 2 3
57 57 56 60 53 47 50 42 36 37 33 30 26 13 24 34 24 12 12 12 12 31 9 4 2 2 8 8 9 7 6 5 9 6 10 5 5 4 4 7 8 3 3 2 4 4 4
57 54 64 53 52 42 40 43 39 41 37 33 25 7 26 40 11 8 14 13 19 22 15 5 5 7 6 9 9 9 11 9 7 12 10 7 5 4 8 3 6 6 5 4 5 4 1
57 52 54 54 52 46 37 47 40 42 43 41 20 14 30 41 11 12 9 22 22 10 5 6 5 4 4 6 5 7 8 4 2 8 10 7 1 2 6 6 4 3 6 6 4 4 6
53 51 50 54 51 44 37 47 40 48 47 42 17 8 13 32 28 19 16 13 19 26 19 15 7 7 4 3 5 7 5 1 2 4 15 13 5 7 7 7 3 3 6 5 6 3 4
53 50 56 56 50 48 42 40 47 52 50 47 16 10 17 13 22 16 17 13 16 15 19 10 8 16 8 5 4 5 2 4 2 7 2 5 6 5 5 4 3 1 1 2 3 4 5
53 52 59 52 49 41 41 39 54 53 51 46 13 9 24 5 27 23 16 24 26 23 8 16 11 9 5 9 7 7 7 4 6 2 4 2 3 3 3 2 3 3 2 3 4 3 4
49 56 59 51 41 39 39 36 54 54 54 35 34 20 24 18 19 18 28 21 23 23 15 29 14 13 9 10 13 13 20 17 12 9 6 6 6 3 4 3 3 5 6 6 3 2 5
53 49 50 42 36 40 43 44 48 58 55 30 41 19 11 9 14 21 22 21 22 26 22 19 32 15 16 11 15 13 17 15 10 4 8 7 5 3 3 2 1 7 4 4 11 5 7
47 45 39 35 38 41 46 48 48 53 46 41 37 19 4 7 13 15 17 22 21 32 19 27 12 15 21 13 4 5 5 6 3 7 4 5 5 3 4 4 4 5 6 6 6 0 0
41 38 35 34 35 40 46 43 48 42 48 54 29 31 3 2 13 17 19 23 14 17 11 12 16 14 11 4 3 5 4 5 3 2 5 7 6 4 2 4 7 7 3 9 6 1 5
36 34 34 35 36 38 40 39 42 41 53 57 32 25 5 3 4 18 17 16 27 13 5 4 10 6 2 1 3 3 3 8 6 9 5 3 3 5 2 3 7 7 6 6 6 6 11
33 34 35 36 35 36 38 38 36 48 52 52 36 34 15 5 13 4 16 20 34 30 9 7 6 1 3 3 4 4 3 5 4 6 7 7 6 3 3 3 6 8 5 7 7 15 19
30 31 32 32 34 35 36 38 49 47 53 42 25 27 26 13 9 16 14 21 22 38 25 18 5 8 9 4 2 2 2 2 4 3 3 2 7 6 8 5 3 3 12 23 25 24 16

GFSGBSN_850_spd_051.txt.gz
Wind_Speed
25 24 23 22 24 31 32 30 28 26 26 24 22 19 17 16 16 16 15 16 16 16 18 20 20 19 16 9 11 8 2 1 1 2 2 5 2 1 3 6 6 3 5 11 8 16 13
29 27 26 24 22 22 29 32 31 30 28 26 24 21 19 17 17 16 16 16 16 16 18 19 19 17 14 7 5 6 4 1 2 3 3 5 1 5 7 5 1 6 8 6 14 12 14
32 32 29 27 25 23 23 24 30 31 30 29 27 24 21 18 18 17 17 16 16 16 17 19 18 17 17 19 7 7 9 5 2 3 3 2 6 4 7 6 8 8 4 3 2 7 6
32 33 34 32 29 27 25 23 22 26 29 27 28 25 23 21 19 18 18 16 16 16 17 18 16 16 12 9 12 14 9 9 6 5 9 9 9 6 3 8 7 4 3 3 4 5 3
34 31 31 34 33 31 28 26 24 21 24 27 26 25 23 21 19 18 18 17 16 17 19 17 15 9 12 5 9 12 12 12 8 7 11 14 11 2 3 3 5 5 2 2 3 10 3
37 35 33 32 32 33 32 29 27 24 21 24 25 25 23 21 18 18 18 17 16 18 17 13 14 7 10 1 3 6 17 14 8 9 4 5 1 3 3 4 2 4 3 1 3 4 4
42 40 37 35 33 31 34 32 30 26 23 21 23 25 23 21 19 17 16 12 9 6 8 10 2 8 12 13 11 5 16 19 12 2 3 2 3 2 5 5 6 3 5 4 3 4 3
45 45 42 39 36 33 31 33 32 29 26 23 21 22 21 19 18 16 14 8 5 4 11 18 24 29 28 26 8 5 10 11 8 5 2 4 3 6 5 2 4 0 4 6 6 5 5
41 45 45 43 40 35 33 32 31 32 28 25 21 21 20 20 18 17 13 6 10 12 6 13 18 18 27 16 10 11 10 13 4 6 6 5 4 2 3 4 1 1 2 5 6 5 2
56 41 46 45 43 39 36 33 31 29 30 27 23 22 18 17 17 17 8 0 4 7 2 6 6 7 15 10 5 20 10 7 2 10 6 4 2 3 2 2 4 3 3 8 3 2 4
58 57 44 48 46 42 40 35 33 28 25 27 24 22 20 20 11 9 8 2 6 4 3 4 4 3 17 20 3 11 22 11 7 6 5 8 5 5 4 5 4 6 3 3 3 2 2
51 57 53 39 47 44 43 38 34 30 25 23 24 24 22 23 25 10 8 0 7 4 7 3 8 7 6 6 2 2 11 10 6 5 3 5 1 2 5 1 4 2 1 4 3 1 2
50 55 63 49 42 46 42 41 38 32 27 25 24 25 28 26 24 18 14 6 3 4 4 4 5 6 5 6 3 1 5 6 6 5 4 2 1 3 2 2 3 6 5 3 4 4 5
52 52 56 64 48 48 47 42 40 33 30 27 25 28 31 29 25 15 10 3 8 6 6 4 3 5 8 6 5 5 5 5 3 4 3 5 4 4 1 3 4 2 5 4 4 2 4
56 51 58 56 64 41 49 48 41 38 32 27 24 30 33 33 29 15 8 11 7 6 4 3 3 4 4 4 6 5 8 7 9 8 7 4 3 3 3 1 4 1 0 2 6 3 3
59 53 52 60 59 51 47 46 43 41 34 29 28 28 37 36 32 21 5 18 6 5 4 4 8 6 8 8 7 7 8 5 5 9 8 7 2 2 4 3 7 4 5 1 2 3 2
61 55 51 54 59 60 43 49 43 42 40 33 28 12 21 32 31 17 13 11 11 20 7 3 2 2 7 7 9 6 8 4 7 6 5 6 5 2 1 6 7 2 1 1 4 4 4
64 59 52 53 57 55 41 51 44 42 43 36 30 5 24 40 12 10 14 7 8 18 2 3 3 5 4 7 7 8 9 8 13 13 9 7 6 4 9 2 2 2 5 5 4 4 1
70 60 54 53 57 49 50 55 48 39 47 42 23 14 30 44 13 13 8 17 9 6 6 6 4 1 4 2 4 7 8 6 10 9 10 8 1 3 6 5 4 4 5 4 4 4 6
74 61 56 52 55 49 55 57 50 47 50 39 18 6 14 33 34 20 20 13 23 22 11 4 3 3 2 3 6 6 7 4 10 12 13 14 5 8 8 8 4 4 5 5 6 3 4
71 66 56 52 52 52 56 56 49 49 55 39 21 10 16 13 23 17 20 12 16 16 14 10 5 9 3 3 3 4 2 3 1 8 6 5 6 5 5 4 5 4 3 7 5 5 6
71 66 57 54 53 54 57 50 50 61 61 38 21 6 20 3 27 28 18 22 25 22 8 10 15 3 10 9 7 3 4 3 6 2 5 1 3 3 2 3 2 4 7 6 6 4 6
67 61 57 54 52 53 55 52 48 53 61 19 33 16 9 12 17 19 29 20 21 17 18 21 15 16 11 14 17 22 20 9 8 10 6 6 6 4 4 2 3 5 8 7 6 4 6
67 55 54 53 54 53 58 52 48 51 66 12 41 18 6 4 15 23 19 23 19 20 20 18 31 9 7 8 2 2 7 12 8 5 5 7 6 3 3 2 2 6 4 5 5 2 4
55 52 51 53 51 56 52 50 46 52 57 55 45 18 4 3 10 11 14 21 22 24 22 25 27 19 28 15 2 4 5 4 3 6 5 2 6 3 5 4 5 1 3 7 6 3 2
50 50 51 55 60 54 47 50 54 54 54 58 28 31 10 3 9 14 20 20 16 13 10 27 29 35 16 3 3 7 5 5 4 3 5 6 6 5 3 5 7 8 4 8 5 2 7
43 50 53 57 53 49 49 49 51 46 42 54 25 32 21 3 3 21 14 10 23 21 6 4 20 11 13 3 2 4 4 5 7 10 5 3 3 5 3 3 7 7 5 10 6 8 18
49 49 48 44 36 35 38 39 43 41 48 53 25 29 16 7 8 3 18 13 24 30 10 6 6 8 3 4 3 4 3 5 4 6 8 7 7 4 3 3 6 7 6 8 7 12 23
37 38 36 33 34 34 36 37 42 42 48 44 17 41 18 10 5 8 9 17 19 22 20 18 4 7 12 3 2 2 2 1 4 3 1 2 6 6 8 6 2 4 5 7 24 31 21

GFSGBSN_850_spd_054.txt.gz
Wind_Speed
26 28 26 25 24 22 24 30 31 29 27 26 26 26 24 22 20 19 19 18 18 18 19 19 19 20 19 11 11 9 5 2 3 4 4 7 5 3 2 4 4 4 5 4 8 8 9
29 26 28 27 27 25 23 22 29 30 30 28 27 27 25 24 22 20 19 19 18 18 19 20 20 19 16 7 6 7 7 3 2 4 4 6 2 2 3 5 2 4 7 5 6 8 10
32 30 28 27 29 28 26 25 22 26 30 31 30 28 26 24 22 21 19 19 19 19 19 20 19 19 19 22 7 8 11 7 3 2 2 2 5 5 4 5 3 5 4 4 1 4 4
33 32 31 29 27 30 29 27 25 23 23 27 29 28 26 23 23 22 20 19 19 19 20 20 19 18 13 13 9 14 13 10 7 5 4 5 4 6 3 7 6 3 4 2 0 2 3
37 35 33 32 30 27 29 30 28 26 24 22 25 25 24 22 21 20 21 19 20 20 21 20 18 11 13 6 7 13 15 12 8 6 8 7 9 2 2 3 4 5 2 2 4 6 2
35 39 38 34 32 30 28 27 29 28 26 24 22 23 23 22 20 20 20 20 20 20 18 15 14 7 12 4 5 7 15 13 10 6 1 3 2 3 4 4 3 1 1 4 4 5 4
44 38 39 39 35 33 31 28 26 27 28 25 22 20 22 21 17 20 18 16 11 8 9 12 4 7 6 6 8 7 15 14 10 1 2 3 3 4 8 6 4 3 2 4 5 2 4
37 47 42 39 40 36 33 30 28 27 26 26 23 19 17 16 16 18 17 11 8 7 11 19 25 31 28 25 9 8 12 11 7 5 3 4 5 8 5 4 4 3 2 3 6 3 3
40 44 49 44 40 39 37 32 30 28 26 24 25 20 14 13 15 18 17 15 13 12 7 13 22 19 25 20 12 11 17 13 4 5 6 6 4 5 3 2 1 1 1 3 3 6 1
47 43 44 53 46 41 37 37 32 29 27 24 24 21 16 13 14 17 16 7 12 9 3 6 6 7 15 13 6 17 16 13 2 10 7 5 4 3 3 4 4 2 3 1 4 2 3
52 48 42 45 54 47 40 38 35 32 29 25 23 21 18 17 8 7 7 5 3 4 3 3 4 6 13 17 10 14 17 7 9 6 6 6 4 5 4 6 6 7 4 2 2 2 3
54 51 47 43 48 54 43 40 37 34 31 26 22 21 20 21 24 12 11 4 6 1 7 3 7 7 7 6 3 7 13 11 5 5 1 5 1 3 4 0 3 4 4 5 4 3 2
58 55 52 47 46 50 53 42 41 36 32 27 23 21 25 23 24 22 18 6 2 5 4 4 5 5 5 6 4 4 7 7 6 5 3 2 2 3 2 1 4 4 5 3 4 3 5
59 57 56 50 45 50 55 48 42 37 35 30 24 22 29 29 22 16 11 3 10 6 6 4 1 5 7 5 4 5 7 7 3 5 3 6 4 5 3 4 6 2 6 5 2 2 4
59 59 59 56 48 47 50 55 41 38 36 32 25 26 29 32 26 21 13 11 6 6 4 3 2 4 5 5 6 4 7 7 8 7 7 5 4 1 1 0 3 3 2 4 6 2 2
61 60 58 61 51 44 51 54 41 40 35 33 30 27 34 32 31 24 5 17 7 5 4 3 5 5 8 7 5 8 8 5 7 10 5 7 2 0 1 1 1 2 5 3 3 1 3
61 61 61 66 56 47 48 52 52 44 37 34 29 13 15 35 33 16 13 12 15 20 4 3 3 2 5 7 8 6 9 3 8 7 5 5 4 2 1 4 6 2 0 5 5 4 3
63 60 61 66 59 50 47 53 53 47 43 39 28 7 18 40 18 12 15 7 10 17 8 4 2 4 4 6 6 7 10 9 14 12 9 6 6 5 8 1 3 4 7 6 5 4 1
64 61 59 66 64 53 48 52 58 46 47 50 18 15 18 42 14 16 9 14 6 8 5 5 3 1 2 1 3 7 7 6 16 8 9 7 1 1 7 4 1 4 5 4 5 3 6
52 56 60 66 68 55 49 52 50 50 48 53 15 6 13 33 34 19 22 17 18 14 7 2 2 3 1 3 4 1 7 4 13 12 10 10 4 7 8 8 5 4 6 6 6 4 4
51 51 54 68 67 56 51 50 57 56 53 52 18 9 13 13 24 16 21 14 20 15 16 15 2 5 0 3 4 2 1 2 2 5 5 7 8 6 5 4 5 6 5 8 7 6 7
53 54 56 70 63 57 53 50 52 57 55 50 14 7 14 1 26 23 15 23 22 19 8 12 6 5 8 6 4 4 4 1 5 4 6 3 5 4 3 2 2 3 3 8 6 3 5
51 44 58 72 66 58 53 55 57 62 63 36 25 20 19 18 17 17 26 16 16 16 24 9 19 13 7 10 11 14 17 16 8 3 6 9 7 4 5 2 5 4 8 6 5 5 6
46 42 60 69 63 57 52 54 60 67 65 35 36 23 10 5 12 21 20 18 20 20 10 23 23 4 8 20 13 9 3 2 9 3 7 5 6 3 3 2 1 6 1 5 8 5 4
37 31 66 65 60 54 54 57 65 65 59 40 32 21 10 2 9 8 12 25 14 22 16 12 18 15 19 16 2 4 4 4 2 4 1 3 5 3 5 4 4 3 5 8 8 9 6
39 37 62 63 51 50 51 56 65 65 61 46 33 24 11 3 6 17 17 18 16 7 5 14 30 26 7 3 2 6 4 5 5 1 2 5 6 4 3 5 8 8 5 9 5 6 8
35 55 58 49 49 49 54 59 55 53 58 59 28 23 10 4 3 15 11 12 25 15 1 5 19 15 15 3 2 3 6 4 5 9 5 3 3 5 3 3 7 6 3 11 6 8 17
49 53 46 47 47 50 50 56 58 48 50 51 37 31 10 6 6 3 10 16 18 30 7 8 6 9 3 6 4 4 3 7 4 3 6 7 7 3 3 3 6 11 7 9 8 3 25
41 41 42 44 46 47 44 50 51 44 40 44 23 28 26 14 5 6 10 12 21 31 30 19 9 8 14 4 2 3 2 1 4 4 1 3 6 6 9 7 3 16 6 16 7 9 24

GFSGBSN_850_spd_057.txt.gz
Wind_Speed
29 27 25 23 23 24 25 22 23 29 28 26 24 24 24 23 23 21 21 20 19 19 20 20 20 21 20 10 12 11 7 3 4 6 5 8 10 5 1 3 4 4 5 7 10 10 6
27 29 29 27 25 25 24 24 23 23 26 28 28 25 26 24 22 21 20 20 20 20 20 20 20 21 18 7 6 8 8 6 5 6 7 10 3 1 2 3 3 5 7 7 4 3 4
28 30 29 28 27 26 25 25 24 23 22 23 27 27 26 26 25 22 21 20 20 20 21 21 20 21 21 22 10 10 12 8 5 4 5 5 1 2 3 3 3 4 5 2 3 3 2
30 28 30 31 29 28 26 24 25 26 24 21 21 24 25 25 24 22 22 20 20 21 22 21 20 19 14 14 14 14 14 11 7 6 6 5 5 3 3 5 4 1 2 3 1 6 4
36 35 31 29 32 30 29 26 25 25 25 24 21 20 22 22 19 18 20 20 19 20 23 22 18 11 13 8 8 13 16 12 7 7 6 5 4 2 1 2 2 3 2 2 1 4 4
33 30 39 33 31 32 31 28 26 24 25 24 23 20 19 19 18 18 19 20 19 21 21 17 15 7 14 5 5 9 13 13 8 5 3 4 3 1 1 2 4 3 1 2 2 2 3
40 36 29 39 38 33 33 32 29 25 24 24 22 22 19 15 16 15 14 16 10 7 7 12 3 6 2 4 5 8 11 13 11 5 3 1 2 6 10 4 2 3 1 2 1 2 4
45 43 39 34 35 39 33 33 31 26 24 22 23 20 18 13 11 10 12 8 9 7 11 19 24 33 29 20 6 8 12 12 8 5 4 1 5 7 3 3 3 4 1 2 3 2 4
47 46 44 40 36 38 39 33 32 30 25 23 21 19 15 10 8 11 13 14 13 10 6 13 23 22 25 23 15 14 17 13 5 6 6 5 3 5 4 4 5 4 4 4 1 1 1
47 47 47 45 39 35 43 40 32 30 28 24 22 19 14 10 8 14 16 8 8 7 3 6 6 8 16 13 8 21 21 15 2 11 8 5 2 5 5 5 6 3 5 5 2 2 2
49 47 49 48 45 39 36 45 41 33 29 27 23 19 16 17 6 7 5 6 3 8 4 2 3 5 11 14 13 17 25 10 9 7 6 5 5 4 4 5 6 5 2 2 2 3 1
53 52 50 49 48 43 40 38 45 39 32 29 25 21 17 22 20 12 13 7 7 2 8 2 6 6 7 7 3 15 12 6 8 5 1 4 2 3 4 1 4 4 3 5 3 2 1
51 51 54 52 49 47 41 37 38 44 34 30 27 23 21 24 21 18 11 2 3 7 4 3 4 5 5 6 3 4 8 7 7 6 5 1 2 2 3 3 2 2 3 0 1 1 3
53 52 52 52 54 49 45 41 35 44 37 31 30 26 23 28 18 19 13 3 10 5 6 4 2 4 5 5 3 3 11 11 3 5 4 6 3 6 4 4 5 4 3 4 3 3 1
53 53 51 52 52 52 48 42 37 40 42 35 29 27 28 31 26 19 16 9 6 8 3 3 2 4 4 4 4 4 7 14 9 7 7 6 5 1 1 2 2 4 2 1 6 2 0
55 53 52 51 53 52 50 46 41 38 44 35 33 30 34 33 31 24 8 19 8 6 0 2 5 5 9 6 5 7 8 5 7 8 6 7 3 1 1 2 4 1 8 3 1 3 3
51 50 54 53 52 53 52 48 42 37 45 36 35 19 18 33 33 19 15 15 18 8 4 1 2 2 4 6 7 6 10 2 10 8 4 5 3 1 1 5 8 3 2 3 4 1 2
49 49 47 53 53 53 56 49 45 39 47 38 33 9 20 38 19 16 18 18 11 21 1 3 1 3 3 5 5 6 11 7 17 16 10 6 4 4 6 1 1 2 6 5 3 3 0
50 50 49 56 54 54 59 54 51 43 50 46 20 15 24 50 14 16 16 22 16 9 12 6 4 2 2 1 3 5 6 5 18 8 11 8 2 2 1 1 2 3 4 4 5 3 7
53 51 50 50 49 56 61 60 55 47 56 48 16 6 15 35 34 19 21 20 24 25 4 4 3 2 2 2 2 2 5 3 15 7 11 15 4 6 10 7 4 4 6 7 6 3 5
56 54 52 51 52 62 63 65 59 51 58 45 20 6 13 11 23 18 20 18 26 14 25 13 3 6 2 4 2 2 2 3 2 5 5 5 7 6 4 4 5 5 5 12 11 10 8
53 54 53 52 51 61 68 68 61 54 57 43 18 8 16 7 34 21 19 21 26 23 11 18 12 9 10 6 2 4 4 1 1 2 2 2 5 5 3 2 7 5 8 7 7 4 9
53 54 53 51 49 56 73 70 60 55 65 35 31 29 26 21 19 18 21 21 15 17 19 13 16 3 3 13 7 5 7 9 7 2 5 4 5 4 5 2 5 4 7 9 5 5 6
57 54 54 49 48 57 73 68 60 58 73 34 35 27 17 5 14 18 22 16 23 21 8 25 7 12 7 12 10 7 6 4 5 5 7 5 5 2 3 1 4 3 1 3 9 6 8
50 51 52 47 47 68 70 64 57 57 73 34 39 23 17 4 10 16 18 20 7 23 20 11 19 11 8 6 1 1 2 2 1 1 4 3 5 3 5 4 3 2 5 7 7 11 7
43 49 44 47 49 71 69 60 55 56 66 39 37 32 16 9 8 12 19 24 13 9 5 7 12 8 3 3 2 5 5 4 2 2 3 5 4 3 3 5 8 8 4 8 4 8 9
36 35 37 41 65 68 58 56 52 55 62 43 31 32 18 8 1 22 15 15 27 7 4 6 21 6 8 2 1 3 3 4 3 5 5 3 2 7 3 4 5 6 6 12 6 9 10
27 31 37 62 65 59 53 50 49 58 60 44 30 33 23 8 3 11 11 19 20 28 7 9 7 7 2 4 3 3 3 5 4 4 4 6 7 4 3 1 7 11 8 9 8 7 11
23 51 58 58 55 49 47 47 48 54 60 43 28 29 15 7 2 2 5 11 22 41 31 27 9 8 12 4 3 2 3 1 5 9 2 4 6 5 9 6 2 28 9 22 9 8 11

GFSGBSN_850_spd_060.txt.gz
Wind_Speed
24 25 23 23 22 22 21 21 21 22 21 23 27 27 23 23 24 23 22 21 18 19 20 20 19 20 21 9 12 13 11 7 7 10 10 9 10 7 8 4 5 11 8 6 12 12 9
24 21 24 25 24 23 23 21 21 22 21 21 21 24 27 24 23 22 23 21 19 19 19 21 20 19 16 13 9 8 9 10 9 11 9 9 5 3 5 5 8 4 12 11 5 1 2
29 28 24 23 27 26 23 22 23 24 24 22 20 20 23 26 26 24 24 22 21 19 20 20 21 20 19 21 15 11 11 11 10 10 7 9 3 5 1 6 4 11 13 4 3 4 3
26 25 30 29 25 25 27 24 23 22 23 25 23 21 20 21 23 21 20 21 20 19 20 21 21 19 13 15 13 12 14 14 12 9 8 7 5 4 5 4 8 10 6 11 7 8 4
29 29 27 28 33 28 25 27 25 23 22 23 24 23 21 18 19 21 18 18 19 19 20 22 18 9 13 13 15 13 18 14 11 9 11 6 5 6 5 10 9 10 10 6 6 7 4
34 33 31 28 26 33 30 26 27 25 22 21 21 22 22 20 16 18 17 15 17 18 20 19 15 7 17 5 5 8 18 16 6 11 7 8 8 8 8 9 8 8 8 8 4 8 8
36 36 37 35 33 29 31 33 26 26 25 22 21 20 21 19 16 13 10 7 7 6 8 12 4 6 3 3 6 10 14 17 13 12 11 10 9 10 5 5 6 4 6 5 3 3 6
42 41 38 37 37 34 30 29 32 27 26 23 21 19 17 15 13 10 7 6 6 5 12 19 24 28 27 10 4 10 15 17 16 15 8 7 12 6 3 5 7 8 9 6 3 4 5
42 42 40 39 39 38 35 30 29 30 27 25 22 20 16 12 10 12 10 9 11 8 8 11 20 20 20 21 15 15 19 21 18 17 14 13 3 2 9 9 9 8 9 3 3 2 8
45 43 41 40 39 40 38 33 29 33 29 24 24 20 17 10 11 10 9 10 9 3 5 5 8 8 16 12 11 26 22 21 9 19 14 11 10 7 9 10 10 10 7 6 6 7 7
44 45 48 45 42 39 39 36 31 30 35 28 22 22 19 19 7 9 5 9 8 6 6 7 5 5 8 21 11 21 25 18 20 13 10 11 10 11 13 13 8 6 4 6 8 8 5
46 46 45 46 46 44 40 39 35 31 32 35 26 25 21 20 20 14 12 15 10 5 9 4 7 8 8 18 8 18 19 14 20 12 10 9 4 5 5 3 8 4 7 4 4 3 7
45 46 47 46 45 45 45 40 38 33 30 35 33 25 25 19 19 17 17 10 5 9 2 7 5 8 12 12 11 17 22 21 17 18 15 14 13 5 6 8 7 10 9 6 5 5 4
48 47 47 46 45 44 43 43 39 37 30 31 36 26 29 25 19 18 15 4 14 7 11 1 3 7 9 16 9 20 21 21 22 19 15 15 14 14 11 11 8 15 11 4 5 4 4
50 46 45 47 46 45 44 43 42 38 31 27 35 32 32 29 27 19 18 13 11 13 7 6 6 6 7 14 7 16 21 23 22 21 11 16 13 5 8 4 7 7 8 1 2 1 2
48 46 48 47 48 48 46 45 43 40 33 27 37 33 36 29 31 24 12 23 16 9 6 7 10 10 11 12 10 15 20 20 24 21 17 8 11 5 7 6 4 6 10 5 4 4 5
49 51 49 48 47 48 47 47 45 42 37 30 33 16 22 31 30 20 16 20 24 17 9 5 10 5 6 12 17 17 16 6 23 20 18 11 7 6 6 11 12 6 6 2 1 3 3
44 44 45 50 50 50 48 49 49 44 41 36 33 8 25 38 17 10 19 31 16 22 13 6 3 4 5 8 14 17 17 17 26 24 22 16 8 8 13 4 3 6 9 11 5 5 3
47 46 44 45 46 46 52 50 52 51 50 45 24 9 27 44 14 15 22 28 29 18 22 8 7 5 2 4 7 17 11 11 15 22 21 14 10 9 9 6 5 8 10 11 6 2 11
46 46 46 46 47 47 48 53 55 59 56 48 20 6 14 36 42 28 20 23 30 32 17 21 5 7 3 3 6 5 8 3 13 23 17 23 13 19 13 12 9 12 14 15 13 7 10
50 51 50 48 48 48 49 56 57 67 60 50 22 10 18 16 21 27 28 21 30 20 30 18 17 11 11 4 2 4 3 5 6 4 8 13 18 16 15 13 13 16 15 15 17 17 15
52 50 50 51 49 50 48 49 64 73 62 49 12 20 29 19 38 33 26 25 30 31 23 23 15 19 10 3 2 4 2 2 2 4 7 6 11 12 16 14 13 16 16 17 17 17 12
40 42 45 51 52 51 49 53 67 73 66 38 26 25 30 18 25 22 23 27 26 28 25 30 19 9 12 15 10 9 6 7 4 2 6 6 8 7 12 6 6 7 15 16 15 14 15
42 44 46 46 51 52 50 52 75 76 70 42 31 31 20 13 14 22 30 24 29 26 25 13 26 17 9 6 9 6 6 10 10 8 10 6 12 6 5 4 7 8 2 14 18 16 16
48 51 48 47 52 52 52 51 77 75 70 42 39 28 20 10 18 21 27 31 23 25 25 21 11 20 15 4 5 7 4 3 7 7 10 12 8 4 5 9 10 5 5 9 11 16 18
39 48 52 50 52 51 52 49 75 70 70 39 39 34 17 12 16 26 21 30 20 18 19 19 19 11 13 3 5 9 8 7 7 7 2 7 8 6 4 6 9 8 14 15 6 13 11
27 42 49 47 51 51 53 59 78 66 65 39 39 31 24 15 11 25 19 23 35 22 14 18 13 11 11 4 3 5 7 5 8 8 6 5 3 11 8 6 5 4 8 14 9 15 2
30 38 42 48 47 50 54 75 71 63 62 39 36 31 24 17 16 10 22 25 37 26 14 22 11 7 7 8 6 5 4 5 5 6 6 8 9 5 6 6 10 11 11 10 13 4 8
28 34 40 42 45 47 67 71 65 62 58 44 30 34 23 9 6 6 14 18 26 36 24 26 12 19 11 7 6 5 3 1 7 8 5 5 5 2 8 5 2 27 16 23 7 9 9

GFSGBSN_850_spd_063.txt.gz
Wind_Speed
22 20 19 19 21 21 21 20 19 21 22 21 21 22 26 28 27 25 24 24 24 20 20 22 22 21 20 9 16 15 14 11 10 11 12 12 14 15 14 9 8 11 13 11 11 14 12
22 29 25 23 20 21 22 21 20 19 20 23 22 21 20 22 26 26 25 24 24 22 20 21 22 22 13 15 9 14 9 15 12 13 12 13 13 12 11 10 11 8 10 16 14 15 9
23 22 20 24 27 22 20 22 23 22 22 20 21 22 21 21 21 23 25 25 24 23 22 21 20 21 17 27 10 11 10 11 12 14 12 13 11 11 5 10 14 12 14 18 13 14 13
26 24 24 24 20 28 25 20 22 24 22 21 21 20 21 21 21 20 20 21 21 19 20 19 19 16 16 14 11 16 13 13 12 13 12 11 11 12 11 12 12 15 16 17 8 10 9
28 28 27 27 26 22 25 29 23 23 24 23 21 22 22 21 20 19 20 19 18 18 18 17 14 7 19 13 19 19 17 18 14 12 11 9 11 16 12 12 14 15 16 8 12 12 6
31 31 29 30 30 28 24 22 27 26 23 23 22 21 20 20 19 19 17 14 13 15 16 13 11 8 21 11 8 12 19 20 18 13 13 13 13 13 13 13 13 11 14 14 8 8 8
34 33 33 33 31 32 31 28 26 27 27 23 22 21 20 19 17 15 13 10 8 6 17 13 6 16 5 8 8 11 19 22 18 18 17 21 13 15 17 11 12 11 11 9 8 5 7
35 35 35 35 34 34 32 31 29 26 26 27 23 22 19 18 15 12 10 5 7 7 13 22 29 29 25 6 6 16 21 23 21 20 20 13 16 17 5 4 7 11 13 12 3 3 6
36 35 35 35 34 33 33 32 32 29 24 26 24 20 20 17 16 16 14 12 7 7 10 19 28 33 32 24 20 20 26 30 22 21 20 17 13 10 6 10 9 11 14 2 2 17 13
38 37 37 36 37 36 31 31 33 31 27 24 25 20 19 17 15 13 16 10 9 5 7 12 9 11 26 24 16 27 27 30 15 22 21 19 12 8 12 13 10 13 11 8 10 10 8
42 41 40 40 39 38 37 34 31 32 29 24 29 21 19 19 7 11 1 12 9 2 7 6 10 5 11 24 9 28 28 30 24 20 16 17 17 13 14 13 11 14 5 7 11 12 15
42 42 42 41 40 40 38 39 36 32 29 26 28 27 21 21 20 16 6 8 12 7 15 8 9 10 13 25 21 7 37 31 26 19 19 20 15 16 19 15 7 6 7 10 11 11 11
46 45 44 42 41 40 39 38 36 36 31 27 26 31 25 19 19 15 10 13 7 13 3 13 8 11 15 13 20 15 29 26 22 21 22 20 14 14 8 10 9 11 13 9 8 3 8
47 46 46 45 43 42 40 39 37 36 34 29 27 27 30 25 22 15 20 8 16 16 30 5 4 11 13 12 17 20 22 24 25 27 14 18 20 21 14 16 12 16 16 7 8 6 2
48 48 47 47 45 44 42 40 38 36 35 30 26 25 34 30 26 25 13 14 22 27 13 28 7 12 12 12 11 20 25 26 27 25 18 18 21 22 15 14 14 12 15 9 7 2 3
48 47 47 45 45 43 42 40 39 37 35 31 31 26 38 30 30 24 7 22 24 24 25 17 22 14 12 15 12 16 22 25 26 28 23 10 15 11 14 8 11 8 10 8 7 4 8
48 45 45 45 44 43 42 41 41 39 37 35 33 17 27 29 31 16 9 24 33 27 14 17 18 20 13 13 18 18 17 11 28 28 22 12 14 13 12 16 15 12 10 9 4 7 5
50 48 47 48 47 47 43 43 44 43 41 41 35 10 21 37 17 19 19 26 38 35 22 15 11 19 11 13 17 9 22 22 19 21 25 21 12 12 17 16 20 13 18 17 9 11 7
44 39 38 41 42 43 45 46 47 48 49 48 20 13 22 46 14 17 31 33 29 30 26 20 14 11 12 9 10 18 9 11 9 24 24 19 11 13 16 10 9 12 13 13 14 11 11
41 40 42 42 43 43 43 50 51 51 55 53 17 7 16 42 43 31 31 27 30 38 29 23 16 8 9 10 10 6 16 8 7 15 25 24 15 17 15 16 15 18 17 18 16 9 12
45 44 44 43 42 44 46 47 56 57 62 57 23 9 16 14 26 30 29 27 33 32 37 27 21 18 12 8 10 11 10 6 6 9 8 19 21 19 20 17 13 16 20 20 20 19 18
47 47 46 44 46 46 45 47 58 67 71 54 17 19 27 13 34 32 27 32 34 31 30 30 22 22 17 10 7 9 6 7 8 11 14 19 16 21 19 19 18 13 16 18 19 18 17
46 50 49 46 47 48 48 50 51 61 79 41 30 35 33 21 28 23 25 31 31 30 36 34 29 18 20 10 4 2 7 3 5 3 14 16 14 16 17 19 19 18 18 18 18 17 15
37 40 46 49 50 52 53 54 55 57 80 43 44 41 13 13 18 26 29 32 35 31 29 31 30 22 12 4 2 3 6 4 10 9 8 13 16 11 7 2 12 11 16 19 21 20 16
39 40 39 44 47 52 55 56 57 60 75 57 38 36 18 9 19 20 28 26 34 37 22 28 22 29 10 4 5 4 2 6 8 12 10 10 11 10 8 11 13 15 8 12 15 16 16
31 32 43 38 41 45 55 56 56 55 72 61 41 35 26 13 15 28 20 28 20 21 21 29 29 15 13 6 8 8 8 13 9 5 8 10 11 9 6 14 17 12 16 13 14 13 17
29 36 42 43 44 44 53 54 53 56 73 52 39 35 21 18 10 23 16 24 37 25 17 20 28 14 20 9 9 9 12 15 16 15 6 6 6 13 11 8 8 10 13 14 11 11 11
8 33 43 46 42 43 50 52 57 59 74 50 36 40 25 14 19 8 20 23 28 36 15 20 15 14 10 10 8 6 4 11 12 15 12 10 9 5 8 9 11 7 10 13 15 19 9
19 30 41 43 42 46 49 47 49 67 71 47 34 37 32 8 8 10 9 18 19 43 29 22 18 17 12 9 6 6 4 1 8 11 11 8 10 9 9 5 7 20 16 25 14 10 9

GFSGBSN_850_spd_066.txt.gz
Wind_Speed
17 23 25 22 21 20 19 22 20 21 22 22 23 22 21 21 22 25 26 27 27 27 26 22 22 21 23 10 20 17 15 14 13 11 14 13 16 17 15 20 18 12 14 16 22 14 18
19 18 17 22 28 26 23 20 20 21 21 21 22 23 22 22 21 20 21 23 24 26 25 24 22 21 15 23 11 12 13 13 16 14 13 15 16 16 20 19 18 18 16 16 19 23 14
21 20 21 20 19 18 26 25 21 22 22 22 20 21 21 21 22 21 20 20 21 21 23 21 19 18 19 34 15 12 11 13 14 16 15 15 16 18 16 16 18 19 17 17 19 20 13
23 23 24 23 23 23 20 20 27 23 21 21 21 21 20 22 21 21 21 19 18 18 20 19 16 15 19 18 13 18 20 18 16 16 16 16 14 15 19 20 22 17 17 16 14 6 15
26 26 27 26 25 26 25 23 19 25 25 22 22 22 21 21 22 20 20 18 17 17 18 15 15 9 19 12 19 21 18 20 17 15 15 14 11 17 17 16 14 16 15 19 16 10 14
29 29 29 29 29 28 27 27 25 22 22 27 23 22 21 20 21 20 18 14 14 18 13 9 12 11 23 15 10 14 19 20 19 15 15 15 11 13 14 13 15 16 11 20 12 9 12
30 31 31 31 30 30 31 28 28 26 23 22 26 21 20 20 20 20 15 11 10 6 13 14 10 12 17 6 9 9 15 20 21 22 16 21 13 16 19 20 22 16 13 15 4 4 4
33 32 32 32 31 30 29 30 30 29 27 23 21 24 19 20 19 19 12 8 7 8 13 23 31 31 32 20 10 17 17 21 24 21 19 16 19 19 21 21 7 12 14 15 2 2 3
34 35 35 35 33 31 30 28 28 31 29 26 21 19 21 19 19 22 19 21 11 14 11 24 33 33 39 30 30 20 25 28 22 21 21 20 20 20 21 11 9 13 14 3 18 4 13
38 39 38 35 34 32 31 31 29 27 27 27 23 21 21 17 18 14 17 15 15 8 7 14 16 11 35 30 28 33 27 30 17 23 23 24 23 13 16 10 13 14 10 11 11 10 7
41 40 37 36 36 36 34 33 31 29 25 26 23 22 20 21 10 6 0 11 9 6 6 6 12 4 9 28 7 29 34 30 25 22 17 21 20 19 14 15 15 13 6 11 10 12 14
39 39 39 39 38 37 36 35 33 30 29 25 26 22 22 21 20 16 7 6 12 6 11 6 10 8 12 26 31 16 35 32 31 24 20 21 20 19 18 15 13 10 9 9 12 11 11
41 40 41 42 42 40 39 37 34 31 28 29 25 23 24 21 21 14 13 6 7 11 10 12 14 11 16 18 25 21 27 25 23 22 20 18 22 17 16 16 18 9 10 7 6 8 8
42 41 40 41 42 41 41 39 36 33 29 28 28 25 25 25 21 15 12 6 15 21 29 5 19 16 17 17 19 24 21 23 24 21 14 16 16 24 13 17 14 14 14 8 6 3 4
45 44 44 44 42 43 42 40 38 35 31 28 28 29 26 26 26 19 7 14 15 27 24 28 9 11 15 17 11 21 25 22 24 24 21 19 21 20 16 15 18 14 13 16 9 9 5
47 46 45 44 43 42 43 41 41 38 34 30 32 30 32 26 28 21 6 17 27 29 31 21 28 13 13 17 16 17 22 19 22 24 17 16 13 22 21 19 18 16 9 10 6 4 6
47 49 48 47 45 43 42 42 41 40 36 32 34 17 23 30 29 17 11 28 34 30 38 23 25 20 24 16 17 17 13 16 19 17 26 25 15 15 17 16 18 11 11 11 13 7 1
47 48 48 46 47 46 42 42 42 42 39 38 34 9 24 39 17 11 24 25 37 29 39 28 24 25 18 20 13 19 21 16 19 20 23 25 9 10 16 17 16 17 17 15 6 8 5
44 43 44 41 41 41 41 42 43 45 46 46 20 15 28 46 13 19 23 33 28 30 25 24 28 21 14 19 14 15 14 10 5 19 20 20 16 10 15 16 16 19 14 14 13 11 11
42 40 39 40 39 39 41 44 47 47 51 51 19 6 14 39 39 27 25 27 28 43 31 26 23 22 19 16 12 8 17 5 5 7 33 22 17 15 11 15 14 14 16 19 18 7 7
43 42 40 39 39 40 40 45 46 52 55 58 24 10 18 15 23 29 25 14 27 30 33 29 22 20 23 15 15 15 10 10 3 5 5 4 16 17 17 19 20 21 18 19 19 13 15
40 40 41 41 43 42 44 43 47 48 54 54 16 12 30 11 27 26 25 28 25 30 29 34 26 18 17 17 16 19 18 9 5 7 9 6 12 17 16 19 19 14 19 22 20 19 16
43 44 44 44 45 45 47 50 49 51 62 32 29 39 29 21 22 17 26 30 31 23 31 37 30 19 12 21 4 11 9 5 4 3 10 9 7 12 15 17 18 17 17 14 14 15 15
41 40 40 42 43 48 48 48 50 52 57 35 45 41 15 12 15 24 30 32 29 28 24 30 37 21 22 17 9 13 4 5 2 2 5 4 11 9 6 3 22 11 13 15 15 16 15
36 36 37 39 41 43 50 49 53 54 53 44 37 38 22 11 19 21 26 28 31 29 24 24 38 40 18 5 6 7 3 3 7 2 3 8 8 4 6 12 12 18 12 13 14 16 16
34 36 37 41 43 42 50 51 53 54 51 48 43 46 25 13 12 33 17 27 16 18 18 26 37 24 18 5 4 9 6 8 8 2 7 13 9 10 4 12 14 9 12 8 9 11 14
36 42 42 40 41 47 51 53 54 53 50 43 43 44 29 8 10 15 15 20 31 22 14 18 25 21 21 5 3 7 8 10 8 9 5 7 6 13 8 6 6 7 12 16 15 7 14
34 37 38 39 38 46 49 51 51 49 51 48 37 51 24 6 14 6 26 20 30 28 15 19 17 6 11 9 7 6 5 7 8 14 13 13 7 7 5 7 13 4 8 19 9 15 12
18 3 31 35 38 38 45 51 52 51 54 47 29 41 23 12 8 9 25 20 26 34 22 21 20 11 13 7 6 6 3 2 7 8 12 10 13 8 7 7 6 17 11 12 11 9 11

GFSGBSN_850_spd_069.txt.gz
Wind_Speed
16 15 14 15 22 24 23 22 21 19 19 19 20 21 21 19 19 19 19 19 21 22 22 24 23 20 22 9 25 19 16 12 12 13 15 16 12 15 9 9 17 9 11 15 21 20 19
19 18 18 17 18 16 19 24 25 22 19 19 20 20 21 21 20 20 19 19 18 19 20 21 19 18 15 16 15 6 13 16 17 16 18 15 13 17 21 17 9 21 20 15 21 20 23
20 19 19 20 20 20 19 19 18 22 23 19 20 21 20 20 22 22 20 19 17 17 17 18 16 14 16 38 12 12 16 14 14 14 16 15 16 19 18 10 17 20 12 10 11 20 12
23 22 23 24 23 22 21 21 21 19 19 23 20 19 20 22 21 24 22 21 18 16 17 16 14 13 15 25 18 21 26 21 15 17 18 17 19 23 20 14 16 8 9 6 12 11 17
25 26 26 26 26 26 26 23 23 21 19 18 22 22 20 21 21 23 24 21 18 16 18 13 15 6 15 8 16 10 25 22 19 16 19 18 19 17 9 5 6 5 10 13 19 17 6
27 27 28 28 28 28 27 26 25 24 22 21 21 20 22 19 20 22 26 21 13 18 16 10 11 9 16 8 10 15 9 20 21 17 16 16 8 4 3 2 9 8 9 11 7 1 6
28 29 28 28 28 28 28 28 28 27 25 23 22 21 19 20 18 19 22 16 6 4 7 14 13 13 17 10 14 8 11 19 17 18 10 14 4 13 13 13 17 16 18 8 5 5 7
32 31 29 29 29 29 29 28 26 24 25 24 24 21 20 18 16 17 18 12 9 9 14 20 28 34 37 30 14 14 12 19 16 14 10 8 18 15 16 16 17 18 12 9 2 7 2
35 33 31 31 31 31 30 29 26 24 23 23 25 22 19 17 17 19 20 19 14 17 8 17 31 34 41 26 23 32 20 26 11 12 16 15 12 18 19 18 18 12 5 7 6 5 7
35 33 33 34 34 33 32 29 27 25 23 23 21 22 18 15 14 9 12 10 7 11 5 8 11 15 28 24 11 37 30 24 9 16 17 14 19 19 19 20 14 5 10 10 4 4 3
34 34 35 35 36 34 33 30 28 27 26 23 21 20 17 16 11 7 11 5 6 7 4 7 7 10 9 26 10 17 40 23 18 18 12 14 16 22 21 19 11 9 5 1 5 5 4
36 37 38 37 35 33 32 32 30 29 27 25 22 22 18 18 21 18 14 18 1 4 10 7 8 8 8 27 12 5 24 31 10 14 10 19 22 15 20 8 7 8 2 3 3 1 4
41 41 40 38 37 35 34 34 33 31 28 25 23 23 22 20 24 10 10 12 5 6 7 9 5 9 9 9 17 9 11 13 11 14 18 18 19 21 13 9 8 6 2 3 4 2 5
44 43 42 40 38 37 34 33 33 33 30 26 24 24 25 24 21 14 7 2 12 16 26 8 2 13 9 8 16 15 9 15 16 10 5 13 14 18 8 13 7 6 8 5 5 3 3
43 42 41 41 39 39 38 36 34 33 31 27 23 26 28 25 22 20 9 8 16 14 15 21 17 9 9 11 6 14 15 14 18 18 13 11 11 2 12 6 9 5 6 7 6 2 4
43 42 42 41 42 41 39 36 34 33 32 29 28 29 33 27 22 22 10 26 15 24 16 11 7 11 4 10 9 13 9 10 14 21 21 4 6 13 21 9 9 7 4 3 3 4 3
44 43 43 42 42 41 41 40 37 35 34 31 30 15 19 31 24 21 19 21 18 24 25 9 12 14 19 17 11 7 7 10 15 17 19 16 7 11 9 13 14 5 9 4 6 6 5
44 44 44 44 43 42 42 41 40 37 35 34 31 7 13 38 17 16 22 26 16 15 21 17 16 20 18 18 15 15 11 9 16 7 21 17 3 12 17 18 18 14 10 8 5 5 4
42 42 42 41 40 40 41 42 43 40 40 41 20 13 23 47 14 20 18 24 26 18 19 11 12 10 15 16 9 3 10 7 14 11 11 8 5 7 11 15 16 17 7 10 8 4 6
41 40 40 40 38 37 39 38 42 42 43 48 17 6 13 42 37 19 20 20 20 26 20 25 16 19 21 15 14 6 7 1 4 8 28 14 9 16 14 10 6 4 7 9 8 4 4
36 38 38 36 35 35 36 35 37 41 44 55 20 8 18 15 25 20 19 11 23 18 29 15 11 21 18 13 6 3 4 6 7 7 7 9 15 17 16 17 18 19 14 15 16 11 7
37 37 37 38 40 39 38 36 40 42 47 55 15 9 23 1 20 22 20 24 22 24 14 28 22 17 12 14 7 5 8 5 7 7 7 8 6 10 16 14 18 14 15 14 12 8 5
40 40 39 39 39 38 39 40 41 45 53 49 30 37 28 20 15 16 28 27 21 16 27 24 20 15 17 17 9 1 7 16 8 6 10 6 5 6 12 14 15 6 18 13 14 11 10
41 41 42 42 43 44 43 42 43 46 50 36 38 38 7 9 13 21 19 21 22 21 19 16 29 17 35 14 2 6 14 15 17 10 6 6 6 2 4 1 15 6 10 13 15 6 5
41 38 40 43 43 43 45 47 47 48 50 48 23 34 15 4 20 12 21 22 25 31 19 21 27 33 24 11 2 2 3 3 8 5 7 1 5 3 9 10 7 8 4 5 6 8 5
44 43 37 36 38 41 43 45 46 50 49 52 29 39 28 4 13 28 19 22 15 19 18 25 28 23 24 4 2 5 5 7 6 3 1 0 5 4 2 5 14 2 6 14 4 5 5
33 38 39 40 39 41 41 44 47 49 48 50 30 39 19 15 11 33 15 19 29 18 13 10 14 11 23 3 6 4 4 4 7 10 4 2 1 5 2 2 6 6 8 14 5 6 9
30 32 36 40 42 42 42 41 45 47 46 48 25 48 28 21 18 17 27 16 24 27 12 4 6 10 2 5 6 4 4 6 4 4 7 5 5 3 3 5 13 6 4 7 6 17 22
26 24 31 43 47 45 45 42 42 48 46 47 26 34 35 16 11 23 31 26 21 11 16 27 9 3 5 4 5 4 3 1 6 3 4 5 6 5 7 4 6 12 11 18 4 5 6

GFSGBSN_850_spd_072.txt.gz
Wind_Speed
16 16 13 13 14 14 16 18 20 20 19 18 17 19 20 21 22 21 21 20 18 17 17 18 18 18 18 9 29 15 20 14 10 11 12 13 13 7 4 5 7 6 10 20 20 25 11
16 17 17 15 16 17 17 16 15 14 16 20 20 16 19 23 22 22 22 20 20 18 16 17 16 13 9 11 12 9 15 15 14 14 16 16 11 15 8 9 4 12 14 17 21 21 14
17 18 18 19 19 19 17 18 19 16 15 15 18 20 18 19 22 24 24 21 21 19 17 17 14 10 13 33 16 14 13 18 19 16 14 19 16 16 4 7 14 8 9 10 13 10 9
20 20 21 21 20 21 20 21 20 19 18 17 16 16 21 20 22 24 25 24 20 19 18 17 14 8 16 24 21 25 25 25 21 17 15 12 13 17 16 17 11 6 4 4 7 4 18
22 22 22 22 22 22 20 21 20 21 20 18 18 18 17 20 22 23 26 23 20 18 19 14 13 8 17 11 13 5 15 32 25 19 17 14 18 22 14 2 4 2 5 6 10 12 9
23 23 23 23 23 24 23 23 23 22 22 21 18 18 18 18 19 20 25 23 15 15 16 11 9 6 19 17 4 10 10 15 21 13 17 15 10 5 2 4 8 6 4 5 7 12 4
25 26 26 26 26 25 24 24 22 22 22 21 20 17 18 18 17 16 23 20 5 4 5 12 11 13 18 11 15 16 6 11 19 12 9 6 3 14 13 10 6 5 6 8 13 21 5
26 27 27 27 27 25 23 24 23 23 22 21 19 19 17 17 15 13 16 16 10 4 14 22 27 36 40 35 16 26 9 14 10 10 7 4 18 16 7 7 10 11 12 15 15 14 3
29 28 29 26 25 24 25 24 23 24 22 19 17 17 17 16 14 11 12 13 13 16 7 14 29 31 41 30 28 35 15 23 8 8 9 15 6 17 14 13 13 15 13 13 16 5 5
29 31 30 27 26 26 26 25 25 24 22 19 16 16 13 12 11 5 2 4 11 14 4 7 9 14 27 19 11 38 40 18 8 17 11 9 22 12 10 14 13 12 12 14 6 2 4
31 31 28 27 27 27 27 27 25 24 21 19 18 14 14 13 8 12 6 10 13 5 4 4 6 5 13 18 9 20 37 27 11 11 10 9 10 15 16 19 13 12 13 9 6 4 1
30 30 30 30 30 30 29 27 26 24 23 21 19 16 15 15 17 18 13 15 4 2 10 6 6 7 9 17 4 3 16 16 11 9 8 13 17 10 15 14 14 16 7 1 5 2 3
33 32 33 33 33 33 32 29 28 25 24 22 18 17 19 19 23 12 6 3 3 7 4 5 4 3 5 8 7 1 6 18 10 10 18 9 18 12 8 7 10 14 5 1 3 3 6
38 35 34 35 36 36 34 32 29 28 24 23 21 18 21 24 17 12 8 4 12 13 19 11 3 11 5 5 6 5 4 9 16 3 8 11 6 13 9 18 7 8 8 5 5 4 4
39 37 36 38 37 37 34 32 29 27 25 22 19 22 25 26 21 16 12 11 10 13 4 15 25 15 6 4 4 9 9 5 12 18 6 10 9 6 11 13 12 5 5 8 7 2 2
38 38 39 39 38 36 35 35 33 31 28 26 23 26 31 26 24 20 9 23 11 4 7 8 4 5 6 9 11 6 8 8 9 17 11 3 2 13 9 2 5 8 7 4 1 5 3
42 43 42 41 40 40 38 35 34 33 29 25 24 15 17 29 26 18 17 13 22 23 10 6 8 6 6 4 5 8 8 6 16 11 17 10 2 5 2 7 6 1 3 3 5 6 4
45 43 41 41 42 41 40 38 35 34 33 28 28 6 21 34 15 10 18 11 15 16 16 15 8 11 10 7 7 10 10 8 13 14 17 12 5 6 9 5 5 7 11 9 5 5 5
44 42 41 41 39 39 40 40 38 37 35 32 19 10 32 43 14 17 12 21 23 18 13 6 7 10 8 4 1 9 14 13 24 8 12 8 6 3 4 9 7 8 9 9 6 5 8
39 38 38 38 38 38 38 38 39 39 38 38 13 6 11 35 14 19 16 18 20 26 25 26 14 13 8 7 9 8 8 8 23 7 16 19 6 17 14 7 2 5 9 14 10 5 6
36 35 35 34 34 33 35 37 37 38 38 40 20 8 12 9 19 14 20 11 23 16 20 13 13 20 13 6 5 5 5 5 13 11 4 7 6 8 9 11 9 14 15 8 12 8 9
30 30 31 32 33 35 36 34 37 39 39 45 15 8 13 4 22 24 20 19 18 22 16 17 18 7 18 19 11 12 5 3 2 12 7 4 2 5 9 13 10 17 18 11 10 7 9
33 32 33 33 34 35 35 38 39 37 41 38 31 24 16 14 13 18 30 24 18 13 22 36 16 19 19 15 12 9 7 5 3 5 6 3 1 5 6 13 6 10 17 16 10 8 6
34 35 37 37 37 38 38 38 39 42 44 41 23 18 10 6 17 21 17 22 25 22 20 15 29 11 13 13 10 7 8 6 6 9 6 9 4 2 4 5 8 7 13 17 18 19 11
38 38 38 39 39 40 41 42 42 43 46 47 34 23 13 10 16 14 19 22 25 32 21 26 29 21 21 15 3 4 4 3 8 8 8 6 6 4 5 7 4 7 10 15 12 9 6
39 39 40 40 43 42 41 45 45 45 45 48 29 42 10 8 13 31 17 24 14 17 19 24 28 20 13 4 3 6 4 4 2 6 4 6 6 7 2 6 8 4 19 15 4 6 6
32 28 32 38 37 42 42 45 47 47 46 46 25 32 20 2 10 37 19 20 18 14 5 8 22 13 19 3 3 4 4 3 3 7 4 2 4 4 2 2 5 7 7 16 10 7 11
27 28 31 35 37 39 42 40 44 45 46 46 30 29 31 2 9 42 32 25 19 19 4 6 3 6 2 6 6 4 4 6 4 4 6 10 6 3 1 2 4 6 7 6 4 9 9
23 27 30 28 37 39 44 40 40 42 42 43 25 27 34 20 8 23 31 36 37 38 24 16 7 6 10 4 1 3 1 1 5 6 2 3 6 6 8 6 4 2 4 4 9 16 14

GFSGBSN_850_spd_078.txt.gz
Wind_Speed
14 16 16 15 15 15 15 15 14 15 16 16 15 15 17 20 22 23 23 21 22 22 23 23 23 23 22 10 19 13 13 10 10 11 11 11 11 7 5 5 5 5 5 13 17 19 18
14 16 15 15 15 17 17 18 18 18 18 18 18 18 18 19 20 21 23 22 20 20 22 22 20 20 13 7 10 8 10 17 23 18 10 14 6 10 5 5 6 4 6 13 14 20 15
17 17 18 18 17 17 18 18 19 19 19 19 20 19 20 20 21 22 21 22 22 19 19 21 18 17 16 32 15 17 23 20 12 15 18 17 12 7 2 2 7 6 7 8 7 9 7
19 19 18 19 19 19 18 19 19 19 19 19 20 19 21 22 23 22 21 23 23 22 21 21 20 13 14 29 26 30 26 31 26 19 18 13 10 7 5 8 4 2 1 3 2 5 2
21 20 21 21 20 19 18 18 18 18 18 18 19 18 20 21 23 23 22 24 24 26 24 20 16 10 17 16 13 3 4 7 10 21 19 12 7 7 4 4 3 2 5 5 9 5 3
24 24 23 22 22 22 21 20 20 18 16 16 16 18 18 19 21 22 24 24 22 15 10 5 7 6 19 13 7 5 3 5 4 14 13 14 9 4 2 4 7 5 5 5 7 2 2
25 26 26 24 23 23 22 21 20 17 16 16 17 17 18 18 18 18 20 22 7 4 4 10 8 9 7 10 8 7 6 7 6 12 7 9 4 9 17 9 5 4 4 4 5 4 4
26 27 27 25 24 23 21 21 20 17 16 17 16 16 16 16 16 16 16 6 6 10 15 23 31 37 33 19 8 12 6 5 6 6 6 2 11 19 8 10 8 6 4 11 12 11 8
28 28 28 26 26 24 22 22 19 17 18 19 16 15 13 15 15 15 10 2 8 13 7 14 20 20 28 32 20 30 18 6 6 6 8 15 4 11 11 7 10 13 13 10 10 7 5
28 29 27 26 26 24 25 22 18 18 19 17 15 16 13 13 13 9 6 7 11 13 4 7 5 5 6 13 7 28 25 20 6 10 7 9 13 5 12 12 12 7 11 10 7 2 4
28 29 29 27 26 25 26 22 20 20 18 16 14 16 14 13 9 7 2 8 10 6 5 0 3 1 7 10 5 0 23 18 17 8 7 8 6 16 7 8 9 11 9 10 6 6 1
29 29 29 28 27 27 26 24 21 20 19 17 16 16 13 14 19 11 9 10 8 1 8 5 3 3 0 6 5 3 2 8 11 6 4 6 3 8 9 9 13 1 4 4 1 2 4
30 31 30 30 29 28 27 25 22 20 21 19 20 17 17 17 19 8 7 2 1 5 6 4 3 3 6 2 3 3 4 9 5 6 13 3 5 2 3 4 8 6 4 2 1 1 6
32 32 32 32 32 30 28 25 23 21 22 22 21 18 20 21 19 11 5 2 10 4 6 4 4 6 2 3 1 4 4 5 7 2 2 12 7 11 6 8 7 11 10 5 6 5 4
35 35 33 32 31 30 27 27 24 22 22 21 22 21 25 24 22 17 8 7 6 4 5 5 6 2 4 3 2 7 2 5 6 8 7 6 6 6 8 8 12 6 13 8 5 2 2
34 34 35 34 32 31 30 27 24 23 23 21 23 24 29 26 25 22 4 13 7 3 4 5 3 4 4 6 6 5 4 2 4 6 6 4 3 6 4 6 13 8 7 4 1 5 4
38 40 37 35 34 31 27 26 26 25 23 21 23 16 20 30 29 20 12 8 9 19 6 4 3 4 3 3 4 3 3 4 6 7 4 3 1 5 4 6 9 5 14 3 4 5 6
38 38 38 38 36 34 31 30 30 29 26 25 25 8 21 26 15 5 14 8 11 2 6 6 2 3 3 4 3 2 3 5 17 5 7 4 5 5 10 5 4 9 9 10 5 4 2
41 40 40 39 39 39 38 37 35 33 31 28 17 14 28 34 11 11 6 14 13 3 4 1 5 6 0 3 4 5 4 3 10 7 5 9 4 3 6 12 3 5 4 5 4 4 6
42 43 42 42 42 41 39 38 36 35 33 33 8 6 10 30 17 17 13 16 11 19 15 1 3 2 2 2 3 4 4 5 7 8 6 10 5 8 11 5 4 5 6 5 5 4 5
43 43 39 36 35 34 34 35 34 33 34 33 18 6 10 6 12 16 18 11 18 13 16 18 4 7 3 3 4 4 7 10 9 7 4 2 6 9 14 11 16 5 5 7 9 6 9
34 34 32 33 35 34 29 30 33 34 36 39 12 6 8 1 21 16 17 18 20 17 12 11 11 7 15 14 14 13 4 0 4 4 3 3 6 10 10 9 11 12 11 10 7 5 4
28 27 27 27 27 26 24 24 30 35 36 31 22 19 8 11 10 12 18 20 16 14 16 19 18 13 9 16 21 26 27 30 16 13 8 5 1 5 3 5 6 7 13 7 4 6 5
30 30 30 30 30 30 29 28 28 33 40 36 21 22 9 6 14 17 16 19 16 19 12 17 23 14 26 20 13 16 19 22 20 18 15 8 4 1 4 1 3 5 7 13 15 13 9
31 32 33 33 31 30 31 30 30 30 31 39 18 27 16 9 10 16 18 19 23 19 20 18 20 28 24 11 3 4 4 3 6 10 13 15 7 3 2 4 5 4 2 5 6 8 7
37 36 35 35 34 35 35 34 32 33 33 32 35 20 19 5 10 18 15 20 11 13 11 19 24 15 11 2 1 3 2 4 4 4 7 11 10 3 3 3 3 6 6 0 5 5 2
37 38 37 36 36 36 37 37 37 37 36 37 33 37 11 4 16 24 8 14 16 15 5 5 14 11 13 3 6 4 3 4 3 4 4 4 3 10 1 3 5 10 7 4 4 6 3
28 29 33 37 38 38 40 39 40 39 39 39 38 35 33 4 9 22 26 22 17 23 6 9 5 5 3 5 2 3 3 5 4 5 0 5 5 4 3 2 5 3 3 4 5 3 3
32 31 31 31 34 35 36 40 43 45 41 41 29 33 31 13 2 18 18 21 39 39 28 24 12 8 12 4 4 2 2 1 4 3 2 3 5 2 6 5 4 4 8 3 7 7 6

GFSGBSN_850_spd_081.txt.gz
Wind_Speed
14 13 12 13 16 15 15 15 15 16 17 18 17 17 19 20 21 21 21 21 20 20 20 20 20 21 18 8 18 19 16 7 8 14 17 14 16 9 6 7 7 6 6 11 16 13 13
16 15 16 15 16 15 14 16 16 16 17 18 18 19 20 21 21 21 20 20 20 20 20 19 18 21 13 6 13 9 13 13 15 10 13 15 7 13 5 6 8 5 8 12 11 10 9
17 17 16 17 17 16 15 16 18 19 18 18 19 19 20 21 22 21 21 20 20 21 20 20 19 21 18 28 18 14 17 14 12 14 20 18 14 7 5 3 7 4 8 10 12 17 10
19 17 19 17 19 18 16 17 17 18 17 17 18 19 19 21 23 23 22 22 21 22 22 22 22 17 14 21 22 25 27 30 28 23 19 14 13 11 7 3 1 2 2 5 2 2 3
20 19 21 21 20 18 18 18 18 19 19 16 17 17 19 20 22 24 24 23 22 23 21 17 14 11 15 11 8 1 5 12 9 16 23 10 13 6 4 7 5 3 9 8 8 4 3
22 20 23 22 22 20 20 19 20 19 17 16 15 17 19 20 21 23 24 22 19 14 10 2 5 4 14 6 4 5 3 3 5 9 14 14 7 5 3 8 13 9 7 5 9 1 2
24 22 23 24 24 22 21 21 20 19 17 17 16 18 17 18 18 21 23 16 5 4 3 8 7 10 10 5 6 7 10 0 6 11 7 8 9 14 27 15 4 7 7 9 6 4 2
24 25 24 23 24 21 20 22 20 19 17 15 16 19 17 17 16 20 18 5 4 10 15 21 25 36 38 20 8 11 10 8 8 6 7 4 15 19 5 10 13 10 7 18 11 8 7
26 27 23 26 26 23 23 24 20 21 15 15 19 17 15 16 15 18 11 4 3 18 7 11 11 13 16 25 17 19 11 8 6 9 15 14 5 14 12 9 12 16 18 16 14 6 9
23 24 23 24 26 23 22 24 22 23 17 18 17 14 12 14 14 6 5 6 6 16 4 5 4 3 5 9 7 20 33 15 5 14 9 12 14 7 16 17 16 17 12 15 14 7 6
23 24 25 25 26 25 25 22 23 22 19 18 15 11 11 11 11 9 6 3 8 8 5 2 3 1 6 8 10 1 13 16 19 6 5 6 6 17 11 12 15 14 6 12 16 12 7
29 28 25 26 24 25 24 24 24 23 21 18 15 13 14 14 18 15 9 8 7 2 7 2 4 3 3 7 3 3 4 8 7 11 6 4 2 7 10 13 16 3 8 1 1 4 7
23 26 26 24 26 24 24 25 24 22 20 18 16 17 15 15 17 9 5 4 2 5 3 2 2 1 5 1 1 2 4 8 4 6 10 10 14 3 3 6 7 7 5 2 3 5 8
27 27 28 27 25 27 27 26 24 21 19 19 18 19 20 19 20 13 2 2 10 2 3 3 3 3 2 3 1 3 4 5 6 3 2 10 7 16 9 9 8 15 11 5 7 5 6
31 28 26 30 31 28 27 24 23 21 20 17 17 22 24 22 21 18 9 7 4 4 3 4 3 3 3 4 2 4 2 2 2 7 6 4 5 4 7 9 16 7 11 15 4 2 3
27 30 32 29 28 29 28 26 24 23 18 17 18 19 27 23 23 20 5 11 6 1 3 3 1 4 2 5 4 5 2 3 4 4 6 3 4 6 4 8 12 9 11 6 8 7 11
30 31 32 32 32 34 31 26 24 19 15 16 18 11 22 23 22 18 12 9 6 10 2 4 3 2 2 3 3 1 2 1 6 7 6 4 1 3 3 5 13 9 10 4 6 7 8
33 35 34 32 32 31 29 27 23 20 17 18 18 6 16 22 16 4 9 10 6 1 7 5 1 1 2 2 1 1 3 1 6 3 5 8 3 6 11 4 2 12 18 18 7 5 5
32 33 34 33 32 32 30 29 27 27 24 23 13 18 16 29 11 15 2 6 14 5 5 4 8 5 2 1 2 2 4 3 6 7 5 7 3 3 3 10 6 7 7 14 17 5 14
34 35 36 36 36 35 35 35 35 35 32 30 14 5 14 30 20 15 17 6 7 18 8 1 0 2 3 2 4 3 3 4 10 12 7 8 4 6 5 8 11 6 8 10 16 10 15
38 37 36 36 36 38 38 37 37 37 37 35 20 6 11 6 15 11 15 11 14 10 15 13 6 6 2 2 2 6 8 11 10 19 7 4 8 10 16 19 20 21 15 14 16 17 12
31 32 32 31 31 30 29 30 31 32 34 41 13 6 5 10 15 19 21 19 19 16 11 12 10 10 14 15 16 14 8 5 4 4 6 5 2 3 10 15 19 21 21 19 15 11 8
26 25 25 24 24 25 25 25 27 31 36 29 28 20 14 10 7 10 10 19 20 14 17 19 17 9 11 20 23 27 20 17 12 10 9 4 2 3 6 10 18 12 21 18 17 14 10
28 28 29 27 26 25 24 23 22 30 38 37 21 19 8 4 12 13 13 15 17 21 14 19 15 13 7 12 9 12 11 16 16 17 16 7 4 3 6 7 4 5 3 10 17 14 12
31 31 29 28 27 26 25 25 27 26 30 44 24 21 20 9 7 12 15 16 16 15 16 16 24 24 10 7 3 4 4 3 11 17 18 16 7 4 2 2 5 12 3 2 5 8 8
29 30 31 32 31 33 30 30 28 29 29 29 26 27 17 8 14 16 15 21 11 10 7 14 18 12 13 3 2 3 2 3 3 2 12 15 14 5 2 3 3 9 3 5 1 4 0
34 33 32 32 33 34 31 31 32 31 31 31 28 29 11 8 16 26 14 12 15 14 4 5 15 11 12 3 3 4 4 3 3 4 3 8 8 12 8 5 6 8 4 7 2 3 1
33 33 33 32 27 34 35 35 35 35 35 35 32 30 26 2 4 24 27 20 18 22 6 10 6 6 4 6 4 4 3 5 4 6 1 5 8 5 6 5 5 5 5 3 3 6 3
32 31 30 31 31 33 32 37 36 38 37 36 26 31 28 14 4 13 22 26 35 37 27 24 12 8 10 3 4 3 3 2 3 3 1 3 4 3 6 5 2 7 9 11 10 12 7

GFSGBSN_850_spd_084.txt.gz
Wind_Speed
13 16 15 15 13 14 15 12 12 13 14 16 16 16 17 18 19 18 20 19 19 20 19 19 20 22 18 7 18 19 20 12 6 14 12 15 15 17 16 13 17 19 18 17 18 19 18
16 16 15 16 14 16 14 14 15 14 15 17 17 16 17 19 20 20 21 21 21 21 19 19 19 20 9 15 17 14 11 10 14 13 15 15 9 15 13 17 15 8 15 19 18 18 17
17 17 16 17 17 15 15 15 15 16 14 16 15 16 17 18 18 19 21 22 22 20 20 21 22 17 14 28 18 15 13 10 11 14 11 12 12 9 5 13 18 14 16 18 20 22 19
17 17 16 17 19 18 17 16 16 17 16 17 17 15 15 18 19 20 22 23 22 21 21 21 18 10 15 20 21 24 24 27 25 21 16 10 11 14 17 11 10 11 14 16 4 6 6
19 19 19 18 19 20 17 17 17 18 19 18 15 15 15 17 19 20 24 24 22 22 20 16 10 9 14 13 12 7 17 19 18 20 23 11 10 16 15 16 17 15 15 17 13 12 10
18 20 23 21 19 20 20 18 17 19 19 18 15 15 15 17 18 20 24 25 18 14 8 2 4 6 14 5 4 5 6 10 6 9 8 17 13 11 13 15 19 17 18 15 16 3 11
26 24 22 20 21 19 22 21 19 19 18 18 14 14 16 17 16 19 23 17 6 5 5 10 6 9 11 9 9 8 8 9 10 11 9 25 15 18 22 23 20 15 15 18 17 2 8
17 20 21 21 22 20 18 20 18 20 18 18 13 13 16 17 15 16 16 7 2 6 15 19 27 32 31 17 11 10 10 11 11 12 12 11 20 21 20 18 17 20 19 20 18 5 10
19 18 18 22 19 20 22 22 19 20 17 18 13 15 15 14 14 12 9 3 4 12 8 14 15 14 14 19 16 19 11 12 12 16 18 16 6 19 19 18 18 19 21 20 17 11 14
24 23 21 19 18 18 18 17 20 20 18 17 15 14 11 11 9 4 4 3 3 12 5 6 6 5 6 7 8 15 19 11 12 16 16 13 19 10 21 24 19 20 19 19 18 16 13
26 23 21 19 20 18 19 15 17 18 17 17 15 13 10 8 7 5 2 4 6 3 6 5 5 3 6 7 4 1 9 18 16 10 8 8 8 19 18 20 19 18 14 14 14 14 15
21 22 24 25 23 21 17 18 17 18 19 16 15 13 13 11 13 14 8 6 5 4 9 3 4 5 4 7 2 6 4 5 8 18 16 13 2 6 19 17 15 6 11 10 7 8 10
22 24 18 21 21 19 17 16 15 17 19 16 14 13 15 12 6 5 5 4 5 7 3 5 2 3 4 3 5 7 7 9 7 7 14 19 21 11 7 7 13 16 10 5 8 7 9
25 25 23 20 21 20 16 16 18 20 17 15 14 15 17 18 15 8 6 7 11 1 5 2 2 6 1 1 2 5 8 6 10 7 4 9 8 25 16 22 12 18 17 7 9 9 7
25 24 25 25 20 18 20 24 20 18 15 14 15 15 21 20 19 17 10 10 5 10 3 4 4 5 4 2 2 2 2 2 4 7 5 3 6 4 11 22 23 15 19 16 15 13 8
25 23 21 21 26 24 22 20 20 18 16 14 13 13 21 19 19 20 6 13 14 3 4 3 4 3 2 3 1 2 2 5 3 6 6 2 5 6 8 12 19 20 7 10 11 7 11
23 24 24 24 22 24 23 20 22 23 17 13 13 7 12 12 18 15 5 8 18 13 4 5 3 2 2 2 2 3 3 4 6 7 6 4 4 4 5 9 15 12 14 12 10 14 11
27 24 25 26 26 25 26 26 25 20 16 16 15 5 9 14 11 5 6 11 5 9 18 8 4 4 4 3 4 4 3 2 6 6 4 4 3 8 13 3 1 9 18 19 12 13 10
29 28 27 26 26 25 25 23 21 19 21 16 10 11 13 16 8 12 7 5 23 14 7 9 8 8 5 5 5 6 6 3 5 5 6 5 1 5 8 10 14 11 11 14 18 17 20
29 29 28 28 28 28 28 26 25 24 25 25 8 4 16 16 20 16 21 16 6 19 15 13 3 7 7 9 9 5 5 3 3 9 3 4 5 6 8 7 9 8 14 15 17 15 17
32 32 32 32 32 32 32 32 31 30 29 29 17 9 13 6 14 17 19 10 17 6 16 12 8 12 11 10 9 11 12 12 11 12 11 6 11 12 14 17 17 17 18 18 22 23 21
31 30 28 26 26 27 28 27 32 36 36 39 16 5 22 23 25 18 18 21 21 22 13 14 15 13 16 14 12 10 9 12 8 3 4 2 3 6 11 15 16 17 22 23 25 24 23
25 23 23 21 19 18 19 24 26 30 33 32 29 25 6 18 18 9 16 20 23 18 17 23 16 14 13 14 13 14 17 17 14 11 6 4 2 3 6 3 11 17 11 19 25 25 23
22 22 22 22 22 22 22 21 21 27 32 37 22 21 14 11 13 17 20 23 23 24 23 17 21 15 2 1 9 16 16 17 17 17 15 9 10 4 6 10 13 5 18 26 22 21 21
25 25 26 26 27 26 24 23 24 23 23 39 26 24 17 12 14 21 20 18 18 21 23 19 20 14 10 2 4 6 6 8 14 22 20 18 12 5 5 10 10 2 6 11 15 11 15
24 24 24 24 24 25 25 25 26 26 27 25 21 33 20 13 19 21 15 24 14 14 7 18 7 14 11 3 3 4 4 3 3 5 15 19 16 10 6 7 4 3 4 6 18 5 8
30 30 29 28 28 29 30 29 29 28 28 28 26 29 32 6 22 29 19 16 21 15 6 5 10 7 17 5 5 5 4 3 4 4 5 13 12 15 12 5 6 5 8 7 4 2 16
30 29 30 31 31 30 29 30 31 30 32 32 31 28 14 15 17 21 28 31 23 23 9 9 7 5 3 7 6 5 5 8 7 8 4 7 9 8 10 6 8 15 2 6 2 19 9
25 27 28 30 30 31 32 28 32 34 33 34 24 25 27 8 6 16 24 29 31 29 24 21 12 9 11 7 6 4 5 3 9 4 3 6 6 3 5 5 5 12 9 8 13 14 14

GFSGBSN_850_spd_087.txt.gz
Wind_Speed
14 13 15 14 15 15 15 18 13 14 15 15 17 17 17 17 18 19 19 20 21 21 20 20 21 21 20 8 25 19 21 21 12 7 14 19 22 23 22 16 22 21 20 24 23 20 22
16 17 17 17 16 17 16 15 16 16 16 16 17 16 17 17 18 19 19 20 21 21 20 21 20 19 12 18 10 11 14 9 12 14 15 17 19 19 20 20 20 18 21 23 26 26 23
19 18 18 17 14 16 14 17 18 19 18 17 16 16 16 16 18 19 21 22 22 21 21 20 20 18 16 31 10 8 11 9 10 17 21 19 18 12 12 15 21 21 19 20 22 24 23
17 18 23 19 18 19 19 18 19 18 18 19 19 17 16 17 19 21 23 23 23 22 22 19 18 11 14 17 16 19 19 21 15 11 16 14 15 17 22 18 12 13 18 19 18 25 20
21 17 18 23 22 19 19 19 19 18 19 21 20 18 16 17 19 21 23 24 23 21 18 15 9 10 16 11 10 12 15 21 19 22 20 17 14 20 17 17 16 15 18 20 20 17 13
25 22 20 21 22 25 22 20 20 22 20 20 19 19 16 16 19 21 22 22 16 12 6 2 9 8 12 8 5 5 4 11 16 14 18 18 16 17 18 17 20 18 21 20 20 20 16
18 23 24 28 26 21 26 22 21 19 19 20 22 20 14 15 18 19 21 19 7 7 9 14 7 17 11 5 8 7 8 8 12 15 17 22 17 23 24 23 24 21 24 23 18 12 5
22 22 20 18 21 21 23 23 16 20 25 20 19 20 14 16 16 14 11 9 6 5 14 21 30 33 33 24 17 16 12 13 17 17 18 13 24 28 23 22 19 24 26 24 20 22 11
20 23 19 19 17 19 21 21 19 18 20 21 19 18 16 15 12 8 6 8 5 8 9 15 21 21 20 19 23 22 19 21 17 18 19 21 10 24 20 20 21 25 24 21 24 22 16
23 16 19 24 23 21 20 19 18 16 14 23 21 17 16 11 8 5 3 1 3 6 6 6 6 3 7 7 8 25 19 20 17 23 19 19 21 13 17 24 23 22 21 22 20 19 15
28 29 23 25 22 21 20 16 18 17 16 17 20 16 15 11 8 5 1 4 6 3 6 7 8 5 6 10 5 6 10 23 24 18 11 18 16 20 22 21 17 21 17 17 21 20 17
22 22 20 22 23 25 24 19 18 16 13 15 15 17 15 9 13 13 8 6 5 5 9 6 8 10 10 13 8 6 3 13 16 20 18 22 8 9 18 14 15 17 16 16 14 12 16
20 22 21 23 21 19 21 18 17 15 14 16 18 16 14 12 9 5 10 7 6 8 4 9 7 9 8 8 10 10 10 11 10 10 19 19 22 17 12 12 17 18 14 9 11 11 13
23 23 22 27 22 19 17 19 16 14 14 16 18 15 12 14 14 13 8 8 11 4 18 4 3 9 10 7 6 10 9 10 15 14 11 13 11 28 21 18 11 18 17 8 11 10 10
25 24 23 21 25 26 18 14 16 17 17 17 14 12 14 15 16 14 7 10 11 17 10 3 8 10 9 8 5 9 12 7 2 12 8 4 12 2 12 25 21 17 17 19 22 17 9
24 21 24 23 21 19 25 20 17 18 15 14 9 12 19 13 17 15 6 14 18 7 7 5 12 5 12 8 8 6 12 1 3 3 7 5 9 6 13 12 22 24 15 12 12 16 17
27 26 23 21 20 20 19 21 20 19 14 14 9 6 9 14 15 11 5 9 21 19 2 7 7 1 2 0 6 3 1 7 1 3 6 4 6 2 5 10 13 14 20 16 12 13 11
21 22 24 24 20 20 20 21 20 21 15 13 9 4 9 15 10 6 10 8 5 20 21 12 6 8 6 5 6 4 4 3 3 6 5 4 5 7 11 3 9 13 16 18 12 16 12
26 25 25 26 24 23 23 22 22 21 17 15 8 15 9 12 8 12 15 13 10 11 9 11 18 12 14 9 6 9 8 3 2 4 7 9 2 6 12 10 11 10 11 12 15 16 20
26 26 26 26 26 25 24 23 23 22 22 23 7 5 16 15 17 9 16 21 21 9 21 15 8 12 9 11 11 7 6 3 1 6 7 6 8 10 11 10 10 6 10 9 13 13 14
30 31 31 31 30 30 29 28 27 25 25 25 15 7 11 6 15 18 19 12 15 22 11 14 11 15 11 10 12 14 14 13 10 7 7 6 11 12 15 19 16 17 14 14 18 17 18
31 31 31 32 32 32 34 34 34 32 29 32 12 8 17 21 21 14 18 19 21 20 10 15 15 13 15 16 13 4 7 8 7 8 6 2 7 8 13 15 20 21 20 21 19 19 23
25 25 25 24 26 26 27 27 30 34 39 29 31 22 18 17 19 17 16 18 16 19 21 23 15 14 13 13 13 16 14 12 13 10 10 6 5 3 12 15 11 13 20 21 17 17 20
27 21 21 21 21 20 19 20 19 28 37 44 21 24 18 13 12 16 23 19 18 20 21 16 21 14 9 2 7 14 18 20 19 17 17 9 11 6 5 9 10 10 5 3 7 13 20
24 24 24 24 24 24 24 24 23 24 24 41 24 24 19 13 22 23 18 18 21 18 18 24 21 3 7 2 3 8 8 10 21 21 20 19 13 4 4 8 14 21 10 3 5 15 20
28 27 25 24 25 26 27 27 26 26 27 28 32 35 15 9 20 29 21 26 12 13 13 14 7 6 8 2 3 7 6 8 4 7 22 20 17 11 8 9 6 5 5 6 6 8 17
29 28 26 26 25 26 26 25 26 28 27 27 23 26 22 8 24 24 20 17 22 23 9 8 8 6 9 5 5 6 7 2 4 5 7 14 12 13 12 11 9 3 8 9 3 7 27
21 22 25 28 29 29 29 28 30 29 29 30 26 26 29 6 21 21 26 28 19 13 6 11 6 3 3 5 5 8 6 5 7 9 6 9 10 7 12 10 13 11 2 2 2 7 9
22 23 24 24 28 31 31 31 30 33 33 32 23 25 26 7 9 21 22 19 23 25 20 14 9 8 11 6 7 4 6 2 8 6 13 7 9 3 4 6 4 10 15 12 14 12 16

GFSGBSN_850_spd_093.txt.gz
Wind_Speed
19 19 19 17 17 19 18 18 19 18 17 19 21 21 20 21 21 19 19 19 18 18 18 19 20 22 22 5 26 15 16 14 13 12 13 11 13 17 13 10 19 17 18 26 31 29 29
20 18 19 21 22 21 20 21 18 19 18 19 20 20 21 22 23 22 21 20 19 18 18 19 21 21 14 10 14 4 12 13 13 10 9 12 15 19 19 13 15 23 20 24 25 23 23
21 21 23 22 20 21 23 22 21 20 20 20 20 20 23 25 24 22 23 23 20 19 18 19 21 19 14 35 17 14 13 15 14 13 15 18 20 23 17 8 29 23 15 17 13 13 7
22 22 23 24 24 22 23 23 23 21 21 21 20 22 24 26 26 24 24 25 22 18 17 16 17 14 14 21 15 16 21 20 20 15 15 13 17 18 12 17 16 7 8 11 4 9 11
24 25 25 24 26 25 24 24 24 23 23 24 22 22 24 25 29 28 24 25 21 18 17 14 15 11 14 7 16 4 3 11 20 14 18 12 12 7 9 3 4 4 10 16 9 8 10
24 25 25 26 27 24 26 29 27 24 25 27 23 22 23 25 27 27 22 21 13 10 9 3 6 7 13 13 6 3 3 10 10 9 13 15 8 3 1 3 11 8 10 10 11 10 16
26 29 30 29 26 26 25 25 24 26 25 23 24 21 23 23 24 21 18 15 9 4 3 10 11 14 14 8 5 8 7 7 9 12 7 13 5 10 12 11 11 12 13 15 12 10 13
25 26 27 25 25 24 25 22 21 23 24 24 20 22 21 22 22 13 11 5 11 9 13 23 32 42 46 31 22 29 17 12 10 9 7 7 19 14 14 13 15 18 19 20 17 12 13
27 27 24 23 20 23 22 21 21 23 21 21 20 17 18 18 16 8 4 8 12 14 7 19 30 26 35 24 32 47 25 23 13 12 12 15 7 20 17 18 18 18 16 13 13 4 4
27 26 30 29 25 25 32 24 21 22 21 19 16 16 18 18 11 4 2 1 8 18 4 7 8 9 16 13 9 26 33 22 10 17 13 16 13 19 16 21 17 17 14 17 18 2 4
23 23 25 30 25 25 22 21 27 24 19 18 16 16 15 15 10 5 5 5 11 9 5 6 8 4 10 15 2 3 18 30 21 17 8 15 6 7 10 8 9 11 11 14 4 2 4
21 21 22 23 23 21 20 20 19 20 22 19 16 14 13 12 9 5 10 9 6 1 8 5 8 6 8 14 6 5 1 16 10 14 16 14 17 6 7 7 12 2 3 2 3 3 7
20 22 22 21 19 22 21 18 19 20 16 15 15 13 14 13 14 7 5 4 1 5 9 1 2 11 15 12 12 9 8 6 6 4 8 9 18 15 9 7 8 2 4 2 2 4 6
19 19 21 18 13 16 18 19 19 22 16 13 13 14 15 17 11 9 8 4 8 6 10 17 19 17 16 15 14 14 11 7 13 7 1 7 4 14 16 15 8 8 7 4 6 4 3
20 19 18 19 18 17 16 15 16 19 16 11 12 15 16 8 4 7 8 4 3 5 4 16 20 8 9 8 6 13 13 11 11 16 7 4 6 2 7 18 14 7 9 11 8 7 2
20 20 20 20 19 19 18 16 16 16 19 13 10 12 23 11 9 9 5 8 7 10 15 13 6 9 8 12 12 5 11 4 10 1 5 4 2 7 9 8 12 10 5 6 5 4 10
24 22 20 19 17 18 17 15 15 13 13 7 6 6 14 9 12 12 6 7 11 20 20 9 7 6 9 8 13 10 8 4 8 4 4 6 0 5 3 1 6 7 11 4 4 2 3
20 16 16 18 19 17 13 16 15 12 8 8 5 2 8 15 5 5 7 4 8 17 22 10 5 8 4 9 6 8 8 6 2 9 3 3 1 2 3 6 7 4 14 14 7 7 8
20 21 19 19 19 18 18 17 14 14 10 7 4 10 13 12 4 7 5 11 16 17 16 6 4 3 12 2 5 6 6 8 9 3 1 5 4 2 6 0 11 6 2 6 8 8 14
20 20 20 20 20 19 17 17 14 13 12 10 4 3 7 15 6 5 7 10 14 20 16 15 8 7 16 6 12 8 9 8 13 4 7 4 1 2 1 3 4 10 13 7 7 4 7
23 24 25 25 25 24 22 19 16 15 14 16 7 5 6 2 5 8 8 9 13 8 9 11 4 7 7 5 13 14 8 4 6 5 4 1 1 3 8 7 11 12 13 15 8 9 8
24 23 23 22 22 22 24 24 21 19 16 22 6 4 5 12 14 7 7 15 15 14 5 8 10 13 7 8 15 13 9 5 4 6 5 5 3 5 6 8 9 12 14 13 11 11 10
23 21 20 19 18 18 18 20 24 24 23 20 23 15 7 7 4 3 4 6 10 14 15 15 11 5 9 12 15 3 10 4 3 2 4 4 3 4 3 7 8 6 8 11 14 12 7
22 21 21 21 20 19 18 18 20 27 30 33 22 13 6 7 7 9 11 15 15 16 12 7 2 2 4 12 21 11 11 8 6 7 7 3 2 1 3 5 2 5 8 11 6 13 12
23 24 23 23 22 20 18 18 18 23 31 37 34 23 11 7 12 14 15 13 17 21 12 13 16 10 11 7 3 5 3 2 8 16 14 10 4 1 2 2 6 9 5 5 7 8 10
24 24 26 25 25 24 23 21 19 19 23 35 41 40 21 4 13 16 11 16 7 10 8 10 3 10 8 2 2 1 2 3 3 4 16 11 6 4 1 3 3 2 11 15 11 3 9
25 25 24 22 21 21 24 25 22 22 21 23 19 32 22 8 19 16 10 9 7 7 5 7 1 3 3 2 1 2 3 4 4 4 6 9 5 9 5 3 5 7 1 5 3 2 12
25 24 23 19 18 19 21 24 24 24 25 26 24 20 35 13 13 14 19 18 17 16 2 2 5 1 1 2 3 3 2 3 3 9 7 5 6 4 3 2 6 17 8 5 4 16 18
24 27 22 21 22 21 20 22 26 25 26 28 23 24 19 19 8 18 31 32 30 20 12 5 1 3 9 2 3 2 2 2 2 3 3 1 5 4 6 4 4 17 16 15 17 13 15

GFSGBSN_850_spd_096.txt.gz
Wind_Speed
16 17 15 15 17 20 21 20 20 21 20 19 19 21 21 22 24 25 25 22 20 17 16 18 20 23 23 7 25 12 14 15 7 7 12 14 15 15 6 5 13 9 12 23 29 28 30
16 18 18 18 20 21 20 22 22 22 23 22 22 22 20 22 25 27 28 24 21 18 16 17 18 22 17 8 12 7 20 21 12 10 8 10 9 12 8 9 9 10 16 20 24 25 25
16 17 19 19 20 22 22 23 22 22 24 23 22 24 23 23 27 28 29 29 22 19 17 17 17 16 15 37 17 19 16 17 12 15 15 13 14 18 7 6 15 17 13 13 7 9 7
20 21 22 22 22 23 23 24 25 23 23 24 26 24 24 26 26 28 29 28 21 19 19 16 16 11 15 23 19 23 17 25 20 17 17 16 12 15 14 9 12 3 4 4 4 4 7
19 19 20 21 23 26 25 26 24 26 28 26 25 26 24 27 27 29 30 25 18 18 21 17 15 11 16 10 10 3 7 14 25 21 18 16 12 7 5 3 3 3 12 9 5 5 5
20 21 22 23 26 28 26 24 25 24 26 28 28 25 26 24 27 28 27 16 11 10 9 9 7 6 16 6 3 2 4 5 6 2 13 11 6 3 2 4 13 8 7 5 5 3 8
20 21 22 23 24 22 21 23 22 23 21 21 25 23 23 22 25 25 21 9 5 1 6 12 13 15 16 9 13 9 2 2 12 9 6 6 4 7 10 11 4 3 5 7 1 5 5
17 20 22 23 24 24 20 21 21 21 20 20 22 22 23 20 20 22 15 9 4 9 14 25 31 38 39 31 15 21 13 4 8 7 5 2 14 7 7 6 7 9 11 17 13 10 12
17 20 21 22 21 23 25 28 27 24 22 22 20 20 19 16 22 12 7 8 10 7 6 14 25 22 27 25 26 42 23 5 3 5 8 11 5 15 11 11 12 12 13 12 17 10 7
18 19 20 21 20 20 21 24 24 22 20 22 22 19 15 14 17 8 5 13 4 4 3 7 7 9 12 13 9 27 35 18 6 9 7 10 12 13 11 15 13 15 16 18 16 7 9
19 19 19 19 20 21 19 20 20 20 20 19 20 18 11 11 18 14 13 6 2 1 2 2 5 5 14 14 3 1 12 18 12 6 6 7 3 14 17 16 13 14 17 15 17 6 4
17 18 18 18 20 22 21 18 20 19 15 17 17 15 12 10 16 14 13 7 2 3 6 6 3 2 6 12 1 4 6 10 11 2 12 8 11 1 4 4 7 5 7 5 2 4 4
18 18 18 19 18 19 18 17 15 15 17 15 15 11 11 11 14 14 10 7 2 4 8 6 8 10 12 4 5 3 4 6 5 5 13 8 19 13 6 7 7 5 2 2 2 1 6
16 17 18 18 18 17 17 17 16 13 15 14 14 10 10 13 13 6 4 1 6 3 3 12 12 13 5 6 6 8 5 5 5 3 0 7 6 13 8 19 8 8 8 5 5 5 7
15 17 18 19 18 18 18 16 17 17 15 12 13 11 16 11 4 7 3 5 2 1 9 12 11 5 7 7 9 5 10 9 10 14 7 5 6 3 4 20 14 7 8 7 4 3 3
15 19 20 19 18 17 16 16 14 12 13 10 14 12 17 4 9 6 3 3 3 7 10 11 6 8 7 14 11 12 4 3 8 10 13 4 4 3 6 5 6 11 7 1 2 6 13
20 19 18 14 15 14 14 14 11 12 10 8 3 7 8 2 12 7 3 4 4 10 13 6 7 7 7 7 8 5 9 6 12 6 8 3 1 5 4 1 7 4 1 1 1 4 5
16 17 15 16 14 14 13 12 10 10 8 4 1 2 4 5 4 3 2 2 4 11 11 5 3 6 5 6 5 5 6 4 21 15 6 1 2 4 7 6 4 3 3 5 4 5 4
20 18 17 16 15 14 14 13 11 10 6 4 3 7 6 7 3 2 3 5 9 9 8 3 3 4 2 3 6 2 5 14 17 9 7 2 1 2 2 4 6 5 4 6 5 4 12
16 15 18 19 19 18 16 13 11 11 10 12 2 3 2 6 4 1 5 8 6 11 11 14 10 9 7 5 9 5 4 7 12 13 26 6 2 2 2 2 3 2 6 7 4 2 4
17 20 19 20 21 21 20 17 15 12 11 9 5 4 4 2 3 5 4 4 10 7 4 7 4 9 7 5 3 4 4 6 9 15 7 4 3 3 1 3 4 6 5 13 4 7 3
19 18 19 19 17 16 16 16 17 15 13 16 7 3 3 5 7 5 3 1 10 11 8 9 5 9 10 7 5 9 7 5 2 6 6 6 3 4 3 5 5 6 6 4 8 8 11
17 19 19 18 16 15 15 15 15 20 22 18 20 10 2 5 1 2 3 3 6 10 11 9 15 11 3 6 3 13 14 17 7 2 1 1 1 3 2 6 6 4 3 7 3 9 5
19 19 19 19 18 17 17 17 16 19 28 30 21 15 6 4 4 4 8 12 13 12 10 16 14 3 4 9 12 6 9 14 12 8 8 3 3 2 2 3 2 3 9 10 13 10 9
21 20 20 20 19 19 18 19 17 18 25 33 29 17 9 3 7 10 10 9 14 13 7 10 17 10 5 2 1 3 3 2 8 16 13 9 4 1 2 0 5 3 5 3 3 8 11
22 20 20 20 22 20 18 20 20 19 18 34 35 31 15 1 7 18 7 7 2 3 6 4 14 3 3 1 3 0 2 2 3 6 13 6 5 4 2 2 3 1 6 11 7 4 14
20 20 21 21 20 20 20 19 22 22 20 21 31 34 27 12 18 6 5 4 4 3 3 7 7 0 2 2 1 3 3 4 3 2 2 3 2 4 2 0 5 1 8 12 3 1 12
21 22 21 21 21 21 16 17 20 23 22 26 28 30 34 15 19 10 22 18 9 6 2 5 6 2 1 2 2 3 2 3 3 2 3 4 4 3 3 3 6 9 1 3 5 3 9
22 22 21 23 23 20 19 18 17 22 24 27 24 20 18 17 8 14 28 24 23 19 7 3 4 0 3 0 2 2 2 2 2 3 3 3 2 4 5 3 6 17 16 13 11 10 10

GFSGBSN_850_spd_102.txt.gz
Wind_Speed
8 9 9 11 12 14 13 16 19 20 20 20 21 22 23 25 28 30 31 31 32 32 31 31 28 25 25 10 24 25 17 13 8 4 18 17 16 12 6 6 9 6 4 9 20 23 17
8 8 10 11 13 15 17 18 19 20 22 21 22 23 25 26 27 30 31 33 34 34 33 33 30 21 18 14 23 19 14 24 26 17 15 19 8 17 7 7 8 3 14 21 20 23 15
8 10 11 12 11 13 16 21 21 22 20 20 19 22 23 26 29 31 33 35 36 38 35 32 30 20 23 44 25 21 15 17 16 18 18 18 22 9 3 2 12 10 10 8 7 7 7
9 11 12 13 13 14 15 17 19 21 21 22 22 23 24 25 27 28 32 36 37 38 36 32 26 17 20 26 32 34 27 33 30 23 17 19 12 12 6 8 5 3 3 3 3 10 7
10 11 11 11 12 13 15 16 18 19 20 21 22 24 27 29 31 32 30 34 38 40 32 25 17 12 19 18 18 9 11 23 25 29 25 16 20 10 5 6 3 3 4 5 2 7 5
9 9 9 10 9 10 12 14 16 18 21 22 24 25 26 28 30 32 30 32 37 19 10 3 8 5 20 16 7 9 10 7 7 16 17 15 9 4 4 5 12 7 4 4 4 2 3
8 7 9 11 11 12 13 14 16 18 20 23 24 26 27 27 28 28 31 32 14 6 6 9 8 14 14 11 10 6 4 2 4 12 8 8 5 11 8 9 5 2 5 5 1 3 3
8 9 10 11 12 13 13 14 15 17 19 22 22 25 28 29 30 27 28 22 23 13 17 22 30 36 44 34 17 17 9 6 7 6 6 3 18 7 8 7 6 6 6 5 4 6 5
9 10 11 12 12 12 13 14 16 17 18 20 21 23 26 27 29 28 21 21 19 22 9 17 26 23 33 23 24 37 20 5 4 7 10 7 4 11 12 7 9 6 9 3 8 4 3
9 9 9 12 12 13 14 15 17 18 18 20 21 23 23 25 19 16 18 10 25 24 5 6 6 7 12 12 9 26 22 18 5 10 6 7 7 5 7 8 7 10 8 9 6 2 3
10 9 10 11 12 13 15 16 17 17 19 20 21 23 22 21 19 26 18 23 30 19 5 1 3 4 9 10 9 5 19 16 9 7 6 6 3 8 10 6 8 5 8 8 6 5 1
9 10 10 9 13 13 14 15 16 16 18 19 20 24 19 20 20 13 17 29 21 2 5 8 3 0 3 6 3 6 5 3 5 2 0 5 1 3 7 5 8 5 3 3 2 3 3
14 8 8 9 12 14 15 16 17 17 18 21 23 21 16 19 20 21 21 18 6 3 9 9 6 7 3 5 1 3 5 5 5 5 6 0 10 2 3 3 2 3 5 1 1 1 5
7 9 7 8 12 14 16 15 16 16 16 18 20 19 16 19 17 16 17 3 3 7 6 8 7 9 5 10 5 6 6 3 3 1 4 6 2 10 7 12 8 7 7 4 5 4 3
7 11 11 12 14 15 12 10 13 17 13 17 19 17 17 12 13 9 3 2 5 7 9 9 9 7 8 6 4 7 6 8 8 11 3 3 3 2 3 5 12 5 5 7 2 1 1
11 11 11 12 12 8 10 9 12 13 12 16 18 18 10 16 3 3 3 4 5 5 9 6 7 7 8 10 8 8 8 8 9 8 5 3 1 3 2 4 4 6 5 3 1 3 5
12 9 6 9 10 9 9 9 10 12 12 13 13 8 11 5 5 3 2 3 5 7 6 4 5 4 4 7 6 5 8 5 11 12 8 6 2 6 5 2 2 2 3 4 4 5 3
7 6 9 11 10 7 8 9 9 11 11 11 7 3 2 3 3 1 2 3 9 5 9 3 2 2 3 5 4 5 5 5 11 11 6 2 1 2 6 3 3 3 2 6 3 3 2
12 8 11 11 8 7 8 9 8 9 8 5 6 6 2 3 0 1 5 4 4 4 5 5 4 2 1 3 4 3 2 1 8 6 4 5 2 1 4 3 3 4 2 1 2 3 5
13 10 13 11 10 10 10 11 9 8 7 4 3 3 4 1 3 4 3 4 4 9 4 4 4 5 4 2 4 4 3 2 10 7 12 1 1 2 4 3 5 4 3 2 1 2 3
14 15 15 13 12 9 11 12 10 9 9 5 1 3 2 2 1 3 4 3 5 3 4 8 4 6 3 4 5 3 3 4 5 6 8 2 1 2 4 5 10 5 3 2 1 2 4
16 18 14 14 12 10 11 10 9 9 12 11 4 3 1 4 6 4 3 2 5 5 3 2 3 9 5 4 4 5 6 2 3 6 3 4 3 2 3 4 10 7 8 4 8 7 10
16 15 15 14 12 12 11 9 8 10 17 12 12 8 2 4 3 1 3 3 4 5 4 4 7 7 6 5 11 21 17 11 6 2 3 2 2 2 1 2 7 5 5 2 4 3 2
17 15 15 15 13 14 13 10 9 11 17 21 16 11 5 4 3 3 4 3 5 6 5 13 16 3 4 21 17 15 15 13 8 12 10 5 3 1 3 4 2 4 4 8 10 5 6
18 17 18 17 13 16 15 13 11 12 15 19 23 16 8 3 6 7 10 7 10 12 7 12 20 9 19 5 4 4 1 2 5 10 7 12 2 2 1 1 5 2 2 1 3 0 4
18 19 20 19 14 18 17 15 13 15 14 19 25 27 10 1 5 16 4 7 3 3 5 5 9 13 5 1 2 2 2 3 1 2 7 6 4 3 1 1 3 2 1 8 2 2 0
20 20 20 20 16 20 19 17 15 14 16 20 23 24 22 6 10 7 3 3 3 2 3 4 8 7 6 1 2 2 2 2 2 2 1 2 1 6 2 1 6 3 7 5 2 2 5
21 21 21 22 19 19 20 19 14 16 17 23 25 22 24 9 18 9 14 17 7 3 1 8 8 2 3 2 1 2 1 1 2 1 3 3 3 3 3 3 6 11 5 1 2 12 13
22 23 23 21 20 22 20 17 16 15 15 18 23 21 17 20 7 7 15 26 24 22 19 7 3 2 1 3 1 2 2 3 2 1 2 1 2 2 4 2 6 11 9 11 10 14 12

GFSGBSN_850_spd_105.txt.gz
Wind_Speed
5 6 6 7 9 11 12 12 15 16 15 15 16 18 18 21 23 25 28 29 30 32 32 30 30 30 29 13 24 26 24 19 23 11 15 15 18 18 11 8 8 9 9 9 16 20 16
3 5 7 7 7 7 10 15 15 16 16 16 15 16 17 19 22 24 27 29 32 35 33 32 29 29 22 19 27 16 8 13 16 18 16 19 11 20 8 8 13 4 13 18 17 21 14
4 5 7 8 8 9 11 13 13 15 16 16 16 16 17 19 22 25 26 29 33 35 37 31 29 31 26 46 22 28 27 26 13 15 18 18 21 11 8 3 9 6 8 9 12 11 8
3 5 6 8 8 8 9 11 13 14 15 17 18 20 21 22 24 26 29 32 35 36 38 35 34 22 22 22 26 36 33 33 30 25 21 17 13 17 10 7 3 4 4 9 4 15 11
4 4 6 7 7 6 8 10 12 13 15 16 17 19 21 23 25 27 31 34 35 36 36 32 20 16 16 15 17 7 9 18 17 24 27 16 8 7 4 10 7 5 8 5 4 11 7
3 5 6 7 6 5 8 9 11 12 14 15 17 19 21 23 25 27 31 33 34 23 19 10 6 7 19 8 7 10 10 8 4 11 13 15 7 7 8 10 15 12 7 8 9 4 7
5 6 6 7 8 8 11 11 11 12 14 16 17 19 21 22 25 28 30 34 20 12 9 14 20 20 20 6 7 6 3 5 7 8 9 17 10 17 21 17 11 5 12 15 3 2 4
7 7 7 7 9 10 9 12 13 14 15 17 18 19 21 23 27 27 24 18 12 17 20 32 39 41 45 38 15 13 7 10 10 6 9 7 20 15 11 10 14 15 17 14 5 7 7
7 7 6 6 8 9 10 11 12 13 14 14 17 19 22 25 24 22 27 17 15 33 11 32 42 31 33 33 24 33 11 5 7 11 16 11 6 16 11 10 13 14 18 13 13 4 7
7 6 6 7 7 9 11 12 12 13 14 15 17 18 21 25 13 23 15 15 22 24 6 10 4 8 14 13 10 37 21 15 5 13 13 12 11 5 11 17 13 16 11 12 9 5 8
6 5 7 6 8 10 11 11 12 13 14 16 17 19 19 18 18 19 16 20 25 10 5 7 3 0 6 13 5 7 20 16 12 8 8 9 7 14 11 9 15 8 9 12 11 9 6
5 7 6 4 6 10 10 11 13 14 15 16 17 19 18 14 16 18 20 21 9 1 6 11 8 11 3 11 3 7 6 6 10 6 2 4 2 6 8 6 17 7 5 3 3 3 6
6 3 4 4 6 10 11 12 12 12 15 12 15 17 14 14 16 14 15 16 2 3 14 10 10 8 8 5 3 2 11 6 5 9 11 4 4 1 3 6 6 6 7 3 4 5 6
5 4 7 6 9 11 11 8 8 13 14 11 16 14 11 11 14 12 13 2 4 5 10 15 12 11 8 13 8 6 9 4 13 4 4 11 8 15 10 6 8 11 11 5 6 5 1
2 3 7 9 11 8 7 7 9 11 12 13 16 11 10 14 13 7 6 3 2 6 11 16 14 9 11 13 6 4 9 5 6 9 2 5 2 4 4 11 9 5 9 1 2 2 2
5 8 9 6 6 5 6 7 8 10 12 15 16 9 15 13 7 6 4 4 3 3 12 11 9 8 12 16 10 6 6 5 6 10 2 2 1 1 2 6 4 5 8 6 3 4 6
7 9 4 3 7 7 5 5 7 9 10 13 12 4 9 6 6 5 3 3 5 11 12 5 7 7 10 9 9 7 9 7 9 11 5 4 2 1 1 1 6 5 4 1 3 4 3
7 6 4 7 8 5 4 4 5 7 9 10 6 2 7 8 5 2 2 4 8 6 7 4 3 5 5 8 7 8 8 6 11 7 4 3 1 2 3 2 0 3 7 9 5 4 4
7 8 10 9 8 5 3 5 5 7 7 7 3 3 6 6 2 3 4 4 4 5 5 6 4 6 6 4 4 5 6 5 10 6 5 4 1 2 4 2 3 2 1 3 3 1 9
10 10 10 10 8 8 6 5 5 6 5 4 2 3 4 5 3 2 4 4 6 6 4 5 4 4 6 4 2 4 5 3 9 6 12 1 1 2 1 3 2 1 1 1 3 4 4
13 11 14 13 11 9 6 5 5 7 5 1 1 1 0 2 1 3 3 3 8 6 4 7 1 8 7 4 5 3 2 7 7 7 5 4 2 2 7 4 4 4 5 2 3 1 5
13 13 14 16 12 10 6 5 3 8 7 7 4 3 1 3 5 3 2 2 2 6 2 4 5 13 8 3 4 9 9 5 3 5 4 4 1 1 2 5 4 4 6 6 7 4 7
17 18 13 12 12 12 8 7 4 8 10 7 9 6 1 2 2 0 2 3 4 8 5 7 6 13 10 3 14 20 18 15 11 8 3 3 3 3 1 2 6 5 6 8 3 2 2
19 18 16 10 13 13 10 9 7 8 10 12 10 9 5 3 3 3 3 5 9 9 9 18 17 6 6 23 23 15 13 14 12 11 10 4 5 3 2 3 2 5 4 6 8 6 7
20 18 16 13 15 14 11 13 10 10 10 14 15 12 8 3 7 6 11 9 11 11 8 10 15 7 17 11 5 7 1 3 4 9 11 11 2 3 1 3 3 2 3 3 1 2 5
17 18 16 17 16 17 12 15 13 11 12 16 16 17 8 2 6 10 2 4 4 3 4 4 11 12 7 1 1 3 3 3 2 1 7 6 7 3 1 3 1 2 1 6 2 1 4
17 19 19 18 16 20 14 16 16 13 12 18 19 20 17 5 9 8 4 2 2 3 2 4 8 7 7 3 2 2 2 3 3 4 1 2 1 6 6 2 3 5 10 3 2 2 6
17 18 19 18 18 21 16 16 18 14 14 14 24 22 20 8 15 12 15 14 12 6 3 6 7 3 3 2 1 1 2 1 3 2 1 1 2 2 3 3 6 12 2 1 6 10 9
15 16 20 19 20 22 19 17 17 17 13 15 20 26 21 16 8 7 13 19 22 21 11 3 2 4 1 3 3 4 2 3 3 2 3 1 1 3 2 1 4 10 13 12 9 10 8

GFSGBSN_850_spd_108.txt.gz
Wind_Speed
7 5 4 3 3 3 5 7 9 10 10 9 10 11 12 14 16 18 19 21 23 25 26 25 27 28 23 11 22 20 21 22 19 12 8 14 21 22 24 15 24 24 22 20 23 26 22
6 4 4 4 4 4 5 6 8 9 10 11 12 12 14 16 18 19 21 23 25 28 29 25 27 28 19 27 25 24 14 17 14 14 15 15 12 23 15 24 19 15 22 28 23 20 21
6 5 2 1 1 2 5 6 8 9 11 11 13 14 16 17 19 22 24 26 27 28 28 26 28 22 27 44 26 19 20 20 15 9 13 17 18 13 11 17 23 22 20 18 17 15 16
6 3 2 2 3 4 5 6 8 9 10 11 12 15 17 18 20 23 25 28 29 28 26 24 27 20 28 18 16 27 29 33 31 29 16 13 16 17 18 13 11 15 19 20 19 23 24
5 4 2 2 3 4 5 6 8 8 9 11 12 14 16 18 20 22 26 28 28 22 18 20 16 12 19 12 16 21 29 32 24 27 22 17 11 18 17 17 14 18 17 20 15 10 15
5 3 1 1 3 4 5 6 6 6 9 11 13 15 16 18 21 24 26 29 15 8 8 8 3 6 25 9 11 14 9 18 12 18 20 21 14 13 16 16 23 17 17 16 10 8 15
5 3 3 3 5 5 6 6 6 7 9 11 13 14 15 19 22 20 25 19 11 4 19 17 29 24 35 30 25 19 13 15 14 26 18 29 16 24 30 24 19 17 12 15 14 7 13
5 4 5 5 6 6 6 7 8 8 10 11 12 14 16 19 21 15 15 8 6 11 18 36 38 40 44 41 39 34 16 15 19 19 21 18 29 23 14 19 18 12 12 20 14 8 11
6 6 6 5 5 4 5 6 7 9 9 12 12 14 17 19 11 11 8 8 10 16 11 25 12 20 23 24 37 41 21 22 18 18 25 20 12 22 17 15 18 19 21 18 18 10 14
7 7 5 4 3 4 4 6 6 7 9 10 13 16 18 17 4 12 7 12 14 14 6 8 13 9 11 10 16 27 31 26 14 19 20 16 6 18 22 21 19 21 20 18 13 10 14
6 5 5 3 1 4 5 6 6 8 11 12 13 15 15 11 10 9 12 14 17 3 6 12 10 18 30 12 12 7 30 22 18 11 10 11 16 13 20 20 20 15 13 12 15 16 15
6 6 3 2 1 3 4 6 7 8 11 12 9 13 11 9 10 12 15 17 4 4 5 13 15 24 10 16 15 4 15 22 18 12 10 5 3 15 17 10 18 8 8 9 8 9 12
7 2 2 2 1 4 6 7 4 7 11 9 11 11 8 9 8 14 13 7 4 4 15 16 25 18 22 10 6 6 16 17 12 17 16 12 11 7 10 15 15 13 15 6 7 6 10
6 5 1 1 3 4 3 3 4 7 11 8 11 8 6 10 14 10 8 3 3 6 12 21 20 16 9 17 7 11 14 12 4 9 11 14 14 14 12 12 12 21 18 6 8 9 10
7 4 5 6 5 3 1 3 4 6 9 10 10 3 8 10 8 8 6 1 4 8 15 14 18 10 14 22 10 0 9 6 5 7 5 13 12 4 13 10 12 14 14 10 6 1 3
8 6 7 5 3 1 1 2 3 6 8 10 10 1 7 8 11 7 2 3 4 7 15 13 12 9 10 18 15 12 5 10 8 7 5 2 7 9 7 8 18 10 13 9 9 6 8
9 7 7 7 5 4 2 1 3 4 8 9 5 1 6 8 10 4 3 4 5 11 13 9 12 11 13 15 12 9 10 6 14 11 6 6 4 8 10 8 14 10 11 9 8 9 5
9 9 8 5 6 5 3 0 3 4 7 9 3 1 8 7 1 1 4 5 6 8 9 3 8 12 12 17 10 10 12 9 13 6 7 8 3 7 8 4 6 14 16 15 8 9 10
8 8 8 7 7 6 5 2 2 3 5 6 2 2 7 6 1 3 5 3 3 8 10 8 8 11 15 9 6 11 13 10 16 11 9 7 1 6 6 6 5 8 10 14 13 8 10
10 11 10 8 8 9 6 4 2 3 3 4 1 1 2 3 3 3 6 5 7 6 5 9 6 10 15 9 9 9 13 10 18 13 13 6 2 3 2 4 2 6 9 10 12 8 9
13 13 11 11 11 10 8 5 3 5 3 1 1 1 1 0 1 5 5 3 5 7 4 7 2 11 12 6 10 9 13 16 8 9 7 4 4 6 6 4 4 5 6 9 12 11 6
14 14 14 13 12 12 10 8 5 4 5 3 2 2 1 3 3 4 2 1 4 7 5 6 7 14 13 9 8 16 15 12 6 4 8 5 2 4 5 5 6 9 11 11 10 7 7
16 14 15 14 12 13 13 10 6 7 6 4 4 3 2 1 2 3 2 3 3 8 5 6 9 15 13 10 18 26 24 21 16 13 6 4 4 3 0 1 3 8 13 13 10 4 5
13 16 16 15 12 13 15 12 9 8 8 8 6 3 2 3 4 3 5 7 10 10 12 16 16 11 10 21 29 24 19 19 17 13 11 5 6 4 2 4 4 5 5 9 7 3 3
12 14 18 15 12 12 16 14 11 11 9 10 10 7 4 4 6 7 8 9 10 11 13 14 9 9 17 19 9 8 3 5 7 9 9 9 5 3 3 5 3 6 4 2 4 5 6
13 12 18 15 15 13 17 14 15 12 12 15 15 10 6 3 3 7 5 5 6 4 4 3 10 11 8 4 4 4 3 3 1 5 7 5 9 6 2 4 2 6 5 14 7 4 4
16 14 12 16 17 16 18 16 15 15 13 13 17 19 12 5 14 12 6 5 4 5 5 7 8 5 5 3 5 2 3 4 3 4 1 3 3 8 7 4 0 8 9 16 5 4 9
20 17 15 14 19 18 16 20 15 19 16 14 24 21 19 9 15 11 12 12 10 8 6 9 7 1 3 3 3 4 3 3 3 4 3 5 4 1 3 3 3 19 2 5 5 10 10
22 18 14 15 18 17 15 23 16 18 18 14 12 15 21 18 8 9 12 21 19 14 11 5 5 7 3 3 3 4 3 4 5 2 3 1 5 4 5 4 7 11 11 11 8 9 10

GFSGBSN_850_spd_114.txt.gz
Wind_Speed
21 18 16 14 13 12 11 8 7 5 4 3 3 4 6 9 11 14 16 18 20 20 21 23 23 26 27 9 21 21 25 26 26 22 18 19 21 26 27 26 30 32 28 36 37 34 33
21 17 16 15 14 12 10 9 7 5 4 3 4 5 8 11 13 16 17 18 19 20 22 22 23 24 16 19 15 12 18 20 23 27 31 32 30 28 33 27 28 31 33 33 35 35 34
19 17 16 16 14 13 11 8 7 5 3 3 5 7 9 12 14 16 18 19 20 20 21 20 19 19 18 32 21 20 22 27 29 28 31 33 35 34 29 24 34 32 28 28 28 33 27
18 17 16 15 14 13 11 8 6 5 4 5 6 8 10 12 14 17 18 19 19 18 17 13 11 12 13 14 16 17 18 20 24 28 34 28 31 41 40 37 29 24 25 25 32 26 23
16 14 15 15 14 12 10 8 6 6 6 7 7 9 10 13 15 18 19 19 14 14 14 9 10 10 22 7 14 25 25 27 24 24 28 34 29 30 28 26 21 24 25 33 26 25 26
18 20 17 16 14 12 9 7 6 7 7 8 9 9 11 12 15 18 19 16 16 11 11 14 13 12 15 22 29 30 28 28 31 29 28 34 40 21 20 20 25 36 29 22 25 23 25
23 21 18 16 13 11 9 8 8 8 9 9 10 10 10 12 14 14 20 19 17 3 9 13 24 28 31 24 28 39 36 32 30 35 24 28 23 28 33 32 31 26 26 27 26 25 25
20 19 17 15 13 11 9 9 9 8 10 9 9 8 9 11 10 14 17 13 12 8 15 23 22 22 24 21 37 43 29 25 27 23 24 17 29 30 34 31 28 29 28 27 19 17 2
23 19 16 14 13 11 10 8 8 9 7 7 8 8 7 7 8 14 8 9 8 12 7 10 6 8 11 22 34 34 32 25 23 23 20 23 24 31 33 30 32 28 27 23 25 5 14
20 17 15 14 13 11 8 8 7 5 5 5 7 6 6 4 7 8 5 10 9 8 4 2 4 5 16 31 17 43 19 12 2 10 22 21 26 33 30 34 30 25 26 26 20 6 4
20 19 16 14 12 10 8 6 5 3 3 5 4 4 5 9 5 5 9 11 8 2 5 8 13 14 26 23 35 18 13 2 9 16 16 8 18 26 28 32 31 24 19 21 11 6 8
17 17 15 14 11 9 7 5 2 1 3 3 3 4 2 7 7 4 12 7 3 4 1 9 19 24 22 26 23 26 21 26 20 12 21 23 33 22 32 25 27 21 4 7 5 7 8
16 15 13 14 13 9 8 4 3 2 2 3 4 4 3 2 6 11 6 6 5 4 14 14 24 23 19 21 19 25 24 14 11 9 11 23 10 14 16 14 22 14 13 4 4 7 13
15 13 13 14 11 8 6 4 4 3 1 3 4 3 2 1 8 7 6 5 5 14 15 18 17 17 11 19 17 27 24 13 11 12 14 15 10 11 16 14 14 16 16 6 7 7 9
14 11 10 12 11 7 7 4 4 2 1 2 5 3 2 7 8 6 9 5 6 8 13 14 19 13 14 18 6 11 8 19 14 18 11 10 1 11 17 7 15 21 18 16 2 7 4
14 13 12 13 9 8 8 5 5 2 1 2 2 4 6 9 6 3 5 4 5 6 10 13 12 13 16 19 13 7 13 13 17 17 17 6 9 20 18 10 14 16 17 13 7 3 3
15 14 14 12 11 8 8 6 5 3 1 5 3 6 2 5 3 9 3 3 5 9 8 7 12 12 15 16 15 8 12 4 21 18 18 13 6 9 13 7 12 9 13 11 11 9 2
14 17 13 12 12 9 8 7 5 4 4 4 2 2 2 4 5 4 4 3 1 5 7 6 6 12 11 15 10 11 13 12 15 10 12 9 5 4 9 13 13 12 14 16 7 10 5
15 16 13 12 11 10 10 8 7 5 3 2 4 1 3 1 3 4 4 3 1 4 8 6 6 7 14 11 6 14 14 14 15 12 11 8 4 5 8 7 14 17 15 12 12 7 5
18 15 14 14 10 9 11 9 7 6 5 3 2 2 1 5 4 5 6 2 5 4 5 7 9 9 13 14 14 4 16 15 23 9 8 7 6 5 3 8 9 8 16 15 11 7 8
16 15 16 14 11 11 12 10 8 7 6 3 3 3 3 2 3 5 6 7 7 5 5 11 6 9 13 15 14 13 18 19 20 11 14 10 6 5 14 11 6 8 9 7 15 12 8
16 14 16 14 13 11 12 12 9 7 7 2 2 2 3 4 2 2 0 5 4 6 9 10 8 14 14 14 13 18 20 17 18 16 14 11 5 14 16 10 13 4 6 10 15 9 10
16 18 17 18 13 11 13 13 12 8 10 2 1 3 5 3 4 3 3 5 9 10 7 13 14 15 14 16 23 26 26 25 21 18 13 7 4 9 4 13 10 3 7 5 7 4 3
18 18 17 15 15 11 11 16 14 12 12 4 1 3 3 4 6 2 6 8 10 10 11 13 15 13 15 24 27 25 24 20 11 12 9 5 8 5 6 7 1 11 21 17 14 19 17
19 16 16 14 13 9 9 18 16 14 14 8 4 3 3 4 8 7 5 6 11 13 9 11 11 14 19 20 9 10 9 1 5 5 8 7 4 4 4 7 4 20 16 9 9 10 17
19 16 15 14 12 11 10 18 16 13 14 12 6 6 2 4 0 9 8 9 8 8 7 5 13 15 15 6 5 8 9 14 4 8 15 7 7 5 8 5 3 10 17 12 7 2 15
20 16 15 14 12 11 12 15 18 15 12 10 9 10 4 5 9 6 4 8 12 10 7 8 18 16 8 4 7 8 7 11 6 2 3 4 4 7 7 5 5 16 19 17 3 5 11
23 18 15 12 12 13 14 12 18 17 15 12 6 6 7 4 16 16 13 13 13 11 4 14 9 9 6 5 4 5 5 6 7 7 5 3 3 4 6 4 0 26 8 6 3 7 10
21 19 16 12 12 13 13 13 15 17 16 15 7 7 9 14 14 14 17 22 15 12 12 6 8 11 4 4 4 5 6 4 10 4 9 3 5 2 4 3 6 11 13 13 13 11 13

GFSGBSN_850_spd_120.txt.gz
Wind_Speed
33 29 29 25 23 22 20 18 17 15 14 12 11 9 9 8 7 8 9 10 12 14 15 16 18 18 17 8 9 10 12 11 13 16 14 13 13 14 5 6 11 20 17 31 26 34 38
39 35 32 28 25 23 21 19 18 16 13 12 10 9 8 8 8 8 10 11 13 14 15 16 16 16 11 3 7 9 4 4 9 14 16 15 9 17 16 17 18 15 21 24 30 43 36
44 37 35 31 26 24 22 21 19 17 14 12 10 8 8 8 9 10 11 13 13 14 13 11 12 11 13 10 4 2 8 13 15 15 16 14 15 14 15 10 20 14 15 19 23 37 29
47 41 38 32 28 27 27 22 18 16 14 11 10 9 8 8 9 10 12 13 12 11 8 10 8 11 9 5 4 9 13 14 16 17 17 19 22 23 21 19 18 15 12 18 27 13 26
50 44 40 34 31 30 25 20 17 17 14 12 10 9 7 6 8 11 11 13 12 9 6 8 7 6 8 1 10 17 18 18 21 23 23 23 19 20 13 6 12 11 16 21 26 8 11
54 46 42 36 34 29 23 20 21 19 16 12 11 9 6 5 6 7 10 9 4 3 3 4 6 7 4 6 14 19 22 21 22 21 12 3 10 4 3 3 14 22 14 18 17 16 12
53 46 42 39 35 33 27 26 23 18 15 14 11 7 4 2 2 5 9 5 2 2 6 7 3 7 13 10 17 20 21 20 16 9 5 5 3 11 16 17 18 19 21 22 24 23 19
50 44 40 37 33 30 30 26 20 18 16 12 10 7 3 2 7 8 9 5 8 7 8 7 7 20 14 17 12 20 19 7 8 9 6 1 13 20 17 20 19 20 22 23 22 23 21
46 43 41 34 30 27 26 23 22 17 13 11 9 6 5 7 8 5 7 8 8 10 2 7 7 8 10 10 10 11 11 14 5 6 6 8 14 7 11 15 19 25 29 20 21 20 20
49 40 33 33 30 22 25 24 19 15 13 11 8 7 7 11 11 7 4 7 10 5 3 2 3 4 7 18 3 22 13 16 3 6 3 8 7 9 13 20 19 25 19 20 22 18 10
51 38 34 30 30 29 21 19 16 13 11 9 8 8 10 14 12 9 1 5 2 2 3 2 1 4 19 1 14 7 28 3 12 9 5 12 7 9 15 19 11 17 18 19 22 19 12
39 36 34 30 27 25 21 18 15 14 11 9 9 11 11 12 15 6 2 1 1 4 1 2 4 6 7 4 12 8 14 16 7 4 8 19 17 5 16 24 13 9 16 17 17 6 12
34 31 29 28 25 23 20 16 14 13 11 9 9 11 12 10 8 1 2 4 3 3 4 5 4 7 8 5 8 4 5 8 4 7 7 13 3 2 9 15 6 7 7 1 4 6 7
31 28 26 24 20 19 18 15 12 12 11 10 7 9 9 10 6 8 7 3 4 2 1 2 3 10 3 8 5 5 5 3 4 3 12 7 9 6 9 2 6 8 11 5 4 3 4
24 24 23 24 20 16 15 14 14 13 10 9 10 11 11 7 6 9 4 4 5 2 1 3 8 2 4 6 2 5 1 4 4 4 8 7 8 20 8 11 3 1 6 17 2 7 2
23 21 20 21 18 16 15 16 15 11 11 13 12 11 8 7 9 6 3 3 3 3 1 2 2 3 5 5 6 4 3 4 6 6 7 4 9 7 15 9 3 7 4 3 3 2 3
14 14 19 18 16 14 16 14 14 12 10 13 14 5 7 4 6 2 3 4 3 2 5 2 2 4 5 6 4 4 4 6 10 10 7 7 4 8 6 4 4 7 3 5 2 1 3
15 16 14 15 13 13 15 15 13 12 12 14 9 2 9 9 2 2 2 4 5 3 5 1 3 3 2 4 5 3 5 3 17 11 8 4 4 6 11 9 11 5 11 7 2 3 2
15 15 16 15 13 14 14 13 15 12 13 11 9 5 6 10 2 1 4 2 7 3 1 1 2 2 2 3 5 4 5 11 23 12 4 6 3 6 8 3 10 5 9 14 4 2 5
17 14 15 14 14 15 15 14 15 13 11 9 5 2 4 7 2 3 0 2 3 3 0 4 1 2 3 4 1 7 5 6 19 17 12 8 3 2 5 10 6 7 16 16 8 3 3
13 14 13 12 14 13 15 14 14 12 13 7 2 2 3 2 2 4 2 1 2 3 5 8 4 3 2 4 6 2 7 9 12 6 8 2 4 5 15 9 5 5 12 12 9 10 3
17 15 15 16 14 12 15 14 13 13 12 6 3 3 3 1 6 4 1 1 2 3 2 4 1 5 4 4 4 13 11 11 6 7 6 5 4 6 6 4 6 11 11 15 11 13 13
14 15 15 15 14 13 15 15 14 13 12 5 4 3 2 2 2 3 3 3 2 2 1 3 5 3 6 7 15 24 24 26 15 10 13 4 3 5 4 13 7 8 15 17 12 22 7
17 16 19 17 14 12 13 15 14 13 11 10 9 5 2 1 2 0 2 4 4 3 1 4 8 2 8 23 28 20 18 20 15 13 16 4 4 2 4 8 3 5 16 8 19 18 18
19 18 18 16 14 11 10 15 15 14 12 10 10 5 3 2 2 5 10 4 13 10 5 3 8 13 15 14 4 5 5 5 4 2 3 6 1 3 2 3 3 8 14 9 6 10 13
19 19 18 15 14 12 10 13 17 14 14 9 9 5 4 6 1 3 3 7 3 3 6 3 15 11 13 3 3 3 3 4 4 7 6 7 1 2 3 2 5 4 19 21 7 7 12
20 19 18 15 14 12 10 12 17 15 14 10 6 6 2 3 3 4 4 1 2 2 2 4 11 9 13 3 2 2 2 4 4 5 5 5 4 3 3 2 2 12 20 19 3 4 10
22 20 18 17 15 12 11 12 16 14 12 10 8 4 3 2 3 3 2 2 2 2 2 5 4 6 5 5 3 2 2 3 2 2 4 4 3 4 4 4 4 26 8 6 3 13 13
25 23 21 18 15 13 11 10 15 14 12 12 8 4 1 2 2 4 12 9 12 10 3 1 2 2 1 3 2 2 2 3 3 2 2 3 2 2 4 2 5 7 9 10 11 10 12

GFSGBSN_850_spd_123.txt.gz
Wind_Speed
40 36 32 33 30 27 25 23 21 20 19 18 16 15 13 12 10 8 8 8 10 11 12 14 15 16 13 7 2 3 7 7 7 9 10 10 7 4 2 6 16 7 7 18 24 26 29
47 42 37 36 35 30 28 25 22 20 19 19 17 16 14 12 10 8 8 9 10 11 12 13 11 12 12 4 2 2 4 5 11 12 11 8 6 8 10 5 4 11 24 23 28 27 25
52 47 44 41 39 34 30 28 24 22 21 22 18 16 14 11 9 9 9 9 10 10 11 8 9 10 10 2 3 1 8 12 10 11 12 10 12 11 8 6 16 10 21 22 24 18 9
55 54 47 45 42 38 32 31 25 23 22 21 18 15 13 11 9 9 9 9 10 10 9 6 6 9 5 6 6 8 11 13 11 13 16 15 15 15 11 9 8 6 7 11 10 9 12
58 56 52 51 46 39 34 33 28 26 23 20 18 15 12 10 9 8 8 8 9 5 3 3 5 5 3 1 9 11 14 14 14 14 12 13 13 12 9 2 5 4 8 10 28 6 11
63 63 56 55 50 41 37 31 29 26 22 20 16 15 12 8 7 6 5 5 2 2 5 3 3 3 3 2 9 14 11 13 17 16 15 7 3 2 1 4 8 8 8 11 13 11 13
62 64 62 59 51 42 37 32 29 24 23 18 17 14 11 7 5 3 1 5 4 3 7 4 3 4 5 5 12 17 11 11 5 4 3 5 2 10 11 12 15 16 18 22 27 23 23
65 59 66 60 49 43 37 37 32 28 22 18 18 14 11 9 7 3 2 5 4 1 2 6 10 11 9 11 8 15 7 4 2 6 2 1 9 15 8 8 13 18 22 23 22 25 19
61 62 69 57 51 45 43 37 30 27 23 22 17 14 13 12 10 6 3 5 4 6 2 4 6 5 4 4 6 12 9 9 5 5 4 6 9 3 8 12 14 20 19 23 24 28 21
61 69 61 58 50 46 38 29 28 27 24 19 17 16 14 15 10 10 4 2 3 3 3 2 4 2 3 4 2 17 12 7 2 2 2 6 5 10 8 12 12 23 16 21 24 15 11
75 67 62 52 48 42 32 32 31 26 20 19 17 15 15 19 9 14 5 2 3 2 0 4 3 2 8 3 6 5 15 6 4 4 4 9 8 6 6 9 11 20 14 15 13 14 12
68 66 57 49 38 36 36 34 29 25 21 20 16 16 16 17 15 11 5 4 2 4 4 3 3 4 5 3 5 4 7 10 8 4 6 13 9 4 7 10 17 17 9 7 10 10 8
64 57 49 43 39 35 33 31 29 25 20 17 18 16 17 16 15 10 7 7 3 2 2 1 1 3 3 4 5 3 3 7 2 6 14 9 4 2 5 7 6 6 3 3 3 2 6
43 40 37 37 33 30 30 29 25 22 18 17 17 17 17 16 12 10 13 3 3 3 1 1 2 4 2 5 3 5 3 5 4 2 9 6 10 2 5 6 6 4 6 3 4 3 6
29 33 32 29 27 27 24 24 21 21 17 16 16 15 17 17 11 13 8 2 4 3 3 2 4 2 3 4 3 5 1 1 3 6 5 6 8 10 17 13 6 1 6 11 5 8 4
29 29 30 26 22 22 21 22 22 21 18 17 20 16 14 13 15 10 3 3 2 3 3 3 1 1 1 4 4 3 2 3 3 2 5 5 11 7 9 6 6 4 6 0 3 5 4
22 22 25 23 21 21 21 22 22 20 20 21 19 9 12 11 13 4 3 4 3 3 3 3 2 1 2 2 2 2 4 4 1 4 10 5 5 10 10 5 6 6 4 4 3 4 4
19 19 25 21 16 20 22 21 21 19 22 20 10 3 14 11 3 2 3 4 4 3 2 1 3 1 0 2 2 3 3 2 10 9 6 5 3 6 13 4 6 2 2 4 3 4 2
16 17 18 18 15 19 20 20 19 19 20 16 8 7 10 10 3 2 3 1 4 3 2 2 1 3 2 3 3 2 3 6 10 7 4 4 3 5 9 4 2 3 6 9 8 3 1
19 20 22 16 16 17 18 18 19 19 18 13 7 3 4 7 2 3 3 2 3 3 3 2 3 6 4 2 3 5 7 6 17 10 10 3 3 5 4 12 13 9 11 12 3 2 2
15 15 16 16 18 18 19 19 18 17 16 9 3 3 5 3 2 3 3 2 3 2 2 3 3 4 2 3 4 1 2 7 8 5 4 2 4 4 11 11 10 12 8 11 12 12 2
18 16 18 16 15 18 19 17 15 17 15 5 4 4 4 5 9 4 1 3 4 3 3 2 3 2 3 3 5 12 5 4 7 3 6 3 3 4 4 7 8 17 20 16 11 12 9
16 15 17 17 15 17 18 15 15 17 15 4 7 8 6 2 3 4 4 5 4 5 2 4 2 1 4 7 11 20 22 24 16 11 9 3 2 3 4 7 5 4 14 13 8 18 8
19 17 17 16 14 14 16 16 15 15 11 7 11 8 5 1 3 2 1 4 5 2 4 2 7 2 4 19 22 17 13 18 13 13 14 3 2 2 4 5 4 3 10 7 10 14 14
19 17 18 17 16 14 16 17 16 14 11 11 11 5 5 3 2 5 7 6 5 6 3 2 3 7 12 7 4 5 4 3 3 3 2 9 1 2 1 3 3 3 8 8 6 8 14
19 16 22 18 15 13 13 17 17 15 12 10 9 9 6 10 1 3 4 3 2 2 4 1 6 6 10 3 3 2 2 3 4 8 6 3 2 2 3 3 2 2 19 19 7 5 13
21 20 20 16 14 12 11 16 17 15 13 10 10 9 6 6 4 5 3 3 4 3 1 3 7 7 10 3 2 2 2 2 3 4 4 4 3 3 3 1 2 12 20 16 2 4 14
21 20 19 17 15 13 11 15 18 16 15 12 9 9 6 4 7 6 6 5 3 3 2 2 3 4 4 3 2 1 1 2 2 2 1 4 3 3 3 3 2 21 8 5 5 10 12
24 23 20 17 15 13 11 15 18 17 14 12 10 7 5 3 4 7 6 7 7 4 3 1 2 0 1 3 1 0 2 2 1 2 3 2 2 1 3 1 5 7 8 8 10 8 10

GFSGBSN_850_spd_129.txt.gz
Wind_Speed
43 41 41 36 35 33 29 29 26 23 24 21 21 18 17 16 14 14 12 11 11 11 11 11 11 8 3 1 3 2 4 5 6 8 9 8 11 3 1 3 5 6 3 8 11 21 21
45 47 43 42 42 38 32 31 32 29 26 23 22 20 18 17 15 15 13 11 11 11 11 11 10 7 2 3 7 8 4 3 6 8 9 9 6 4 1 3 2 3 12 18 15 18 17
40 36 47 45 44 43 40 34 35 34 31 26 23 23 20 16 14 14 12 11 12 12 11 10 9 5 1 6 9 6 4 4 6 7 7 6 4 4 4 4 5 8 11 10 9 2 3
38 43 42 47 49 48 47 43 37 39 35 30 25 25 20 16 14 13 11 11 12 11 11 10 5 2 4 10 8 4 4 3 6 5 5 3 4 6 2 5 6 5 3 5 1 14 4
39 41 42 47 52 52 49 46 48 42 39 34 28 26 21 16 15 13 10 9 10 9 8 7 3 2 7 8 5 2 1 4 8 4 5 2 2 1 1 1 3 4 8 9 9 7 6
36 42 44 43 48 58 55 52 53 45 46 41 32 29 21 16 16 12 9 6 5 5 5 4 3 5 8 6 3 4 4 8 5 4 3 3 3 1 1 1 4 6 9 8 14 2 8
40 41 46 49 47 52 59 57 55 53 50 43 34 29 22 17 15 12 9 7 4 2 8 2 4 4 7 4 5 5 3 8 2 2 2 2 1 6 7 7 7 7 13 17 23 18 17
45 46 45 49 53 54 58 59 60 50 53 46 38 28 24 18 15 14 12 8 7 3 1 7 6 5 4 2 2 6 3 2 1 2 0 1 5 5 4 6 6 7 13 18 24 13 14
53 53 50 54 59 61 54 60 61 54 56 47 37 30 27 21 19 15 14 14 7 6 2 1 4 4 4 3 1 2 2 1 1 1 3 4 2 3 2 8 7 9 11 17 16 26 21
57 58 57 54 56 57 58 62 64 59 58 47 34 30 25 25 19 17 14 13 9 9 3 3 4 5 6 3 1 2 2 1 1 1 1 6 1 2 2 8 5 10 12 16 13 14 10
62 64 56 48 48 49 66 66 64 64 55 47 38 33 27 28 13 23 13 12 11 6 3 6 3 8 6 2 3 1 3 1 3 2 1 3 1 2 4 8 6 8 6 14 18 16 13
60 54 42 37 43 48 71 72 63 63 52 45 40 36 30 29 18 19 14 14 11 3 6 5 5 4 4 2 1 1 4 3 1 0 3 9 5 4 5 6 10 11 10 18 6 2 5
50 26 26 32 38 63 69 68 68 55 51 44 35 35 30 28 26 25 19 17 3 4 2 6 4 3 4 2 2 3 3 5 4 5 6 6 3 3 5 4 3 1 11 5 2 3 6
29 19 24 32 61 75 76 73 50 56 48 39 38 32 30 25 27 26 25 3 4 4 4 4 5 7 4 1 2 3 3 2 4 1 2 5 2 1 1 4 7 8 4 3 5 5 13
40 35 20 61 69 69 66 55 57 48 41 41 36 32 28 26 26 24 12 2 4 5 7 10 5 4 3 2 3 0 2 2 2 2 4 2 5 1 8 7 2 1 3 3 4 9 5
11 26 41 35 56 64 58 49 45 42 41 40 39 31 26 25 23 23 3 3 3 4 7 5 4 3 4 4 2 3 1 1 2 2 1 0 5 2 5 5 5 2 5 2 3 5 7
3 11 14 23 41 43 45 45 44 43 41 36 34 13 21 22 19 14 3 3 4 9 9 4 5 5 4 4 3 2 3 1 0 1 1 0 2 6 5 1 7 5 4 4 3 4 4
12 15 21 24 24 21 27 35 45 42 43 37 10 5 23 23 5 2 3 4 6 6 5 5 5 5 4 4 3 3 4 3 1 1 4 1 2 5 7 11 2 5 8 4 4 3 5
15 20 19 22 25 29 30 29 30 43 38 19 9 12 23 15 4 3 2 3 4 5 4 4 4 3 3 4 4 3 3 4 3 2 3 2 2 5 3 5 4 6 14 10 8 4 4
13 15 18 21 22 22 24 26 32 38 22 18 10 4 5 5 1 4 4 4 5 6 5 8 5 5 4 3 1 4 2 1 3 2 6 3 3 5 4 5 3 4 16 14 9 2 4
15 14 13 17 19 19 20 24 32 36 19 9 5 4 9 4 4 3 3 5 10 5 4 7 3 4 5 4 2 3 2 2 1 0 2 1 3 4 9 13 2 4 12 15 11 11 5
13 14 15 14 18 19 19 22 31 28 16 2 5 7 6 7 16 5 3 4 7 4 4 3 7 6 4 4 3 4 4 3 3 1 2 1 2 2 4 5 9 3 13 12 10 11 6
20 17 14 13 13 17 18 20 23 23 14 2 8 14 12 2 4 4 3 5 8 8 8 8 10 5 5 4 5 6 7 8 5 2 1 2 0 3 2 5 3 4 8 7 8 14 8
15 13 12 13 14 16 16 17 20 18 9 8 14 8 7 2 3 4 6 10 8 4 6 5 9 4 4 3 4 1 3 8 7 10 10 2 2 1 4 6 2 4 6 3 7 10 10
15 15 14 12 14 17 17 16 17 15 9 10 12 7 6 3 6 7 12 8 13 12 5 6 4 3 1 2 3 4 2 2 3 2 5 8 1 1 2 3 4 4 6 6 4 7 13
21 17 17 13 14 17 16 15 16 14 11 9 10 10 10 10 1 10 8 9 4 3 2 3 5 4 2 2 2 3 3 3 4 3 5 5 2 0 2 2 1 2 13 10 5 2 12
25 20 16 13 13 16 17 17 16 15 12 10 11 13 11 11 6 10 4 5 6 5 3 2 2 2 4 2 2 2 2 1 3 2 0 1 2 2 1 2 4 7 16 9 3 4 10
23 23 19 15 14 15 18 18 17 14 12 10 12 10 8 9 10 10 9 9 8 5 3 5 4 3 3 3 2 2 1 2 2 3 2 1 0 0 1 1 2 12 3 3 4 7 9
25 25 23 17 15 16 18 16 15 14 12 11 13 13 15 10 13 16 15 11 8 7 12 4 4 3 3 3 1 2 2 1 3 4 1 2 1 1 0 1 6 7 7 3 4 4 7

GFSGBSN_850_spd_132.txt.gz
Wind_Speed
34 36 36 38 34 29 32 33 29 27 22 22 19 19 18 15 13 12 11 10 10 10 11 10 9 7 4 3 2 3 3 3 6 5 6 2 3 2 5 4 6 10 9 9 14 18 22
32 35 34 38 39 37 34 34 34 31 26 24 24 22 19 17 15 13 11 10 10 10 10 11 10 7 3 6 6 6 4 3 3 4 5 5 2 1 3 3 5 3 11 17 17 19 22
34 34 36 39 40 40 37 36 36 35 29 25 27 26 23 19 15 14 13 11 10 8 9 9 8 5 3 2 10 6 3 3 4 4 3 4 2 4 4 6 4 9 13 12 7 4 12
37 38 36 35 37 36 40 41 40 39 37 31 31 30 24 24 16 15 12 11 10 8 9 9 5 2 2 14 8 5 5 1 5 3 1 2 2 3 3 5 6 8 7 5 8 10 7
31 30 36 37 38 38 38 42 43 42 41 36 35 33 28 25 18 15 13 10 8 8 8 7 4 4 5 10 5 4 4 1 3 2 2 2 1 3 3 6 9 5 8 11 9 4 10
30 29 30 31 36 40 40 44 47 46 46 42 38 36 32 26 20 15 14 9 6 6 6 5 5 4 7 8 7 6 3 3 1 1 2 2 2 5 4 6 8 10 12 11 13 6 15
31 33 34 33 32 34 41 44 45 50 52 48 47 39 36 26 21 19 16 11 4 3 9 4 4 1 10 10 9 5 2 1 1 2 4 1 6 6 7 5 8 9 13 18 14 16 14
32 35 38 39 39 37 38 42 47 50 53 53 48 43 41 30 22 20 18 11 11 6 4 10 6 5 10 10 8 5 3 4 3 3 2 5 5 5 3 4 7 11 14 18 13 2 18
30 38 44 46 47 44 41 39 44 47 58 50 50 44 42 32 24 24 25 18 10 8 2 4 7 6 6 8 5 6 3 1 2 2 3 6 4 4 4 7 9 13 13 16 21 18 20
33 39 47 50 53 51 47 44 42 48 57 53 52 45 43 31 26 24 25 22 15 11 4 10 9 7 8 6 5 5 2 1 3 3 4 5 1 3 7 10 7 12 5 10 18 17 7
31 42 52 57 57 56 52 52 49 55 58 62 51 51 42 35 18 34 23 21 17 11 5 11 8 9 8 7 12 5 2 2 4 1 3 3 3 4 5 2 3 6 9 15 18 18 16
32 42 57 58 56 54 57 56 51 61 65 62 53 51 39 37 19 24 23 23 19 5 8 9 9 11 11 7 5 6 3 2 1 3 6 9 6 5 3 6 8 12 15 17 3 3 5
31 42 58 63 47 45 49 51 53 72 67 69 57 48 46 41 30 26 26 26 5 7 11 11 11 14 11 9 7 7 4 3 1 3 1 2 5 3 4 9 4 4 10 4 4 5 6
29 37 56 60 27 19 29 42 61 74 73 60 56 47 43 36 31 30 24 6 7 13 12 8 17 17 9 12 6 6 7 5 3 2 2 2 5 4 2 5 6 7 4 4 6 8 15
26 30 39 27 20 26 33 53 71 72 63 58 51 46 44 35 33 29 22 11 8 11 12 17 17 14 7 9 5 6 5 5 3 5 3 2 2 3 7 5 5 2 3 3 6 15 7
21 21 21 17 19 26 55 72 75 70 59 55 51 37 31 32 33 25 10 12 6 5 16 22 9 10 11 14 10 5 11 6 6 2 2 1 4 3 3 3 3 6 7 3 3 5 8
12 9 12 22 34 43 72 74 74 63 58 50 48 17 26 32 29 14 5 8 5 16 16 11 8 10 9 13 9 8 9 7 6 5 2 2 3 3 3 1 5 3 3 4 5 6 5
10 4 8 17 14 31 36 56 62 62 54 51 18 6 34 31 12 12 10 7 11 17 9 5 9 9 13 13 8 7 9 3 8 4 4 3 2 3 4 3 1 6 7 7 4 2 9
8 7 6 12 22 24 25 32 48 51 45 30 11 18 30 18 9 12 7 9 9 13 9 7 6 5 9 10 6 8 8 8 7 1 5 4 2 3 6 6 9 3 10 8 7 6 3
5 9 14 18 18 26 34 37 46 29 28 23 16 5 9 7 3 13 12 14 8 7 5 9 11 11 11 10 3 10 9 5 5 4 5 2 1 3 6 4 3 6 10 9 5 4 4
8 9 16 18 22 23 29 45 35 27 22 21 7 7 13 8 7 10 10 14 16 7 5 10 6 6 10 7 8 7 7 6 5 6 5 0 2 4 10 11 4 2 7 12 12 13 7
10 11 14 19 20 19 27 37 21 16 12 8 7 10 9 21 19 13 8 15 18 9 10 10 11 13 8 9 3 11 9 6 5 6 3 3 1 6 7 6 11 7 8 12 9 11 11
14 17 14 15 16 19 22 27 21 19 8 4 7 19 12 14 15 13 10 18 16 14 4 11 17 11 8 8 7 8 3 5 6 4 5 3 2 5 3 2 10 4 5 6 10 11 6
16 15 16 13 13 16 18 24 20 15 6 2 11 11 6 9 13 10 14 15 17 11 11 13 13 7 7 9 6 4 4 5 4 5 4 2 4 3 3 4 3 5 2 5 10 9 9
18 16 14 14 17 16 20 25 20 15 6 6 8 4 6 9 13 11 18 17 18 18 14 15 5 6 9 8 5 8 5 6 5 4 5 8 3 3 3 1 6 8 3 3 3 5 9
17 17 14 12 17 16 17 17 16 16 5 6 5 9 11 14 6 23 17 21 13 9 8 5 6 8 4 3 3 6 5 6 6 6 4 7 5 5 3 3 3 6 8 3 4 4 9
18 16 15 15 14 16 17 16 15 18 10 6 5 13 12 9 7 17 10 11 9 8 6 7 6 4 3 3 4 4 4 1 7 8 5 4 4 5 2 3 3 4 8 1 5 4 7
23 20 16 14 16 18 17 17 14 14 10 8 8 12 11 8 8 8 9 9 9 9 7 9 6 2 3 4 3 3 3 3 4 4 4 4 2 2 2 4 3 10 2 3 3 2 5
26 22 18 14 15 16 16 17 17 15 12 10 11 12 24 11 11 19 16 12 11 8 12 6 2 5 3 2 1 2 3 3 5 5 3 3 3 1 4 3 4 8 8 5 2 2 4

GFSGBSN_850_spd_135.txt.gz
Wind_Speed
33 33 31 31 32 31 30 28 29 26 27 25 22 20 17 16 15 13 11 10 10 9 6 5 6 5 3 5 4 8 4 2 5 4 4 5 6 8 11 8 10 16 17 14 14 15 19
29 30 34 34 33 34 34 30 29 29 28 29 24 23 22 18 16 15 13 11 10 10 8 6 5 4 2 10 7 5 2 1 2 2 3 4 3 5 10 10 8 11 14 19 21 21 20
30 32 33 33 35 32 35 35 35 32 32 30 26 23 23 22 18 16 14 12 11 11 9 8 4 3 6 5 6 4 2 2 0 1 3 4 4 6 7 9 6 11 16 18 22 7 10
24 29 34 34 33 33 37 33 35 34 33 34 32 30 23 25 21 17 14 14 12 11 10 9 5 1 6 9 8 5 5 3 1 2 3 4 5 7 7 9 13 12 13 13 8 4 11
23 26 27 27 32 34 34 33 32 34 39 35 37 33 31 25 25 18 15 13 11 11 11 8 3 4 7 10 8 8 7 6 4 3 4 4 4 9 8 10 11 13 9 7 14 6 6
23 23 25 27 27 27 31 33 33 36 34 37 38 36 36 30 25 20 14 12 9 8 8 4 6 6 10 13 11 8 7 4 5 5 5 5 6 8 11 9 10 13 13 12 16 13 16
26 27 29 29 28 30 28 29 31 35 36 39 42 39 36 32 28 26 17 8 4 4 13 9 4 4 12 11 9 9 8 5 6 7 11 7 8 12 10 7 8 10 13 15 14 14 12
24 26 28 31 33 31 29 29 29 32 35 38 45 45 41 35 32 22 20 11 5 1 7 16 9 9 10 13 10 11 8 7 7 10 3 8 13 8 4 5 7 11 15 14 13 3 16
26 29 28 29 34 35 33 33 31 34 33 36 42 46 46 39 34 27 29 24 10 5 8 10 15 14 16 15 14 14 11 6 9 9 10 10 7 1 6 8 10 12 13 13 14 15 17
29 30 31 34 37 42 39 38 36 33 36 36 43 47 48 42 33 30 33 24 11 3 1 9 11 12 16 13 9 9 8 6 7 8 3 7 6 2 7 10 7 11 6 11 13 14 12
27 29 32 35 40 45 47 45 40 38 42 39 46 51 54 48 29 32 25 23 16 9 1 15 18 14 20 17 17 13 8 6 10 6 5 4 5 5 6 5 3 7 10 15 17 15 17
28 29 33 37 42 50 52 50 49 48 47 42 50 57 55 47 34 24 17 26 18 3 7 13 14 18 20 19 13 12 10 7 2 5 9 11 2 5 5 5 8 10 13 18 17 6 8
28 30 33 37 44 52 53 52 55 58 48 50 56 64 53 43 32 30 28 28 7 5 16 16 16 24 21 14 13 12 12 12 8 7 10 8 9 5 5 7 6 6 11 8 5 7 10
26 30 32 36 46 54 51 54 52 45 46 57 62 64 51 38 29 39 42 7 7 10 19 10 22 22 16 17 13 12 10 9 4 6 3 8 7 11 7 3 6 7 6 6 7 10 14
24 28 28 34 48 52 42 33 34 39 54 70 67 53 39 30 37 46 37 6 9 10 13 17 21 23 13 17 8 12 12 12 5 2 4 5 5 5 4 4 4 3 4 6 6 13 12
23 24 25 32 47 44 26 28 24 48 73 79 60 47 33 37 47 45 11 7 8 11 14 20 15 19 17 20 12 9 15 8 8 3 3 3 4 6 4 7 11 8 7 4 3 5 9
21 19 22 25 28 30 19 29 45 72 81 66 53 18 31 40 39 26 9 11 18 14 21 24 12 12 15 19 14 11 15 7 9 8 5 3 4 8 5 7 2 4 2 3 7 9 8
16 19 16 14 10 24 33 48 66 80 70 56 22 5 41 46 11 11 11 12 8 19 19 7 8 8 15 18 14 13 12 8 11 8 5 4 3 5 2 6 1 3 4 4 3 8 8
12 16 10 6 11 27 41 43 59 61 48 36 13 19 38 31 8 13 12 11 12 19 15 11 8 7 15 15 9 10 12 10 12 8 6 6 4 4 7 8 11 1 3 9 9 11 14
8 8 6 3 13 22 32 44 27 19 21 30 13 6 13 12 6 17 17 16 15 16 6 7 7 11 16 15 6 13 14 9 11 6 1 1 4 4 3 1 2 4 4 8 9 7 4
5 3 1 6 13 20 26 31 22 16 14 10 6 7 13 9 10 20 16 16 19 14 9 11 8 14 15 10 10 11 14 12 8 7 8 5 5 5 5 4 5 0 2 5 4 10 5
7 7 7 8 9 17 23 24 22 16 12 10 7 14 19 27 22 17 16 19 20 11 13 13 11 14 12 11 5 16 13 13 8 12 10 5 4 4 4 3 12 4 2 2 2 3 5
7 10 12 10 11 12 24 12 17 9 15 8 16 17 20 19 16 12 14 21 20 14 2 10 14 13 10 9 4 16 10 9 8 11 9 6 3 3 3 7 10 5 3 3 5 6 6
13 14 12 9 13 25 18 10 18 9 12 7 21 14 18 12 15 16 17 18 16 12 11 13 17 10 10 15 14 11 8 7 7 5 4 5 4 1 1 11 5 4 5 4 8 4 5
17 16 15 9 10 14 14 21 15 7 4 5 17 5 15 12 19 19 23 17 19 14 18 20 11 11 17 15 9 9 6 6 7 9 8 4 3 3 3 3 6 6 6 6 7 5 2
17 16 16 15 17 12 11 9 8 5 5 4 2 8 11 12 15 20 18 23 14 14 13 10 10 12 13 6 6 8 6 10 7 7 6 7 3 4 5 8 4 7 3 3 4 5 2
19 20 16 14 16 16 15 16 17 8 3 5 2 10 8 14 12 23 14 18 19 14 8 13 9 7 8 7 7 7 4 6 9 10 8 7 4 7 6 5 6 5 5 9 4 4 3
18 20 17 14 13 14 15 14 13 10 4 3 3 11 11 18 14 11 13 14 13 13 9 18 8 4 8 8 7 3 2 6 4 7 8 7 7 5 5 5 5 4 7 4 4 5 3
20 19 16 17 17 15 14 14 13 13 7 4 3 13 18 12 14 16 17 14 9 5 15 20 2 19 7 5 2 3 3 3 7 6 3 4 3 1 4 3 6 8 10 6 4 4 3

GFSGBSN_850_spd_141.txt.gz
Wind_Speed
29 28 27 26 26 25 25 26 24 21 19 18 18 17 16 16 16 14 14 14 11 9 11 12 11 10 9 5 9 9 8 6 4 4 4 6 6 7 3 10 15 5 4 12 13 16 13
25 26 28 30 30 28 26 25 26 24 24 21 19 18 17 14 14 14 15 14 14 11 8 10 11 9 8 7 9 9 9 5 1 2 4 4 5 8 7 9 6 13 17 14 15 21 17
23 25 26 28 27 28 28 29 28 25 25 25 24 21 19 16 15 16 14 16 14 14 11 8 10 10 11 15 5 11 4 3 8 2 3 4 5 4 11 7 12 15 7 10 20 19 8
19 20 21 23 26 27 27 27 26 26 29 26 25 25 23 19 17 17 19 16 17 16 13 10 9 8 9 8 12 9 7 3 4 2 4 4 6 7 5 6 8 4 3 2 7 9 13
20 20 20 20 21 21 22 24 27 26 24 25 26 25 24 20 19 19 19 19 18 18 12 10 9 5 10 8 14 14 8 10 9 5 7 5 5 4 4 3 5 4 4 6 4 4 5
18 20 20 19 21 20 20 21 22 23 25 24 24 25 27 21 18 20 20 19 19 17 7 9 10 9 10 10 9 11 11 11 7 5 6 9 5 2 1 3 4 4 4 5 4 6 2
19 18 18 18 19 20 20 20 21 21 21 20 22 22 22 21 18 23 19 17 11 2 6 14 8 8 5 4 8 13 10 7 6 7 4 8 3 6 8 5 2 4 3 4 6 9 2
16 17 17 18 19 19 18 19 21 19 19 19 18 19 19 20 20 21 21 10 9 4 2 26 27 27 20 11 10 13 13 10 9 7 10 4 10 13 9 2 3 3 6 7 8 3 5
13 14 16 17 17 17 17 18 19 18 18 17 15 14 15 15 18 21 22 17 9 5 3 12 24 20 27 19 17 17 23 14 6 10 10 8 9 7 3 4 6 5 6 8 3 5 5
13 15 17 19 19 19 19 18 19 19 17 19 16 10 12 16 15 19 22 16 12 7 2 7 8 13 23 16 8 25 31 15 9 8 7 9 15 6 6 6 5 6 6 5 4 4 3
16 16 17 19 19 21 21 20 20 21 22 20 19 13 16 19 14 15 20 19 9 5 3 5 7 8 17 25 5 21 29 22 7 7 4 7 3 4 4 5 7 4 6 4 4 6 3
19 17 19 20 21 22 23 23 23 23 23 23 20 17 17 16 23 22 17 13 16 2 8 5 8 8 10 21 9 12 23 11 7 7 10 9 9 6 6 8 5 4 6 10 9 3 1
19 19 20 20 21 23 25 26 27 28 27 27 21 15 22 24 32 25 16 26 2 5 5 10 4 5 14 8 11 10 10 7 6 4 5 6 11 6 7 2 5 7 3 3 2 1 5
20 19 20 21 23 25 27 29 31 32 32 31 21 20 23 29 29 26 33 2 7 10 13 2 8 8 14 11 10 12 12 10 14 8 1 8 4 13 8 7 2 6 4 4 3 0 4
21 20 20 21 25 26 29 32 36 36 35 30 24 23 26 37 39 39 28 8 9 9 12 18 9 9 15 14 7 13 11 15 14 16 5 4 9 8 13 5 5 3 4 3 1 4 3
22 19 20 22 25 28 32 35 38 38 35 31 25 27 38 39 45 42 13 16 14 16 18 9 17 12 10 18 12 10 9 10 16 15 11 2 3 10 6 3 8 4 0 1 0 1 3
21 19 19 21 23 25 27 33 37 34 34 29 28 23 31 50 49 32 12 11 20 21 25 12 19 9 9 12 17 6 5 7 9 5 8 0 2 5 7 6 6 3 2 1 2 3 3
20 19 19 18 20 16 18 24 22 19 16 31 37 8 36 63 15 14 16 25 19 23 29 12 9 13 3 14 11 10 9 5 12 12 6 1 2 3 6 7 4 4 5 4 4 1 1
19 20 18 15 14 10 13 8 2 13 31 37 30 7 54 69 15 12 7 15 20 20 15 12 8 10 18 7 5 7 6 4 18 6 4 5 2 2 3 4 3 2 5 5 4 3 4
19 19 16 12 9 9 4 1 2 6 16 18 9 5 14 36 19 17 17 14 17 23 18 18 13 5 6 5 2 6 5 2 14 8 6 2 1 5 6 4 3 5 6 6 4 2 2
20 18 14 11 7 13 6 2 4 3 17 3 1 4 11 12 5 15 20 15 21 11 13 20 3 6 5 5 7 6 6 7 6 5 4 2 2 3 3 7 4 3 6 7 3 3 2
18 15 11 10 6 15 13 12 2 2 6 5 2 6 11 20 9 13 17 14 22 19 12 16 8 11 10 6 14 15 11 5 5 3 5 2 2 3 6 4 9 4 4 10 6 4 6
16 13 12 9 7 10 18 17 9 3 7 1 3 6 15 18 10 10 14 12 18 13 10 20 11 9 14 10 8 10 14 18 8 8 7 6 3 2 3 11 6 2 4 4 7 5 2
15 12 12 10 8 7 12 16 7 9 8 9 4 9 4 6 10 10 16 12 13 6 4 5 6 5 8 20 24 24 17 9 14 11 10 6 4 2 4 6 3 3 1 6 9 4 3
15 13 8 9 8 5 10 10 11 9 9 9 14 5 2 5 12 12 15 9 12 9 5 2 1 16 21 18 8 6 3 2 6 11 8 3 4 2 3 1 3 6 6 6 5 5 6
16 13 11 7 6 8 8 3 7 8 10 9 9 4 3 4 10 11 14 21 9 8 5 7 23 28 15 4 3 4 4 5 5 5 5 2 3 3 1 3 5 1 10 14 9 2 7
16 14 12 10 6 7 7 6 3 8 8 6 5 14 4 4 16 22 8 20 15 9 4 5 6 5 7 3 2 4 5 9 7 8 6 4 2 3 2 1 2 6 12 15 4 5 14
16 17 16 12 8 6 5 9 8 11 8 6 2 13 11 7 16 21 20 21 9 18 5 13 6 1 3 3 5 4 3 6 4 6 7 4 4 3 3 2 4 14 11 5 8 16 15
18 18 16 12 11 9 8 15 8 13 9 9 5 12 13 12 20 19 16 14 15 27 21 19 10 8 9 3 2 1 1 3 5 3 5 3 4 4 2 3 9 16 16 24 20 19 15